[[{"header":{"parameterUnit":"m.s-1","parameterCategory":1,"la1":30.6,"la2":29.2853,"lo1":-89.7004,"lo2":-87.6739,"dy":0.0162,"dx":0.0183,"nx":112,"ny":82,"refTime":"2023-06-23T06:00:00:Z","depth":0,"parameterNumber":2,"parameterNumberName":"U-component_of_WINDS"},"data":[0.0,0.0,0.0,0.0,0.0,0.0,0.0,0.0,0.0,0.0,0.0,0.0,0.0,0.0,0.0,0.0,0.0,0.0,0.0,0.0,0.0,0.0,0.0,0.0,0.0,0.0,0.0,0.0,0.0,0.0,0.0,0.0,0.0,0.0,0.0,0.0,0.0,0.0,0.0,0.0,0.0,0.0,0.0,0.0,0.0,0.0,0.0,0.0,0.0,0.0,0.0,0.0,0.0,0.0,0.0,0.0,0.0,0.0,0.0,0.0,0.0,0.0,0.0,0.0,0.0,0.0,0.0,0.0,0.0,0.0,0.0,0.0,0.0,0.0,0.0,0.0,0.0,0.0,0.0,0.0,0.0,0.0,0.0,0.0,0.0,0.0,0.0,0.0,0.0,0.0,-0.8471,-0.856,-0.962,-1.0288,-1.0288,-1.0288,-0.9801,-0.8627,0.0,0.0,0.0,0.0,0.0,0.0,0.0,0.0,0.0,0.0,0.0,0.0,0.0,0.0,0.0,0.0,0.0,0.0,0.0,0.0,0.0,0.0,0.0,0.0,0.0,0.0,0.0,0.0,0.0,0.0,0.0,0.0,0.0,0.0,0.0,0.0,0.0,0.0,0.0,0.0,0.0,0.0,0.0,0.0,0.0,0.0,0.0,0.0,0.0,0.0,0.0,0.0,0.0,0.0,0.0,0.0,0.0,0.0,0.0,0.0,0.0,0.0,0.0,0.0,0.0,0.0,0.0,0.0,0.0,0.0,0.0,0.0,0.0,0.0,0.0,0.0,0.0,0.0,0.0,0.0,0.0,0.0,0.0,0.0,0.0,0.0,0.0,0.0,0.0,0.0,0.0,0.0,0.0,0.0,0.0,0.0,0.0,0.0,0.0,0.0,0.0,0.0,0.0,0.0,-1.0444,-1.1277,-1.1463,-1.1658,-1.1658,-1.1658,-1.1556,-1.1361,0.0,0.0,0.0,0.0,0.0,0.0,0.0,0.0,0.0,0.0,0.0,0.0,0.0,0.0,0.0,0.0,0.0,0.0,0.0,0.0,0.0,0.0,0.0,0.0,0.0,0.0,0.0,0.0,0.0,0.0,0.0,0.0,0.0,0.0,0.0,0.0,0.0,0.0,0.0,0.0,0.0,0.0,0.0,0.0,0.0,0.0,0.0,0.0,0.0,0.0,0.0,0.0,0.0,0.0,0.0,0.0,0.0,0.0,0.0,0.0,0.0,0.0,0.0,0.0,0.0,0.0,0.0,0.0,0.0,0.0,0.0,0.0,0.0,0.0,0.0,0.0,0.0,0.0,0.0,0.0,0.0,0.0,0.0,0.0,0.0,0.0,0.0,0.0,0.0,0.0,0.0,0.0,0.0,0.0,0.0,0.0,0.0,0.0,0.0,0.0,0.0,0.0,0.0,-1.0422,-1.178,-1.2818,-1.3006,-1.3006,-1.3006,-1.3006,-1.2624,-1.195,-1.0779,0.0,0.0,0.0,0.0,0.0,0.0,0.0,0.0,0.0,0.0,0.0,0.0,0.0,0.0,0.0,0.0,0.0,0.0,0.0,0.0,0.0,0.0,0.0,0.0,0.0,0.0,0.0,0.0,0.0,0.0,0.0,0.0,0.0,0.0,0.0,0.0,0.0,0.0,0.0,0.0,0.0,0.0,0.0,0.0,0.0,0.0,0.0,0.0,0.0,0.0,0.0,0.0,0.0,0.0,0.0,0.0,0.0,0.0,0.0,0.0,0.0,0.0,0.0,0.0,0.0,0.0,0.0,0.0,0.0,0.0,0.0,0.0,0.0,0.0,0.0,0.0,0.0,0.0,0.0,0.0,0.0,0.0,0.0,0.0,0.0,0.0,0.0,0.0,0.0,0.0,0.0,0.0,0.0,0.0,0.0,0.0,0.0,0.0,0.0,0.0,0.0,0.0,-1.1556,-1.2915,-1.4166,-1.4364,-1.4388,-1.4455,-1.4461,-1.4069,-1.3002,-1.2607,0.0,0.0,0.0,0.0,0.0,0.0,0.0,0.0,0.0,0.0,0.0,0.0,0.0,0.0,0.0,0.0,0.0,0.0,0.0,0.0,0.0,0.0,0.0,0.0,0.0,0.0,0.0,0.0,0.0,0.0,0.0,0.0,0.0,0.0,0.0,0.0,0.0,0.0,0.0,0.0,0.0,0.0,0.0,0.0,0.0,0.0,0.0,0.0,0.0,0.0,0.0,0.0,0.0,0.0,0.0,0.0,0.0,0.0,0.0,0.0,0.0,0.0,0.0,0.0,0.0,0.0,0.0,0.0,0.0,0.0,0.0,0.0,0.0,0.0,0.0,0.0,0.0,0.0,0.0,0.0,0.0,0.0,0.0,0.0,0.0,0.0,0.0,0.0,0.0,0.0,0.0,0.0,0.0,0.0,0.0,0.0,0.0,0.0,0.0,0.0,0.0,0.0,-1.2909,-1.4268,-1.5534,-1.5635,-1.5747,-1.6115,-1.6142,-1.6135,-1.6038,-1.4832,0.0,0.0,0.0,0.0,0.0,0.0,0.0,0.0,0.0,0.0,0.0,0.0,0.0,0.0,0.0,0.0,0.0,0.0,0.0,0.0,0.0,0.0,0.0,0.0,0.0,0.0,0.0,0.0,0.0,0.0,0.0,0.0,0.0,0.0,0.0,0.0,0.0,0.0,0.0,0.0,0.0,0.0,0.0,0.0,0.0,0.0,0.0,0.0,0.0,0.0,0.0,0.0,0.0,0.0,0.0,0.0,0.0,0.0,0.0,0.0,0.0,0.0,0.0,0.0,0.0,0.0,0.0,0.0,0.0,0.0,0.0,0.0,0.0,0.0,0.0,0.0,0.0,0.0,0.0,0.0,0.0,0.0,0.0,0.0,0.0,0.0,0.0,0.0,0.0,0.0,0.0,0.0,0.0,0.0,0.0,0.0,0.0,0.0,0.0,0.0,0.0,0.0,-1.4759,-1.5868,0.0,-1.638,-1.642,-1.6533,-1.6547,-1.6466,-1.6286,0.0,0.0,0.0,0.0,0.0,0.0,0.0,0.0,0.0,0.0,0.0,0.0,0.0,0.0,0.0,0.0,0.0,0.0,0.0,0.0,0.0,0.0,0.0,0.0,0.0,0.0,0.0,0.0,0.0,0.0,0.0,0.0,0.0,0.0,0.0,0.0,0.0,0.0,0.0,0.0,0.0,0.0,0.0,0.0,0.0,0.0,0.0,0.0,0.0,0.0,0.0,0.0,0.0,0.0,0.0,0.0,0.0,0.0,0.0,0.0,0.0,0.0,0.0,0.0,0.0,0.0,0.0,0.0,0.0,0.0,0.0,0.0,0.0,0.0,0.0,0.0,0.0,0.0,0.0,0.0,0.0,0.0,0.0,0.0,0.0,0.0,0.0,0.0,0.0,0.0,0.0,0.0,0.0,0.0,0.0,0.0,0.0,0.0,0.0,0.0,0.0,0.0,-1.4383,-1.5763,-1.6707,0.0,-1.6707,-1.674,-1.684,-1.6847,-1.676,-1.6567,0.0,0.0,0.0,0.0,0.0,0.0,0.0,0.0,0.0,0.0,0.0,0.0,0.0,0.0,0.0,0.0,0.0,0.0,0.0,0.0,0.0,0.0,0.0,0.0,0.0,0.0,0.0,0.0,0.0,0.0,0.0,0.0,0.0,0.0,0.0,0.0,0.0,0.0,0.0,0.0,0.0,0.0,0.0,0.0,0.0,0.0,0.0,0.0,0.0,0.0,0.0,0.0,0.0,0.0,0.0,0.0,0.0,0.0,0.0,0.0,0.0,0.0,0.0,0.0,0.0,0.0,0.0,0.0,0.0,0.0,0.0,0.0,0.0,0.0,0.0,0.0,0.0,0.0,0.0,0.0,0.0,0.0,0.0,0.0,0.0,0.0,0.0,0.0,0.0,0.0,0.0,0.0,0.0,0.0,0.0,0.0,0.0,0.0,0.0,0.0,0.0,0.0,-1.4856,-1.589,-1.6714,-1.6714,-1.6714,-1.6834,-1.7134,-1.7154,-1.7154,0.0,0.0,0.0,0.0,0.0,0.0,0.0,0.0,0.0,0.0,0.0,0.0,0.0,0.0,0.0,0.0,0.0,0.0,0.0,0.0,0.0,0.0,0.0,0.0,0.0,0.0,0.0,0.0,0.0,0.0,0.0,0.0,0.0,0.0,0.0,0.0,0.0,0.0,0.0,0.0,0.0,0.0,0.0,0.0,0.0,0.0,0.0,0.0,0.0,0.0,0.0,0.0,0.0,0.0,0.0,0.0,0.0,0.0,0.0,0.0,0.0,0.0,0.0,0.0,0.0,0.0,0.0,0.0,0.0,0.0,0.0,0.0,0.0,0.0,0.0,0.0,0.0,0.0,0.0,0.0,0.0,0.0,0.0,0.0,0.0,0.0,0.0,0.0,0.0,0.0,0.0,0.0,0.0,0.0,0.0,0.0,0.0,0.0,0.0,0.0,0.0,0.0,0.0,-1.6388,-1.6982,-1.7321,-1.7321,-1.7321,-1.7361,-1.7448,-1.7455,-1.7368,-1.7161,0.0,0.0,0.0,0.0,0.0,0.0,0.0,0.0,0.0,0.0,0.0,0.0,0.0,0.0,0.0,0.0,0.0,0.0,0.0,0.0,0.0,0.0,0.0,0.0,0.0,0.0,0.0,0.0,0.0,0.0,0.0,0.0,0.0,0.0,0.0,0.0,0.0,0.0,0.0,0.0,0.0,0.0,0.0,0.0,0.0,0.0,0.0,0.0,0.0,0.0,0.0,0.0,0.0,0.0,0.0,0.0,0.0,0.0,0.0,0.0,0.0,0.0,0.0,0.0,0.0,0.0,0.0,0.0,0.0,0.0,0.0,0.0,0.0,0.0,0.0,0.0,0.0,0.0,0.0,0.0,0.0,0.0,0.0,0.0,0.0,0.0,0.0,0.0,0.0,0.0,0.0,0.0,0.0,0.0,0.0,0.0,0.0,0.0,0.0,0.0,0.0,0.0,-1.7218,-1.7475,-1.7582,-1.7582,-1.7582,-1.7582,-1.7582,-1.7582,-1.7508,-1.7335,0.0,0.0,0.0,0.0,0.0,0.0,0.0,0.0,0.0,0.0,0.0,0.0,0.0,0.0,0.0,0.0,0.0,0.0,0.0,0.0,0.0,0.0,0.0,0.0,0.0,0.0,0.0,0.0,0.0,0.0,0.0,0.0,0.0,0.0,0.0,0.0,0.0,0.0,0.0,0.0,0.0,0.0,0.0,0.0,0.0,0.0,0.0,0.0,0.0,0.0,0.0,0.0,0.0,0.0,0.0,0.0,0.0,0.0,0.0,0.0,0.0,0.0,0.0,0.0,0.0,0.0,0.0,0.0,0.0,0.0,0.0,0.0,0.0,0.0,0.0,0.0,0.0,0.0,0.0,0.0,0.0,0.0,0.0,0.0,0.0,0.0,0.0,0.0,0.0,0.0,0.0,0.0,0.0,0.0,0.0,0.0,0.0,0.0,0.0,0.0,0.0,0.0,-1.7582,-1.7582,-1.7582,-1.7582,-1.7582,-1.7582,-1.7582,-1.7582,-1.7582,-1.7582,0.0,0.0,0.0,0.0,0.0,0.0,0.0,0.0,0.0,0.0,0.0,0.0,0.0,0.0,0.0,0.0,0.0,0.0,0.0,0.0,0.0,0.0,0.0,0.0,0.0,0.0,0.0,0.0,0.0,0.0,0.0,0.0,0.0,0.0,0.0,0.0,0.0,0.0,0.0,0.0,0.0,0.0,0.0,0.0,0.0,0.0,0.0,0.0,0.0,0.0,0.0,0.0,0.0,0.0,0.0,0.0,0.0,0.0,0.0,0.0,-2.2996,0.0,0.0,0.0,0.0,0.0,0.0,0.0,0.0,0.0,0.0,0.0,0.0,0.0,0.0,0.0,0.0,0.0,0.0,0.0,0.0,0.0,0.0,0.0,0.0,0.0,0.0,0.0,0.0,0.0,0.0,0.0,0.0,0.0,0.0,0.0,0.0,0.0,0.0,0.0,0.0,0.0,-1.7582,-1.7582,-1.7582,-1.7582,-1.7582,-1.7582,-1.7582,-1.7582,-1.7582,-1.7582,-1.7582,0.0,0.0,0.0,0.0,0.0,0.0,0.0,0.0,0.0,0.0,0.0,0.0,0.0,0.0,0.0,0.0,0.0,0.0,0.0,0.0,0.0,0.0,0.0,0.0,0.0,0.0,0.0,0.0,0.0,0.0,0.0,0.0,0.0,0.0,0.0,0.0,0.0,0.0,0.0,0.0,0.0,0.0,0.0,0.0,0.0,0.0,0.0,0.0,0.0,0.0,0.0,0.0,0.0,0.0,0.0,0.0,0.0,0.0,0.0,0.0,-2.4199,0.0,0.0,0.0,0.0,0.0,0.0,0.0,0.0,0.0,0.0,0.0,0.0,0.0,0.0,0.0,0.0,0.0,0.0,0.0,0.0,0.0,0.0,0.0,0.0,0.0,0.0,0.0,0.0,0.0,0.0,0.0,0.0,0.0,0.0,0.0,0.0,0.0,0.0,0.0,0.0,-1.7582,-1.7582,-1.7582,-1.7582,-1.7582,-1.7582,-1.7582,-1.7582,-1.7582,-1.7582,-1.7722,0.0,0.0,0.0,0.0,0.0,0.0,0.0,0.0,0.0,0.0,0.0,0.0,0.0,0.0,0.0,0.0,0.0,0.0,0.0,0.0,0.0,0.0,0.0,0.0,0.0,0.0,0.0,0.0,0.0,0.0,0.0,0.0,0.0,0.0,0.0,0.0,0.0,0.0,0.0,0.0,0.0,0.0,0.0,0.0,0.0,0.0,0.0,0.0,0.0,0.0,0.0,0.0,0.0,-2.673,-2.7441,-2.7461,-2.7881,-2.7881,-2.75,-2.6426,-2.5957,-2.5986,-2.6348,0.0,0.0,0.0,0.0,0.0,0.0,0.0,0.0,0.0,0.0,0.0,0.0,0.0,0.0,0.0,0.0,0.0,0.0,0.0,0.0,0.0,0.0,0.0,0.0,-1.849,-1.8013,0.0,0.0,0.0,0.0,0.0,0.0,0.0,0.0,0.0,0.0,0.0,0.0,-1.7742,-1.7742,-1.7742,-1.7742,-1.7742,-1.7742,-1.7742,-1.7742,-1.7742,-1.7742,-1.7983,-1.8123,0.0,0.0,0.0,0.0,0.0,0.0,0.0,0.0,0.0,0.0,0.0,0.0,0.0,0.0,0.0,0.0,0.0,0.0,0.0,0.0,0.0,0.0,0.0,0.0,0.0,0.0,0.0,0.0,0.0,0.0,0.0,0.0,-1.3588,-1.4984,0.0,0.0,0.0,0.0,0.0,0.0,0.0,0.0,0.0,0.0,0.0,0.0,0.0,-2.4564,-2.5834,-2.5996,-2.6097,-2.6155,-2.6423,-2.6553,-2.6572,-2.6992,-2.7158,-2.709,-2.6924,0.0,-2.6855,-2.6904,0.0,0.0,0.0,0.0,0.0,0.0,0.0,0.0,0.0,0.0,0.0,0.0,0.0,0.0,0.0,0.0,0.0,0.0,0.0,0.0,0.0,0.0,-1.849,-1.849,-1.849,-1.8464,0.0,-1.8143,-1.8143,-1.837,-1.837,0.0,0.0,0.0,0.0,0.0,0.0,0.0,-1.837,-1.837,-1.837,-1.837,-1.837,-1.837,-1.837,-1.837,-1.837,-1.837,-1.841,-1.843,-1.843,-1.847,0.0,0.0,0.0,0.0,0.0,0.0,0.0,0.0,0.0,0.0,0.0,0.0,0.0,0.0,0.0,0.0,0.0,0.0,0.0,0.0,0.0,0.0,0.0,0.0,0.0,0.0,0.0,0.0,0.0,-1.5204,-1.6268,-1.7627,-1.7732,-1.8359,0.0,0.0,0.0,0.0,0.0,0.0,0.0,0.0,0.0,-2.4815,-2.4984,-2.5395,-2.6016,-2.6025,-2.6025,-2.6025,-2.6514,-2.6738,-2.6768,-2.7432,-2.7734,-2.7734,-2.7734,-2.7734,-2.7715,-2.748,-2.7383,-2.7402,0.0,0.0,0.0,0.0,-2.6503,-2.6153,-2.3877,-2.2527,0.0,-2.0186,0.0,0.0,0.0,0.0,0.0,0.0,0.0,0.0,0.0,0.0,-1.8985,-1.8985,-1.8985,-1.8985,-1.8985,-1.8985,-1.8885,0.0,-1.849,-1.849,-1.849,0.0,0.0,0.0,0.0,-1.849,-1.849,-1.849,-1.849,-1.849,-1.849,-1.849,-1.849,-1.849,-1.849,-1.849,-1.8644,-1.8731,-1.8731,-1.8898,-1.8985,0.0,0.0,0.0,0.0,0.0,0.0,0.0,0.0,0.0,0.0,0.0,0.0,0.0,0.0,0.0,0.0,0.0,0.0,0.0,0.0,0.0,0.0,0.0,0.0,0.0,0.0,0.0,0.0,-1.6929,-1.8094,-1.942,-1.9627,-2.0135,0.0,0.0,0.0,0.0,0.0,0.0,-2.4196,-2.5128,-2.5742,-2.5742,-2.5742,-2.5742,-2.5742,-2.5742,-2.5742,-2.5752,-2.6494,-2.6914,-2.7041,-2.7793,-2.8193,-2.8291,-2.8291,-2.8291,-2.8271,-2.7959,-2.7822,-2.7861,-2.8174,-2.8291,-2.8252,-2.7939,-2.7602,-2.7007,-2.5279,-2.3657,-2.2156,-2.0861,0.0,-1.8758,-1.8971,0.0,0.0,0.0,0.0,-1.9366,-1.9366,-1.9366,-1.9366,-1.9366,-1.9366,-1.9366,-1.9366,-1.9366,-1.9239,0.0,-1.8711,-1.8711,-1.8711,0.0,0.0,0.0,0.0,-1.8711,-1.8711,-1.8711,-1.8711,-1.8711,-1.8711,-1.8711,-1.8711,-1.8711,-1.8711,-1.8711,-1.8918,-1.9038,-1.9038,-1.9252,-1.9366,-1.9366,0.0,0.0,0.0,0.0,0.0,0.0,0.0,0.0,0.0,0.0,0.0,0.0,0.0,0.0,0.0,0.0,0.0,0.0,0.0,0.0,0.0,0.0,0.0,0.0,0.0,0.0,0.0,0.0,0.0,-1.942,-1.9627,0.0,0.0,0.0,0.0,-2.3592,-2.4815,-2.5635,-2.5635,-2.5635,-2.5742,-2.5742,-2.5742,-2.5742,-2.5742,-2.5742,-2.5742,-2.5742,-2.6201,-2.6631,-2.7031,-2.749,-2.792,-2.8291,-2.8291,-2.8291,-2.8291,-2.8271,-2.8262,-2.8262,-2.8281,-2.8291,-2.8291,-2.8271,-2.7365,-2.6009,-2.4437,-2.2871,-2.1427,-1.9991,-1.9435,-1.9325,-1.9339,-1.9359,0.0,0.0,-1.9366,-1.9366,-1.9366,-1.9366,-1.9366,-1.9366,-1.9366,-1.9366,-1.9366,-1.9366,-1.9359,0.0,-1.9325,-1.9325,-1.9325,0.0,-1.9325,-1.9325,-1.9325,-1.9325,-1.9325,-1.9325,-1.9325,-1.9325,-1.9325,-1.9325,-1.9325,-1.9325,-1.9325,-1.9325,-1.9339,-1.9345,-1.9345,-1.9359,-1.9366,-1.9366,-1.9366,0.0,0.0,0.0,0.0,0.0,0.0,0.0,0.0,0.0,0.0,0.0,0.0,0.0,0.0,0.0,0.0,0.0,0.0,0.0,0.0,0.0,0.0,0.0,0.0,0.0,0.0,0.0,0.0,-2.0633,-2.0939,0.0,-2.4097,-2.4716,-2.502,-2.502,-2.543,-2.5742,-2.5742,-2.5742,-2.5742,-2.5742,-2.5742,-2.5742,-2.5742,-2.5742,-2.5742,-2.5742,-2.6182,-2.6465,-2.6631,-2.7344,-2.7744,-2.791,-2.8174,-2.8291,-2.8291,-2.8291,-2.8291,-2.8291,-2.8291,-2.8291,-2.8291,-2.8291,-2.7384,-2.6045,-2.5489,-2.3702,-2.1365,-1.9924,-1.9366,-1.9366,-1.9366,-1.9366,-1.9366,-1.9366,-1.9366,-1.9366,-1.9366,-1.9366,-1.9366,-1.9366,-1.9366,-1.9366,-1.9366,-1.9366,-1.9366,-1.9366,-1.9366,-1.9366,-1.9366,-1.9366,-1.9366,-1.9366,-1.9366,-1.9366,-1.9366,-1.9366,-1.9366,-1.9366,-1.9366,-1.9366,-1.9366,-1.9366,-1.9366,-1.9366,-1.9366,-1.9366,-1.9366,-1.9366,-1.9366,-1.9366,-1.9366,-1.9127,0.0,0.0,0.0,0.0,0.0,0.0,0.0,0.0,0.0,0.0,0.0,0.0,0.0,0.0,0.0,0.0,0.0,0.0,0.0,0.0,0.0,0.0,0.0,0.0,0.0,0.0,-1.8603,-2.1347,-2.1752,-2.2767,-2.543,-2.5742,-2.5742,-2.5742,-2.5742,-2.5742,-2.5742,-2.5742,-2.5742,-2.5742,-2.5742,-2.5742,-2.5742,-2.5742,-2.5742,-2.5742,-2.6035,-2.625,-2.6406,-2.6973,-2.7314,-2.7471,-2.79,-2.8086,-2.8096,-2.8232,-2.8291,-2.8291,-2.8291,-2.8291,-2.8291,-2.7726,-2.6608,-2.5151,-2.4156,-2.2484,-2.0702,-1.97,-1.9366,-1.9366,-1.9366,-1.9366,-1.9366,-1.9366,-1.9366,-1.9366,-1.9366,-1.9366,-1.9366,-1.9366,-1.9366,-1.9366,-1.9366,-1.9366,-1.9366,-1.9366,-1.9366,-1.9366,-1.9366,-1.9366,-1.9366,-1.9366,-1.9366,-1.9366,-1.9366,-1.9366,-1.9366,-1.9366,-1.9366,-1.9366,-1.9366,-1.9366,-1.9366,-1.9366,-1.9366,-1.9366,-1.9366,-1.9366,-1.9366,-1.9366,-1.8881,-1.8046,-1.6973,0.0,0.0,0.0,0.0,0.0,0.0,0.0,0.0,0.0,0.0,0.0,0.0,0.0,0.0,0.0,0.0,0.0,0.0,0.0,0.0,0.0,0.0,0.0,-1.7542,-1.7582,-1.8603,-2.1347,-2.1752,-2.2767,-2.543,-2.5742,-2.5742,-2.5742,-2.5742,-2.5742,-2.5742,-2.5742,-2.5742,-2.5742,-2.5742,-2.5742,-2.5742,-2.5742,-2.5742,-2.5742,-2.5742,-2.5957,-2.6367,-2.6387,-2.6611,-2.7021,-2.7461,-2.7656,-2.7695,-2.8105,-2.8281,-2.8291,-2.8291,-2.8291,-2.8067,-2.6608,-2.5041,-2.3271,-2.0371,-1.9366,-1.9366,-1.9366,-1.9366,-1.9366,-1.9366,-1.9366,-1.9366,-1.9366,-1.9366,-1.9366,-1.9366,-1.9366,-1.9366,-1.9366,-1.9366,-1.9366,-1.9366,-1.9366,-1.9366,-1.9366,-1.9366,-1.9366,-1.9366,-1.9366,-1.9366,-1.9366,-1.9366,0.0,-1.9366,-1.9366,-1.9366,-1.9366,-1.9366,-1.9366,-1.9366,-1.9366,-1.9366,-1.9366,-1.9366,-1.9366,-1.9366,-1.9366,-1.9249,-1.9249,-1.7683,-1.5419,-1.2213,0.0,0.0,0.0,0.0,0.0,0.0,0.0,0.0,0.0,0.0,0.0,0.0,0.0,0.0,0.0,0.0,0.0,0.0,0.0,0.0,0.0,0.0,-1.7001,-1.7508,-1.7582,-1.8603,-2.1347,-2.1752,-2.2767,-2.543,-2.5742,-2.5742,-2.5742,-2.5742,-2.5742,-2.5742,-2.5742,-2.5742,-2.5742,-2.5742,-2.5742,-2.5742,-2.5742,-2.5742,-2.5742,-2.5742,-2.5801,-2.5928,-2.624,-2.6455,-2.6582,-2.7012,-2.7373,-2.7676,-2.7793,-2.7458,-2.6825,-2.7843,-2.7618,-2.6608,-2.6264,-2.448,-2.1926,-2.004,-1.9366,-1.9366,-1.9366,-1.9366,-1.9366,-1.9366,-1.9366,-1.9366,-1.9366,-1.9366,-1.9366,-1.9366,-1.9366,-1.9366,-1.9366,-1.9366,-1.9366,-1.9366,-1.9366,-1.9366,-1.9366,-1.9366,-1.9366,-1.9366,-1.9366,-1.9366,-1.9366,-1.9366,0.0,-1.9366,-1.9366,-1.9366,-1.9366,-1.9366,-1.9366,-1.9366,-1.9366,-1.9366,-1.9366,-1.9366,-1.8887,-1.7683,-1.7683,-1.7097,-1.5913,-1.5435,-1.4242,0.0,0.0,0.0,0.0,0.0,0.0,0.0,0.0,0.0,0.0,0.0,0.0,0.0,0.0,0.0,0.0,0.0,0.0,0.0,0.0,0.0,0.0,-1.6526,-1.6687,-1.7154,-1.7321,-1.8212,-2.0428,-2.1257,-2.2567,-2.4609,-2.5333,-2.5742,-2.5742,-2.5742,-2.5742,-2.5742,-2.5742,-2.5742,-2.5742,-2.5742,-2.5742,-2.5742,-2.5742,-2.5742,-2.5742,-2.5742,-2.5742,-2.5742,-2.5996,-2.6113,0.0,-2.6562,-2.6894,-2.7139,-2.6768,-2.6318,0.0,0.0,0.0,0.0,0.0,-2.2702,-2.0587,-1.97,-1.9366,-1.9366,-1.9366,-1.9366,-1.9366,-1.9366,-1.9366,-1.9366,-1.9366,-1.9366,-1.9366,-1.9366,-1.9366,-1.9366,-1.9366,-1.9366,-1.9366,-1.9366,-1.9366,-1.9366,-1.9366,-1.9366,0.0,-1.9366,-1.9366,-1.9366,-1.9366,-1.9366,-1.9366,-1.9366,-1.9366,-1.9366,-1.9366,-1.9366,-1.9366,-1.9366,-1.9366,0.0,0.0,0.0,-1.7689,-1.602,-1.602,0.0,0.0,0.0,-1.2813,-1.1137,0.0,0.0,0.0,-0.9822,-0.9822,0.0,0.0,0.0,0.0,0.0,0.0,0.0,0.0,0.0,0.0,0.0,0.0,0.0,0.0,0.0,0.0,-1.6122,-1.6313,-1.6573,-1.686,-1.7564,-1.8989,-2.0474,-2.1996,-2.352,-2.4786,-2.5538,-2.5645,-2.5742,-2.5742,-2.5742,0.0,0.0,0.0,0.0,-2.5742,-2.5742,-2.5742,-2.5742,-2.5742,-2.5742,-2.5742,-2.5742,-2.5742,-2.5742,-2.5762,-2.5935,-2.6129,-2.6097,-2.5087,-2.4807,-2.488,-2.5422,-2.471,-2.3375,-2.1919,-2.0479,-1.9366,-1.9366,0.0,0.0,-1.9366,-1.9366,-1.9366,-1.9366,-1.9366,-1.9366,-1.9366,-1.9366,-1.9366,-1.9366,-1.9366,-1.9366,-1.9366,-1.9366,-1.9366,-1.9366,-1.9366,-1.9366,-1.9366,-1.9366,-1.9366,-1.9366,-1.9366,-1.9366,-1.9366,-1.9366,-1.9366,-1.9366,-1.9366,-1.9366,-1.9366,0.0,0.0,-1.9366,-1.9366,-1.9366,-1.9127,-1.7443,-1.5779,-1.4366,-1.4123,-1.3407,-1.1976,-1.1976,-1.1257,-0.9822,-0.9822,-0.9822,-0.9822,-0.9822,-0.9822,0.0,0.0,0.0,0.0,0.0,0.0,0.0,0.0,0.0,0.0,0.0,0.0,0.0,0.0,0.0,-1.4334,-1.523,-1.5932,-1.5992,-1.6253,-1.7007,-1.8617,-1.933,-2.0632,-2.3107,-2.3797,-2.451,-2.5635,-2.5742,-2.5742,-2.5742,-2.5742,-2.5742,-2.5742,-2.5742,-2.5742,-2.5742,-2.5742,-2.5742,-2.5742,0.0,0.0,-2.5742,-2.5742,-2.5742,-2.5645,-2.4693,-2.44,-2.4592,-2.3324,-2.2307,-2.162,-2.2235,-2.2251,-2.1805,-2.0371,-1.9591,-1.9366,-1.9366,-1.9366,-1.9366,-1.9366,-1.9366,-1.9366,-1.9366,-1.9366,0.0,-1.9366,-1.9366,-1.9366,-1.9366,-1.9366,-1.9366,-1.9366,-1.9366,-1.9366,-1.9366,-1.9366,-1.9366,-1.9366,-1.9366,-1.9366,-1.9366,-1.9366,-1.9366,-1.9366,-1.9366,-1.9366,-1.9366,-1.9366,-1.9366,-1.9366,-1.9366,-1.9366,-1.9366,-1.9366,-1.8887,-1.7566,-1.4713,-1.3048,-1.2693,-1.1378,-1.0539,-1.0301,-1.0301,-1.0058,-0.9822,-0.9822,-0.9822,-0.9822,-0.9822,-0.9822,0.0,0.0,0.0,0.0,0.0,0.0,0.0,0.0,0.0,0.0,0.0,-1.0194,0.0,0.0,-1.3102,-1.3776,-1.4459,-1.5045,-1.573,-1.5959,-1.6443,-1.7414,-1.8405,-1.9483,-2.0842,-2.1693,-2.2877,-2.4388,-2.4513,-2.4802,-2.5625,-2.5742,-2.5742,-2.5742,-2.5742,-2.5742,-2.5742,-2.5742,-2.5742,-2.5742,-2.5742,-2.5742,-2.5635,-2.502,-2.4716,-2.4609,-2.3276,-2.2771,-2.2961,-2.1715,-2.0431,-1.9361,-1.9828,-2.0111,-2.0153,-1.9652,-1.9366,-1.9366,-1.9366,-1.9366,-1.9366,-1.9366,-1.9366,-1.9366,-1.9366,-1.9366,-1.9366,-1.9366,-1.9366,-1.9366,-1.9366,-1.9366,-1.9366,-1.9366,-1.9366,-1.9366,-1.9366,-1.9366,-1.9366,-1.9366,-1.9366,-1.9366,-1.9366,-1.9366,-1.9366,-1.9366,-1.9366,-1.9366,-1.9366,-1.9366,-1.9366,-1.9366,-1.9366,-1.9366,-1.9366,-1.8642,-1.7208,-1.4708,-1.3048,-1.1856,-1.102,-1.0179,-0.9822,-0.9822,-0.9822,-0.9822,-0.9822,-0.9822,-0.9822,-0.9822,-0.99,-0.9893,0.0,0.0,0.0,0.0,0.0,0.0,0.0,0.0,-0.8038,-0.8038,-0.8825,-0.9608,-0.9608,-1.0681,-1.1848,-1.3006,-1.3584,-1.4268,-1.5248,-1.5635,-1.5919,-1.6159,-1.74,-1.8363,-1.8559,-1.9668,-2.108,-2.2672,-2.2786,-2.3363,-2.4771,-2.4799,-2.4837,-2.4913,-2.5226,-2.5226,-2.4922,-2.5226,-2.5226,-2.4913,-2.4913,-2.4913,-2.4922,-2.3791,-2.3276,-2.3276,-2.1853,-2.1143,-2.0861,-2.0016,-1.8993,-1.7989,-1.8283,-1.8544,-1.8798,-1.9152,-1.9279,-1.9292,-1.9352,-1.9366,-1.9366,-1.9366,-1.9366,-1.9366,-1.9366,-1.9366,-1.9366,-1.9366,-1.9366,-1.9366,-1.9366,-1.9366,-1.9366,-1.9366,-1.9366,-1.9366,-1.9366,-1.9366,-1.9366,-1.9366,-1.9366,-1.9366,-1.9366,-1.9366,-1.9366,-1.9366,-1.9366,-1.9366,-1.9366,-1.9366,-1.9366,-1.9366,-1.9127,-1.8765,-1.8525,-1.6973,-1.4945,-1.2333,-1.1856,-1.1137,-0.9822,-0.9822,-0.9822,-0.9822,-0.9822,-0.9822,-0.9822,-0.9822,-0.9836,-0.9869,-0.9992,-0.9981,-0.4423,-0.442,-0.442,-0.442,-0.5122,-0.6132,0.0,0.0,-0.8038,-0.8038,-0.8137,-0.8233,-0.8233,-0.9312,-1.0293,-1.0386,-1.242,-1.3974,-1.407,-1.5051,-1.5838,-1.5872,-1.6236,-1.7085,-1.8222,-1.8671,-1.9529,-2.1013,-2.1109,-2.1278,-2.1641,-2.1658,-2.181,-2.2148,-2.3276,-2.3384,-2.2156,-2.3285,-2.3285,-2.2156,-2.2156,-2.2156,-2.2156,-2.1954,-2.1954,-2.1853,-2.0436,-1.9117,-1.8094,-1.7925,-1.784,-1.7662,-1.7956,-1.8103,-1.821,-1.8764,-1.8971,-1.9011,-1.9279,-1.9366,-1.9366,-1.9366,-1.9366,-1.9366,-1.9366,-1.9366,-1.9366,-1.9366,-1.9366,-1.9366,-1.9366,-1.9366,-1.9366,-1.9366,-1.9366,-1.9366,-1.9366,-1.9366,-1.9366,-1.9366,-1.9366,-1.9366,-1.9366,-1.9366,-1.9366,-1.9366,-1.9366,-1.9366,-1.9366,-1.9366,-1.9366,-1.9366,-1.8163,-1.6733,-1.5316,-1.3646,-1.2573,-1.2213,-1.0899,-0.994,-0.9822,-0.9822,-0.9822,-0.9822,-0.9822,-0.9822,-0.9822,-0.9822,-0.989,-1.0025,-1.0039,-1.0039,-0.1712,-0.1711,-0.1711,0.0,-0.2011,-0.3314,-0.7163,-0.7969,-0.7955,-0.8041,-0.8038,-0.8038,-0.8038,-0.8432,-0.9118,0.0,-1.0872,-1.2129,-1.368,-1.4364,-1.4949,-1.573,-1.5939,-1.6197,-1.6763,-1.6971,-1.7683,-1.9208,-1.9311,-1.9846,-2.0865,-2.0987,-2.1056,-2.142,-2.1934,-2.2036,-2.1744,-2.2257,-2.2257,-2.1752,-2.1752,-2.1752,-2.1643,-2.0837,-2.0025,-1.9317,-1.8708,-1.8094,-1.7582,-1.7582,-1.7582,-1.7595,-1.7716,-1.7769,-1.7849,-1.845,-1.8778,-1.8945,-1.9065,-1.9225,-1.9366,-1.9366,-1.9366,-1.9366,-1.9366,-1.9366,-1.9366,-1.9366,-1.9366,-1.9366,-1.9366,-1.9366,-1.9366,-1.9366,-1.9366,-1.9366,-1.9366,-1.9366,-1.9366,-1.9366,-1.9366,-1.9366,-1.9366,-1.8642,-1.8046,-1.8046,-1.8765,-1.9366,-1.9366,-1.8525,-1.7689,-1.6744,-1.6026,-1.4955,-1.3287,-1.2573,-1.1856,-1.0899,-1.0179,-0.9822,-0.9822,-0.9822,-0.9822,-0.9822,-0.9822,-0.9866,-0.9954,-0.9954,-1.0032,-1.0185,-1.027,-1.0307,0.0202,0.0,0.0,-0.0,-0.0,-0.1005,-0.4935,-0.6959,-0.7972,-0.7955,-0.7952,-0.8048,-0.8048,-0.8041,-0.8333,-0.9316,-0.9805,-1.0676,-1.2522,-1.3102,-1.3878,-1.5146,-1.5242,-1.5439,-1.5737,-1.5832,-1.6286,-1.7545,-1.7655,-1.817,-1.9445,-1.9557,-1.9715,-1.9964,-2.0367,-2.0536,-2.0491,-2.0796,-2.0844,-2.0531,-2.0531,-2.0531,-2.0531,-1.9524,-1.8506,-1.7582,-1.7582,-1.7582,-1.7582,-1.7582,-1.7582,-1.7582,-1.7582,-1.7582,-1.7635,-1.8076,-1.8424,-1.8704,-1.8871,-1.9065,-1.9259,-1.9339,-1.9366,-1.9366,-1.9366,-1.9366,-1.9366,-1.9366,-1.9366,-1.9366,-1.9366,-1.9366,-1.9366,-1.9366,-1.9366,-1.9249,-1.8881,-1.8765,-1.8642,-1.8169,-1.8052,-1.8052,-1.8052,-1.7097,-1.6374,-1.6374,-1.7337,-1.8052,-1.8052,-1.7091,-1.5666,-1.4123,-1.3889,-1.3292,-1.1615,-1.1499,-1.102,-0.9819,-0.9822,-0.9822,-0.9822,-0.9822,-0.9822,-0.9822,-0.9863,-0.9937,-1.0049,-1.0093,-1.0192,-1.0341,-1.0443,-1.0514,0.0,0.0,-0.0,-0.0,-0.0,-0.0,-0.0201,-0.4227,-0.7992,-0.7989,-0.7979,-0.7972,-0.7972,-0.7955,-0.8038,-0.8038,-0.9118,-0.9998,-1.0096,-1.117,-1.2431,-1.3776,-1.3968,-1.4459,0.0,-1.5832,-1.5832,-1.5838,-1.5838,-1.6068,-1.6461,-1.6481,-1.6511,-1.6807,-1.8079,-1.8331,-1.736,-1.8665,-1.8716,-1.7681,-1.7681,-1.7681,-1.7681,-1.7687,-1.7687,-1.7582,-1.7582,-1.7582,-1.7582,-1.7582,-1.7582,-1.7582,-1.7582,-1.7582,-1.7589,-1.7602,-1.7809,-1.8156,-1.8724,-1.8931,-1.8985,-1.9272,-1.9366,-1.9366,-1.9366,-1.9366,-1.9366,-1.9366,-1.9366,-1.9366,-1.9366,-1.9366,-1.9366,-1.9366,-1.9366,-1.9004,-1.7443,-1.7085,-1.6615,-1.5074,-1.4723,-1.4723,-1.4723,-1.4723,-1.4723,-1.4723,-1.4723,-1.4723,-1.4723,-1.4723,-1.4004,-1.2453,-1.2213,-1.1615,-1.0061,-0.9819,-0.9822,-0.9822,-0.9822,-0.9822,-0.9822,-0.9822,-0.9822,-0.9822,-0.9968,-1.0042,-1.0049,-1.0202,-1.0348,-1.0483,-1.049,-1.0571,0.5541,0.0,0.2611,0.2613,0.1307,-0.0,-0.0,-0.1405,-0.3217,-0.5029,-0.5329,-0.5937,-0.7675,-0.7972,-0.7962,-0.7962,-0.8343,-0.9019,-0.9899,-1.0386,-1.1165,-1.2431,-1.2528,0.0,0.0,0.0,0.0,-1.5832,-1.5832,-1.5872,-1.5972,-1.5979,-1.6112,-1.6406,-1.6897,-1.7041,-1.6854,-1.7344,-1.7502,-1.7295,-1.7488,-1.7582,-1.7582,-1.7582,-1.7582,-1.7582,-1.7582,-1.7582,-1.7582,-1.7582,-1.7582,-1.7582,-1.7582,-1.7582,-1.7582,-1.7582,-1.7649,-1.7796,-1.8203,-1.8597,-1.8938,-1.9038,-1.9205,-1.9366,-1.9366,-1.9366,-1.9366,-1.9366,-1.9366,-1.9366,-1.9366,-1.9366,-1.9366,-1.9366,-1.8525,-1.7683,-1.7085,-1.6138,-1.5192,-1.4723,-1.4604,-1.4604,-1.4604,-1.3765,-1.2693,-1.1619,-1.3287,-1.4247,-1.3168,-1.3053,-1.2333,-1.0781,-1.066,-1.0418,-0.9822,-0.9822,-0.9822,-0.9822,-0.9822,-0.9822,-0.9822,-0.992,-0.9971,-0.9971,-1.0124,-1.0249,-1.0344,-1.0395,-1.0497,-1.0643,-1.0643,-1.067,0.8082,0.6751,0.5429,0.5432,0.4123,0.2311,0.0401,-0.0,-0.0503,-0.2211,-0.2612,-0.3114,-0.4832,-0.6242,-0.7253,-0.7872,-0.7955,-0.8333,-0.9118,-0.9316,-0.9801,-1.1072,-1.1268,-1.1361,0.0,0.0,0.0,-1.5051,-1.5534,-1.5832,-1.5832,-1.5832,-1.5919,-1.6106,-1.6112,-1.6253,-1.6547,-1.6553,-1.67,-1.6994,-1.7288,-1.7428,-1.7428,-1.7535,-1.7582,-1.7582,-1.7582,-1.7582,-1.7582,-1.7582,-1.7582,-1.7582,-1.7582,-1.7582,-1.7582,-1.7582,-1.7582,-1.7622,-1.7943,-1.8297,-1.8644,-1.8851,-1.9052,-1.9225,-1.9332,-1.9366,-1.9366,-1.9366,-1.9366,-1.9366,-1.9366,-1.9366,-1.9366,-1.9366,-1.8163,-1.685,-1.6256,-1.4837,-1.3531,-1.3053,-1.2933,-1.2933,-1.2933,-1.1976,-1.102,-0.994,-1.1619,-1.2453,-1.1499,-1.1378,-1.0899,-0.994,-0.9822,-0.9822,-0.9822,-0.9822,-0.9822,-0.9822,-0.9822,-0.9846,-0.99,-0.9995,-1.0076,-1.0131,-1.028,-1.0399,-1.049,-1.0548,-1.0622,-1.0721,-1.0721,-1.0721,0.8361,0.7972,0.7975,0.7985,0.7989,0.6659,0.1609,0.0302,0.0201,-0.0,-0.0,-0.0,0.0,0.0,-0.5727,-0.7666,-0.7955,-0.8041,-0.8038,-0.8038,-0.8432,0.0,0.0,0.0,0.0,0.0,0.0,-1.3584,0.0,-1.5635,-1.573,-1.573,-1.573,-1.5832,-1.573,-1.5863,-1.6149,-1.6168,-1.6406,-1.6687,-1.6981,-1.7134,-1.7161,-1.7435,-1.7569,-1.7477,-1.7477,-1.7477,-1.7477,-1.7477,-1.7582,-1.7582,-1.7582,-1.7582,-1.7582,-1.7582,-1.7582,-1.7622,-1.7923,-1.8029,-1.8136,-1.8698,-1.8898,-1.8978,-1.9137,-1.9236,-1.9249,-1.9127,-1.9127,-1.9127,-1.9127,-1.9127,-1.9127,-1.9127,-1.7923,-1.6374,-1.4837,-1.3172,-1.1615,-1.0061,-0.9822,-0.9822,-0.9822,-0.9822,-0.9822,-0.9822,-0.9822,-0.9822,-0.9822,-0.9822,-0.9822,-0.9822,-0.9822,-0.9822,-0.9822,-0.9822,-0.9822,-0.9822,-0.9829,-0.9897,-1.0042,-1.0063,-1.0141,-1.029,-1.0429,-1.0504,-1.0504,-1.0649,-1.0721,-1.0721,-1.0721,-1.0721,0.834,0.8048,0.8048,0.7952,0.7965,0.7669,0.6242,0.4422,0.241,0.0402,-0.0,-0.0,0.0,0.0,0.0,-0.7269,-0.7972,0.0,-0.8041,-0.8038,0.0,-0.8432,0.0,-0.8627,-0.892,-0.9899,0.0,0.0,-1.2139,-1.3301,-1.4364,-1.4364,-1.4854,-1.5737,-1.4854,-1.4394,-1.4467,-1.4759,-1.5398,-1.6386,-1.668,-1.6934,-1.7154,-1.7228,-1.684,-1.5956,-1.5956,-1.5956,-1.5956,-1.5956,-1.6605,-1.7582,-1.7582,-1.7582,-1.7582,-1.7582,-1.7582,-1.7595,-1.7669,-1.7856,-1.807,-1.8223,-1.8564,-1.8698,-1.76,-1.7408,-1.7331,-1.6144,-1.579,-1.579,-1.579,-1.579,-1.579,-1.579,-1.4599,-1.3283,-1.2928,-1.1495,-1.0301,-0.9819,-0.9822,-0.9822,-0.9822,-0.9822,-0.9822,-0.9822,-0.9822,-0.9822,-0.9822,-0.9822,-0.9822,-0.9822,-0.9822,-0.9822,-0.9822,-0.9822,-0.9822,-0.9822,-0.9927,-1.0008,-1.0046,-1.0263,-1.0399,-1.0436,-1.0585,-1.0663,-1.0663,-1.07,-1.0721,-1.0721,-1.0721,-1.0721,0.8531,0.8038,0.8038,0.8038,0.8048,0.7962,0.7972,0.6848,0.5329,0.3822,0.1609,0.0,-0.0,-0.0,0.0,0.0,0.0,0.0,-0.7955,-0.7955,-0.7952,0.0,-0.8038,0.0,-0.8038,-0.8726,-0.9118,0.0,-1.0877,-1.2237,-1.3011,-1.3006,-1.3397,-1.4082,-1.3397,-1.3006,-1.3006,-1.3138,-1.3601,-1.4406,-1.4664,-1.4867,-1.5119,-1.5852,-1.5847,-1.5364,0.0,-1.5311,-1.531,-1.477,-1.499,-1.5743,-1.5743,-1.6068,-1.6605,-1.6605,-1.6605,-1.6605,-1.6605,-1.6279,-1.6217,-1.7557,-1.8357,-1.8407,-1.6894,-1.6756,-1.6609,-1.5074,-1.4604,-1.4604,-1.4604,-1.4604,-1.4604,-1.4604,-1.3412,-1.2213,-1.2213,-1.0899,-0.9822,-0.9822,-0.9822,-0.9822,-0.9822,-0.9822,-0.9822,-0.9822,-0.9822,-0.9822,-0.9822,-0.9822,-0.9822,-0.9822,-0.9822,-0.9822,-0.9822,-0.9822,-0.9822,-0.9822,-0.9964,-1.008,-1.0148,-1.0371,-1.0524,-1.0592,-1.0677,-1.0721,-1.0721,-1.0721,-1.0721,-1.0721,-1.0721,-1.0721,0.8726,0.8038,0.8038,0.8038,0.8038,0.8045,0.7965,0.7969,0.7972,0.7985,0.0,0.0804,0.0101,-0.0,-0.0,-0.0,0.0,-0.7065,-0.7463,-0.7769,-0.7969,-0.8045,-0.8045,-0.8041,-0.8038,-0.8038,-0.8038,-0.8038,-1.0092,-1.1458,-1.1653,-1.1658,-1.1658,-1.1658,-1.1658,-1.1658,-1.1658,-1.1658,-1.175,-1.1853,-1.2142,-1.2353,-1.2489,-1.3886,-1.4555,-1.463,-1.4514,0.0,-1.477,-1.348,-1.3156,-1.3264,-1.3264,-1.4019,-1.5097,-1.5097,-1.5097,-1.5097,-1.5097,-1.4341,-1.3732,-1.647,-1.7624,-1.7569,-1.6223,-1.6119,-1.5976,-1.4351,-1.4004,-1.4004,-1.4004,-1.4004,-1.4004,-1.4004,-1.2933,-1.1856,-1.1856,-1.0778,-0.9822,-0.9822,-0.9822,-0.9822,-0.9822,-0.9822,-0.9822,-0.9822,-0.9822,-0.9822,-0.9822,-0.9822,-0.9822,-0.9822,-0.9822,-0.9822,-0.9822,-0.9822,-0.9829,-0.9849,-0.9995,-1.0148,-1.03,-1.0446,-1.0585,-1.0717,-1.0721,-1.0721,-1.0721,-1.0721,-1.0721,-1.0721,-1.0721,-1.0721,0.8726,0.8038,0.8038,0.8038,0.8038,0.8041,0.8045,0.8045,0.0,0.0,0.7266,0.5238,0.0804,-0.0,-0.0,-0.0,-0.0804,-0.2211,-0.442,-0.6651,-0.7982,0.0,-0.7969,-0.7959,-0.8041,0.0,0.0,0.0,0.0,-0.9118,-1.0293,-1.0288,-1.0288,-1.0288,-1.0288,-1.0288,-1.0288,-1.0288,-1.0877,-1.1945,-1.1986,-1.2102,-1.2384,-1.272,-1.2347,-1.1668,-1.1668,0.0,-1.1864,-1.1538,-1.2186,-1.3264,-1.3264,-1.348,-1.3696,-1.3696,-1.3696,-1.3696,-1.3696,-1.348,-1.3378,-1.3959,-1.4352,-1.4251,-1.278,-1.2637,-1.2596,-1.1098,-1.066,-1.066,-1.066,-1.066,-1.066,-1.066,-1.0422,-1.0179,-1.0179,-0.994,-0.9822,-0.9822,-0.9822,-0.9822,-0.9822,-0.9822,-0.9822,-0.9822,-0.9822,-0.9822,-0.9822,-0.9822,-0.9822,-0.9822,-0.9822,-0.9822,-0.9822,-0.9822,-0.9876,-1.0002,-1.0154,-1.0304,-1.0449,-1.0602,-1.0694,-1.0721,-1.0721,-1.0721,-1.0721,-1.0721,-1.0721,-1.0721,-1.0721,-1.0721,0.8726,0.8038,0.8038,0.8038,0.8038,0.8038,0.8038,0.0,0.0,0.0,0.7972,0.6762,0.2813,0.0907,0.0,-0.0,-0.0,-0.0403,-0.1708,-0.3015,0.0,-0.6439,-0.7459,-0.7965,0.0,0.0,0.0,0.0,0.0,-0.8233,-0.892,-0.892,-0.892,-0.892,-0.892,-0.892,-0.892,-0.892,-0.9312,-0.9899,-0.9899,-0.9945,-1.0129,-1.0825,-1.0983,-1.0642,-1.0636,0.0,-1.0966,-1.0202,-1.0351,-1.0996,-1.0996,-1.1433,-1.2186,-1.2186,-1.2186,-1.2186,-1.2186,-1.1647,-1.0996,-1.0996,-1.2215,-1.3411,-1.1933,-1.1782,-1.1736,-1.0254,-0.9822,-0.9822,-0.9822,-0.9822,-0.9822,-0.9822,-0.9822,-0.9822,-0.9822,-0.9822,-0.9822,-0.9822,-0.9822,-0.9822,-0.9822,-0.9822,-0.9822,-0.9822,-0.9822,-0.9822,-0.9822,-0.9822,-0.9822,-0.9822,-0.9822,-0.9822,-0.9822,-0.9822,-0.9886,-1.0039,-1.0195,-1.0344,-1.0487,-1.0639,-1.0721,-1.0721,-1.0721,-1.0721,-1.0721,-1.0721,-1.0721,-1.0721,-1.0721,-1.0721,0.941,0.8432,0.8038,0.8333,0.8237,0.8038,0.8038,0.8038,0.0,0.8038,0.7965,0.7169,0.452,0.1812,-0.0,0.0,-0.0,-0.0,-0.0,-0.0,-0.1106,0.0,-0.6442,0.0,-0.8048,0.0,0.0,0.0,0.0,0.0,-0.8038,-0.8038,-0.8038,-0.8038,-0.8038,-0.8038,-0.8038,-0.8038,-0.8038,-0.8038,-0.8038,-0.8038,-0.8038,-0.9118,-0.9705,-0.9981,-0.9915,0.0,0.0,-0.9268,-0.891,-0.894,-0.894,-0.9588,-1.0676,-1.0676,-1.0676,-1.0676,-1.0676,-0.9919,-0.894,-0.894,-1.0659,-1.2469,-1.1359,-1.1181,-1.1224,-1.0127,-0.9822,-0.9822,-0.9822,-0.9822,-0.9822,-0.9822,-0.9822,-0.9822,-0.9822,-0.9822,-0.9822,-0.9822,-0.9822,-0.9822,-0.9822,-0.9822,-0.9822,-0.9822,-0.9822,-0.9822,-0.9822,-0.9822,-0.9822,-0.9822,-0.9822,-0.9822,-0.9822,-0.9849,-0.9934,-1.009,-1.0243,-1.0388,-1.0534,-1.0656,-1.0721,-1.0721,-1.0721,-1.0721,-1.0721,-1.0721,-1.0721,-1.0721,-1.0721,-1.0721,1.1658,0.9801,0.8333,0.9509,0.892,0.8038,0.8038,0.0,0.8038,0.8038,0.7965,0.7169,0.452,0.1812,-0.0,0.0,0.0,-0.0,-0.0,-0.0,-0.0101,-0.0503,0.0,0.0,-0.7972,0.0,0.0,0.0,0.0,0.0,-0.8038,-0.8038,-0.8038,-0.8038,-0.8038,-0.8038,-0.8038,-0.8038,-0.8038,-0.8038,-0.8038,-0.8038,-0.8038,-0.8137,-0.8324,-0.8473,-0.8487,0.0,0.0,-0.8723,-0.8815,-0.894,-0.894,-0.8937,-0.9154,-0.9154,-0.9154,-0.9154,-0.9154,-0.9047,-0.894,-0.894,-0.9054,-0.9339,-0.9523,-0.962,-0.9693,-0.9741,-0.9822,-0.9822,-0.9822,-0.9822,-0.9822,-0.9822,-0.9822,-0.9822,-0.9822,-0.9822,-0.9822,-0.9822,-0.9822,-0.9822,-0.9822,-0.9822,-0.9822,-0.9822,-0.9822,-0.9822,-0.9822,-0.9822,-0.9822,-0.9822,-0.9822,-0.9822,-0.9822,-0.9947,-1.0093,-1.0249,-1.0392,-1.0541,-1.0694,-1.0714,-1.0721,-1.0721,-1.0721,-1.0721,-1.0721,-1.0721,-1.0721,-1.0721,-1.0721,-1.0721,1.2139,1.1165,1.0288,1.0096,0.9608,0.9019,0.8137,0.0,0.8038,0.8038,0.7965,0.7169,0.452,0.1812,-0.0,0.0,0.0,0.0,-0.0,-0.0,-0.0605,-0.221,-0.4321,0.0,0.0,0.0,0.0,0.0,0.0,0.0,-0.8038,-0.8038,-0.8038,-0.8038,-0.8038,-0.8038,-0.8038,-0.8038,-0.8038,-0.8038,-0.8038,-0.8038,-0.8038,-0.8038,-0.8072,-0.8136,-0.8231,0.0,0.0,-0.8672,-0.8801,-0.894,-0.894,-0.894,-0.894,-0.894,-0.894,-0.894,-0.894,-0.894,-0.894,-0.894,-0.894,-0.8977,-0.9181,-0.9306,-0.9425,-0.9635,-0.9754,-0.9822,-0.9822,-0.9822,-0.9822,-0.9822,-0.9822,-0.9822,-0.9822,-0.9822,-0.9822,-0.9822,-0.9822,-0.9822,-0.9822,-0.9822,-0.9822,-0.9822,-0.9822,-0.9822,-0.9822,-0.9822,-0.9822,-0.9822,-0.9822,-0.9822,-0.9822,-0.9961,-1.0114,-1.027,-1.0415,-1.0561,-1.0714,-1.0721,-1.0721,-1.0721,-1.0721,-1.0721,-1.0721,-1.0721,-1.0721,-1.0721,-1.0721,-1.0721,1.2624,1.1945,1.1165,1.0681,0.9998,0.9118,0.0,0.0,0.8041,0.8048,0.7972,0.7375,0.5541,0.2318,-0.0,0.0,0.0,-0.0,-0.0,-0.1414,-0.3026,0.0,0.0,0.0,0.0,0.0,0.0,0.0,0.0,0.0,-0.8038,-0.8038,-0.8038,-0.8038,-0.8038,-0.8038,-0.8038,-0.8038,-0.8038,-0.8038,-0.8038,-0.8038,-0.8038,-0.8038,-0.8038,-0.8045,-0.8153,0.0,0.0,-0.8581,-0.8733,-0.8876,-0.892,-0.894,-0.894,-0.894,-0.894,-0.894,-0.894,-0.894,-0.894,-0.894,-0.894,-0.8957,-0.9059,-0.9225,-0.9412,-0.9564,-0.971,-0.9822,-0.9822,-0.9822,-0.9822,-0.9822,-0.9822,-0.9822,-0.9822,-0.9822,-0.9822,-0.9822,-0.9822,-0.9822,-0.9822,-0.9822,-0.9822,-0.9822,-0.9822,-0.9822,-0.9822,-0.9822,-0.9822,-0.9822,-0.9822,-0.9822,-0.9822,-1.0005,-1.0164,-1.0273,-1.0456,-1.0609,-1.0714,-1.0721,-1.0721,-1.0721,-1.0721,-1.0721,-1.0721,-1.0721,-1.0721,-1.0721,-1.0721,-1.0721,1.3488,1.2037,1.0293,1.156,0.9895,0.8041,0.0,0.0,0.8045,0.7969,0.7982,0.7995,0.7918,0.3636,-0.0,-0.0,-0.0,0.0,-0.0,-0.4549,0.0,0.0,0.0,0.0,0.0,0.0,0.0,0.0,0.0,0.0,-0.8038,-0.8038,-0.8038,-0.8038,-0.8038,-0.8038,-0.8038,-0.8038,-0.8038,-0.8038,-0.8038,-0.8038,-0.8038,-0.8038,-0.8038,0.0,0.0,0.0,0.0,-0.8425,-0.8574,-0.8726,-0.8879,-0.894,-0.894,-0.894,-0.894,-0.894,-0.894,-0.894,-0.894,-0.894,-0.894,-0.894,-0.894,-0.9147,-0.9412,-0.9564,-0.971,-0.9822,-0.9822,-0.9822,-0.9822,-0.9822,-0.9822,-0.9822,-0.9822,-0.9822,-0.9822,-0.9822,-0.9822,-0.9822,-0.9822,-0.9822,-0.9822,-0.9822,-0.9822,-0.9822,-0.9822,-0.9822,-0.9822,-0.9822,-0.9822,-0.9822,-0.9822,-1.0103,-1.028,-1.028,-1.0555,-1.0717,-1.0721,-1.0721,-1.0721,-1.0721,-1.0721,-1.0721,-1.0721,-1.0721,-1.0721,-1.0721,-1.0721,-1.0721,1.2431,1.1945,1.117,1.0681,0.9998,0.9118,0.8237,0.7952,0.7965,0.7972,0.7995,0.8016,0.8022,0.3636,-0.0,-0.0,-0.303,0.0,0.0,0.0,0.0,0.0,0.0,0.0,0.0,0.0,0.0,0.0,0.0,0.0,-0.8038,-0.8038,-0.8038,-0.8038,-0.8038,-0.8038,-0.8038,-0.8038,-0.8038,-0.8038,-0.8038,-0.8038,-0.8038,-0.8038,-0.8038,0.0,0.0,0.0,0.0,-0.8425,-0.857,-0.8726,-0.8879,-0.894,-0.894,-0.894,-0.894,-0.894,-0.894,-0.894,-0.894,-0.894,-0.894,-0.894,-0.894,-0.9147,-0.9435,-0.9683,-0.9785,-0.9822,-0.9822,-0.9822,-0.9822,-0.9822,-0.9822,-0.9822,-0.9822,-0.9822,-0.9822,-0.9822,-0.9822,-0.9822,-0.9822,-0.9822,-0.9822,-0.9822,-0.9822,-0.9822,-0.9822,-0.9822,-0.9822,-0.9822,-0.9822,-0.9822,-0.9822,-1.0103,-1.028,-1.028,-1.0558,-1.0721,-1.0721,-1.0721,-1.0721,-1.0721,-1.0721,-1.0721,-1.0721,-1.0721,-1.0721,-1.0721,-1.0721,-1.0721,0.0,1.117,1.1077,1.0413,0.9727,0.0,0.0,0.0,0.7982,0.7992,0.8009,0.7406,0.5363,0.2221,-0.0707,-0.2726,-0.5871,0.0,0.0,0.0,0.0,0.0,0.0,0.0,0.0,0.0,0.0,0.0,0.0,0.0,-0.8038,-0.8038,-0.8038,-0.8038,-0.8038,-0.8038,-0.8038,-0.8038,-0.8038,-0.8038,-0.8038,-0.8038,-0.8038,-0.8038,-0.8038,0.0,0.0,0.0,0.0,-0.8397,-0.8537,-0.8645,-0.8855,-0.894,-0.894,-0.894,-0.894,-0.894,-0.894,-0.894,-0.894,-0.894,-0.894,-0.895,-0.9001,-0.9188,-0.9432,-0.9673,-0.9781,-0.9822,-0.9822,-0.9822,-0.9822,-0.9822,-0.9822,-0.9822,-0.9822,-0.9822,-0.9822,-0.9822,-0.9822,-0.9822,-0.9822,-0.9822,-0.9822,-0.9822,-0.9822,-0.9825,-0.9832,-0.9836,-0.9839,-0.9852,-0.9852,-0.9852,-0.9852,-0.9999,-1.0166,-1.0166,-1.0582,-1.0751,-1.0751,-1.0751,-1.0751,-1.0751,-1.0751,-1.0751,-1.0751,-1.0751,-1.0751,-1.0751,-1.0751,-1.0751,0.0,0.9702,0.9916,1.0353,0.9065,0.0,0.0,0.0,0.0,0.0,0.7714,0.5871,0.0909,-0.0303,-0.2221,-0.7202,-0.8022,-0.8016,0.0,-0.7979,0.0,0.0,0.0,0.0,0.0,0.0,0.0,0.0,0.0,0.0,-0.8038,-0.8038,-0.8038,-0.8038,-0.8038,-0.8038,-0.8038,-0.8038,-0.8038,-0.8038,-0.8038,-0.8038,-0.8038,-0.8038,-0.8038,0.0,0.0,0.0,0.0,-0.835,-0.8472,-0.8513,-0.8808,-0.893,-0.894,-0.894,-0.894,-0.894,-0.894,-0.894,-0.894,-0.894,-0.894,-0.8964,-0.9096,-0.9252,-0.9412,-0.9564,-0.971,-0.9822,-0.9822,-0.9822,-0.9822,-0.9822,-0.9822,-0.9822,-0.9822,-0.9822,-0.9822,-0.9822,-0.9822,-0.9822,-0.9822,-0.9822,-0.9822,-0.9822,-0.9822,-0.9832,-0.9852,-0.9605,-0.9493,-0.9403,-0.9406,-0.9406,-0.9406,-0.99,-0.9924,-0.979,-1.0087,-1.0261,-1.0261,-1.0261,-1.0261,-1.0261,-1.0261,-1.0261,-1.0261,-1.0261,-1.0261,-1.0261,-1.0261,-1.0261,0.5313,0.0,0.8475,0.8582,0.6745,0.4924,0.0,0.0,0.0,0.0,0.0,0.0,0.0,0.0,-0.6486,-0.7818,-0.8002,-0.7982,-0.7979,0.0,0.0,0.0,0.0,0.0,0.0,0.0,0.0,0.0,0.0,-0.8038,-0.8038,-0.8038,-0.8038,-0.8038,-0.8038,-0.8038,-0.8038,-0.8038,-0.8038,-0.8038,-0.8038,-0.8038,-0.8038,-0.8038,-0.8038,0.0,0.0,0.0,-0.8055,-0.8241,-0.8384,-0.8503,-0.8689,-0.8835,-0.894,-0.894,-0.894,-0.894,-0.894,-0.894,-0.894,-0.894,-0.894,-0.8947,-0.8977,-0.9174,-0.9412,-0.9564,-0.971,-0.9822,-0.9822,-0.9822,-0.9822,-0.9822,-0.9822,-0.9822,-0.9822,-0.9822,-0.9822,-0.9822,-0.9822,-0.9822,-0.9822,-0.9822,-0.9822,-0.9822,-0.9836,-0.9849,-0.9856,-0.7625,-0.6027,-0.6031,-0.6031,-0.6031,-0.6031,-0.8369,-0.8765,-0.6293,-0.6473,-0.6713,-0.6713,-0.6713,-0.6713,-0.6713,-0.6713,-0.6713,-0.6713,-0.6713,-0.6713,-0.6713,-0.6713,-0.6713,0.4031,0.5037,0.6453,0.7695,0.6874,0.5142,0.0,0.0,0.0,0.0,0.0,0.0,0.0,0.0,0.0,0.0,-0.7985,0.0,0.0,0.0,0.0,0.0,0.0,0.0,0.0,0.0,0.0,0.0,0.0,-0.8038,-0.8038,-0.8038,-0.8038,-0.8038,-0.8038,-0.8038,-0.8038,-0.8038,-0.8038,-0.8038,-0.8038,-0.8038,-0.8038,-0.8038,-0.8038,0.0,0.0,0.0,-0.8052,-0.8208,-0.8353,-0.8499,-0.8652,-0.8804,-0.894,-0.894,-0.894,-0.894,-0.894,-0.894,-0.894,-0.894,-0.894,-0.894,-0.894,-0.9147,-0.9398,-0.9483,-0.9656,-0.9822,-0.9822,-0.9822,-0.9822,-0.9822,-0.9822,-0.9822,-0.9822,-0.9822,-0.9825,-0.9836,-0.9836,-0.9842,-0.9856,-0.9859,-0.9859,-0.9859,-0.9747,-0.9761,-0.9771,-0.8275,-0.6043,-0.2955,-0.3943,-0.4933,-0.4933,-0.7888,-0.9062,-0.7219,-0.4496,-0.2953,-0.2953,-0.2953,-0.2953,-0.2953,-0.2953,-0.2953,-0.2953,-0.2953,-0.2953,-0.2953,-0.2953,-0.2953,0.2828,0.2818,0.3414,0.6067,0.6173,0.434,0.0,0.0,0.0,0.0,0.0,0.0,0.0,0.0,0.0,0.0,0.0,0.0,0.0,0.0,0.0,0.0,0.0,0.0,0.0,0.0,0.0,0.0,0.0,-0.8333,-0.8333,-0.8137,-0.8038,-0.8038,-0.8038,-0.8038,-0.8038,-0.8038,-0.8038,-0.8038,-0.8038,-0.8038,-0.8038,-0.8038,-0.8038,-0.8038,0.0,0.0,-0.8052,-0.818,-0.8333,-0.8496,-0.8625,-0.8784,-0.894,-0.894,-0.894,-0.894,-0.894,-0.894,-0.894,-0.894,-0.894,-0.894,-0.894,-0.913,-0.9351,-0.9374,-0.9595,-0.9822,-0.9822,-0.9822,-0.9822,-0.9822,-0.9822,-0.9822,-0.9825,-0.9825,-0.9832,-0.9859,-0.9364,-0.8995,-0.9023,-0.9029,-0.9029,-0.9029,-0.9532,-0.9794,-0.9814,-0.8937,-0.6183,-0.0617,-0.2471,-0.4206,-0.4206,-0.676,-0.831,-0.8288,-0.3048,-0.0,-0.0,-0.0,-0.0,-0.0,-0.0,-0.0,-0.0,-0.0,-0.0,-0.0,-0.0,-0.0,-0.281,-0.2809,-0.2107,0.0605,-0.2218,-0.5763,-0.6586,0.0,0.0,0.0,0.0,0.0,0.0,0.0,0.0,0.0,0.0,0.0,0.0,0.0,0.0,0.0,0.0,0.0,0.0,0.0,0.0,0.0,0.0,-0.9706,-0.9706,-0.8627,-0.8038,-0.8038,-0.8038,-0.8038,-0.8038,-0.8038,-0.8038,-0.8038,-0.8038,-0.8038,-0.8038,-0.8038,-0.8038,-0.8038,0.0,-0.8038,-0.8041,-0.8065,-0.8235,-0.8482,-0.8509,-0.8689,-0.894,-0.894,-0.894,-0.894,-0.894,-0.894,-0.894,-0.894,-0.894,-0.894,-0.894,-0.9055,-0.9215,-0.9344,-0.9595,-0.9822,-0.9822,-0.9822,-0.9822,-0.9822,-0.9822,-0.9825,-0.9846,-0.9849,-0.9859,-0.9771,-0.7518,-0.5655,-0.5657,-0.5659,-0.5659,-0.5659,-0.8038,-0.9814,-0.9818,-0.4943,-0.1111,-0.0123,-0.0494,-0.0741,-0.0741,-0.127,-0.155,-0.1549,-0.053,-0.0,-0.0,-0.0,-0.0,-0.0,-0.0,-0.0,-0.0,-0.0,-0.0,-0.0,-0.0,-0.0,-0.6145,-0.6145,-0.5844,-0.4638,-0.5044,-0.6258,-0.7695,0.0,0.0,0.0,0.0,0.0,0.0,0.0,0.0,0.0,0.0,0.0,0.0,0.0,0.0,0.0,0.0,0.0,0.0,0.0,0.0,0.0,0.0,0.0,-0.892,-0.8333,-0.8038,-0.8038,-0.8038,-0.8038,-0.8038,-0.8038,-0.8038,-0.8038,-0.8038,-0.8038,-0.8038,-0.8038,-0.8038,-0.8038,0.0,-0.8038,-0.8038,-0.8038,-0.8214,-0.8482,-0.8482,-0.8669,-0.894,-0.894,-0.894,-0.894,-0.894,-0.894,-0.894,-0.894,-0.894,-0.894,-0.894,-0.9039,-0.9184,-0.9337,-0.9537,-0.9724,-0.9802,-0.9822,-0.9825,-0.9836,-0.9839,-0.9846,-0.9754,-0.8378,-0.7638,-0.9419,-0.8541,-0.6419,-0.2832,-0.2217,-0.2217,-0.2217,-0.3577,-0.4447,-0.4447,-0.1851,-0.0,-0.0,-0.0,-0.0,-0.0,-0.0,-0.0,-0.0,-0.0,-0.0,-0.0,-0.0,-0.0,-0.0,-0.0,-0.0,-0.0,-0.0,-0.0,-0.0,-0.0,-0.0,-0.7979,-0.8275,-0.8471,-0.8471,0.0,-0.5432,-0.7575,0.0,0.0,0.0,0.0,0.0,0.0,0.0,0.0,0.0,0.0,0.0,0.0,0.0,0.0,0.0,0.0,0.0,0.0,0.0,0.0,0.0,0.0,0.0,-0.9406,-0.8821,-0.8432,-0.8432,-0.8137,-0.8038,-0.8038,-0.8038,-0.8038,-0.8038,-0.8038,-0.8038,-0.8038,-0.8038,-0.8038,-0.8038,-0.8038,-0.8038,-0.8038,-0.8038,-0.8214,-0.8482,-0.8482,-0.8669,-0.894,-0.894,-0.894,-0.894,-0.894,-0.894,-0.894,-0.894,-0.894,-0.894,-0.894,-0.9015,-0.914,-0.9327,-0.9466,-0.9598,-0.9774,-0.9822,-0.9825,-0.9849,-0.9856,-0.9744,-0.9784,-0.7782,-0.6289,-0.7303,-0.7557,-0.5937,-0.0864,-0.0,-0.0,-0.0,-0.0,-0.0,-0.0,-0.0,-0.0,-0.0,-0.0,-0.0,-0.0,-0.0,-0.0,-0.0,-0.0,-0.0,-0.0,-0.0,-0.0,-0.0,-0.0,-0.0,-0.0,-0.0,-0.0,-0.0,-0.0,-0.0,-0.8041,-0.8924,-0.9809,-0.9809,-0.8741,0.0,-0.7975,-0.8943,0.0,0.0,0.0,0.0,0.0,0.0,0.0,0.0,0.0,0.0,0.0,0.0,0.0,0.0,0.0,0.0,0.0,0.0,0.0,0.0,0.0,0.0,-1.3488,-1.1161,-0.9903,-0.9903,-0.8627,-0.8038,-0.8038,-0.8038,-0.8038,-0.8038,-0.8038,-0.8038,-0.8038,-0.8038,-0.8038,-0.8038,-0.8038,-0.8038,-0.8038,-0.8038,-0.8214,-0.8482,-0.8482,-0.8669,-0.894,-0.894,-0.894,-0.894,-0.894,-0.894,-0.894,-0.894,-0.894,-0.894,-0.894,-0.8947,-0.9011,-0.93,-0.9391,-0.9462,-0.9747,-0.9822,-0.9825,-0.9849,-0.9856,-0.9747,-0.9804,-0.9565,-0.768,-0.1851,-0.0741,-0.0494,-0.0123,-0.0,-0.0,-0.0,-0.0,-0.0,-0.0,-0.0,-0.0,-0.0,-0.0,-0.0,-0.0,-0.0,-0.0,-0.0,-0.0,-0.0,-0.0,-0.0,-0.0,-0.0,-0.0,-0.0,-0.0,-0.0,-0.0,-0.0,-0.0,-0.0,-0.9019,-0.9608,-1.0194,-1.0974,0.0,0.0,0.0,0.0,0.0,0.0,0.0,0.0,0.0,0.0,0.0,0.0,0.0,0.0,0.0,0.0,0.0,0.0,0.0,0.0,0.0,0.0,0.0,0.0,0.0,0.0,-1.2716,-1.175,-1.0779,-0.9998,-0.9509,-0.8825,-0.8038,-0.8038,-0.8038,-0.8038,-0.8038,-0.8038,-0.8038,-0.8038,-0.8038,-0.8038,-0.8038,-0.8038,-0.8038,-0.8038,-0.816,-0.837,-0.8554,-0.8754,-0.894,-0.894,-0.894,-0.894,-0.894,-0.894,-0.894,-0.894,-0.894,-0.894,-0.894,-0.894,-0.9001,-0.9296,-0.9381,-0.9449,-0.9744,-0.9822,-0.9832,-0.9754,-0.8258,-0.6151,-0.4196,-0.3704,-0.2963,-0.0494,-0.0,-0.0,-0.0,-0.0,-0.0,-0.0,-0.0,-0.0,-0.0,-0.0,-0.0,-0.0,-0.0,-0.0,-0.0,-0.0,-0.0,-0.0,-0.0,-0.0,-0.0,-0.0,-0.0,-0.0,-0.0,-0.0,-0.0,-0.0,-0.0,-0.0,-0.0,-0.0,-1.0386,-1.0872,-1.1453,0.0,0.0,0.0,0.0,0.0,0.0,0.0,0.0,0.0,0.0,0.0,0.0,0.0,0.0,0.0,0.0,0.0,0.0,0.0,0.0,0.0,0.0,0.0,0.0,0.0,0.0,0.0,0.0,-1.2334,-1.1463,-1.0583,-0.9801,-0.892,-0.8038,-0.8038,-0.8038,-0.8038,-0.8038,-0.8038,-0.8038,-0.8038,-0.8038,-0.8038,-0.8038,-0.8038,-0.8038,-0.8038,-0.8157,-0.8364,-0.8611,-0.8804,-0.894,-0.894,-0.894,-0.894,-0.894,-0.894,-0.894,-0.894,-0.894,-0.894,-0.894,-0.894,-0.8991,-0.9249,-0.9354,-0.9449,-0.971,-0.9805,-0.9846,-0.9771,-0.803,-0.53,-0.0987,-0.0,-0.0,-0.0,-0.0,-0.0,-0.0,-0.0,-0.0,-0.0,-0.0,-0.0,-0.0,-0.0,-0.0,-0.0,-0.0,-0.0,-0.0,-0.0,-0.0,-0.0,-0.0,-0.0,-0.0,-0.0,-0.0,-0.0,-0.0,-0.0,-0.0,-0.0,-0.0,-0.0,-0.0,-0.0,-1.1955,-1.2915,-1.3878,0.0,0.0,0.0,0.0,0.0,0.0,0.0,0.0,0.0,0.0,0.0,0.0,0.0,0.0,0.0,0.0,0.0,0.0,0.0,0.0,0.0,0.0,0.0,0.0,0.0,0.0,0.0,0.0,-1.3307,-1.195,-1.1945,-0.941,-0.8038,-0.8038,-0.8038,-0.8038,-0.8038,-0.8038,-0.8038,-0.8038,-0.8038,-0.8038,-0.8038,-0.8038,-0.8038,-0.8038,-0.8038,-0.8214,-0.8499,-0.8648,-0.8804,-0.894,-0.894,-0.894,-0.894,-0.894,-0.894,-0.894,-0.894,-0.894,-0.894,-0.894,-0.894,-0.8974,-0.914,-0.9178,-0.9215,-0.9635,-0.9768,-0.9744,-0.9774,-0.9801,-0.8058,-0.1358,-0.0,-0.0,-0.0,-0.0,-0.0,-0.0,-0.0,-0.0,-0.0,-0.0,-0.0,-0.0,-0.0,-0.0,-0.0,-0.0,-0.0,-0.0,-0.0,-0.0,-0.0,-0.0,-0.0,-0.0,-0.0,-0.0,-0.0,-0.0,-0.0,-0.0,-0.0,-0.0,-0.0,-0.0,-0.0,-1.3713,-1.4086,0.0,0.0,0.0,0.0,0.0,0.0,0.0,0.0,0.0,0.0,0.0,0.0,0.0,0.0,0.0,0.0,0.0,0.0,0.0,0.0,0.0,0.0,0.0,0.0,0.0,0.0,0.0,0.0,0.0,-1.4172,-1.2909,-1.1945,-1.0288,-0.892,-0.8038,-0.8038,-0.8038,-0.8038,-0.8038,-0.8038,-0.8038,-0.8038,-0.8038,-0.8038,-0.8038,-0.8038,-0.8038,-0.8038,-0.8214,-0.8486,-0.853,-0.871,-0.894,-0.894,-0.894,-0.894,-0.894,-0.894,-0.894,-0.894,-0.894,-0.894,-0.894,-0.895,-0.8994,-0.9144,-0.7654,-0.6005,-0.6228,-0.8057,-0.9794,-0.9804,-0.9811,-0.8058,-0.1358,-0.0,-0.0,-0.0,-0.0,-0.0,-0.0,-0.0,-0.0,-0.0,-0.0,-0.0,-0.0,-0.0,-0.0,-0.0,-0.0,-0.0,-0.0,-0.0,-0.0,-0.0,-0.0,-0.0,-0.0,-0.0,-0.0,-0.0,-0.0,-0.0,-0.0,-0.0,-0.0,-0.0,-0.0,-0.0,-1.5368,0.0,0.0,0.0,0.0,0.0,0.0,0.0,0.0,0.0,0.0,0.0,0.0,0.0,0.0,0.0,0.0,0.0,0.0,0.0,0.0,0.0,0.0,0.0,0.0,0.0,0.0,0.0,0.0,0.0,0.0,-1.4076,-1.2721,-1.1945,-1.019,-0.8825,-0.8038,-0.8038,-0.8038,-0.8038,-0.8038,-0.8038,-0.8038,-0.8038,-0.8038,-0.8038,-0.8038,-0.8038,-0.8038,-0.8038,-0.8214,-0.8482,-0.8482,-0.8669,-0.894,-0.894,-0.894,-0.894,-0.894,-0.894,-0.894,-0.895,-0.8954,-0.8954,-0.8853,-0.8866,-0.8893,-0.9096,-0.7755,-0.6012,-0.5117,-0.7309,-0.9828,-0.9818,-0.7806,-0.4818,-0.0864,-0.0,-0.0,-0.0,-0.0,-0.0,-0.0,-0.0,-0.0,-0.0,-0.0,-0.0,-0.0,-0.0,-0.0,-0.0,-0.0,-0.0,-0.0,-0.0,-0.0,-0.0,-0.0,-0.0,-0.0,-0.0,-0.0,-0.0,-0.0,-0.0,-0.0,-0.0,-0.0,-0.0,-0.0,-0.0,0.0,0.0,0.0,0.0,0.0,0.0,0.0,0.0,0.0,0.0,0.0,0.0,0.0,0.0,0.0,0.0,0.0,0.0,0.0,0.0,0.0,0.0,0.0,0.0,0.0,0.0,0.0,0.0,0.0,0.0,0.0,-1.3307,-1.1848,-1.175,-0.9312,-0.8038,-0.8038,-0.8038,-0.8038,-0.8038,-0.8038,-0.8038,-0.8038,-0.8038,-0.8038,-0.8038,-0.8038,-0.8038,-0.8038,-0.8038,-0.8214,-0.8482,-0.8482,-0.8669,-0.894,-0.894,-0.894,-0.894,-0.894,-0.8944,-0.8947,-0.8856,-0.8749,-0.8523,-0.8542,-0.8667,-0.89,-0.891,-0.8543,-0.7568,-0.5079,-0.6666,-0.8958,-0.894,-0.4324,-0.0,-0.0,-0.0,-0.0,-0.0,-0.0,-0.0,-0.0,-0.0,-0.0,-0.0,-0.0,-0.0,-0.0,-0.0,-0.0,-0.0,-0.0,-0.0,-0.0,-0.0,-0.0,-0.0,-0.0,-0.0,-0.0,-0.0,-0.0,-0.0,-0.0,-0.0,-0.0,-0.0,-0.0,-0.0,-0.0,-0.0,0.0,-1.7228,0.0,0.0,0.0,0.0,0.0,0.0,0.0,0.0,0.0,0.0,0.0,0.0,0.0,0.0,0.0,0.0,0.0,0.0,0.0,0.0,0.0,0.0,0.0,0.0,0.0,0.0,0.0,0.0,-1.4364,-1.2818,-1.1458,-1.0485,-0.8825,-0.8038,-0.8038,-0.8038,-0.8038,0.0,-0.8038,-0.8038,-0.8038,-0.8038,-0.8038,-0.8038,-0.8038,-0.8038,-0.8038,-0.8038,-0.8214,-0.8482,-0.8482,-0.8669,-0.894,-0.894,-0.894,-0.8944,-0.885,-0.8856,-0.886,-0.888,-0.729,-0.5479,-0.5483,-0.7073,-0.891,-0.8913,-0.552,-0.1766,-0.1178,-0.1569,-0.2099,-0.2099,-0.0987,-0.0,-0.0,-0.0,-0.0,-0.0,-0.0,-0.0,-0.0,-0.0,-0.0,-0.0,-0.0,-0.0,-0.0,-0.0,-0.0,-0.0,-0.0,-0.0,-0.0,-0.0,-0.0,-0.0,-0.0,-0.0,-0.0,-0.0,-0.0,-0.0,-0.0,-0.0,-0.0,-0.0,-0.0,-0.0,-0.0,-0.0,0.0,0.0,0.0,0.0,0.0,0.0,0.0,0.0,0.0,0.0,0.0,0.0,0.0,0.0,0.0,0.0,0.0,0.0,0.0,0.0,0.0,0.0,0.0,0.0,0.0,0.0,0.0,0.0,0.0,-1.5242,-1.3974,-1.2619,-1.1361,-0.9998,-0.8726,-0.8038,-0.8038,-0.8038,-0.8038,-0.8038,-0.8038,-0.8038,-0.8038,-0.8038,-0.8038,-0.8038,-0.8038,-0.8038,-0.8038,-0.8038,-0.8174,-0.8387,-0.8455,-0.8625,-0.8842,-0.8923,-0.8846,-0.8846,-0.887,-0.7964,-0.7054,-0.8437,-0.7874,-0.6056,-0.3245,-0.3473,-0.4601,-0.4601,-0.2398,-0.0,-0.0,-0.0,-0.0,-0.0,-0.0,-0.0,-0.0,-0.0,-0.0,-0.0,-0.0,-0.0,-0.0,-0.0,-0.0,-0.0,-0.0,-0.0,-0.0,-0.0,-0.0,-0.0,-0.0,-0.0,-0.0,-0.0,-0.0,-0.0,-0.0,-0.0,-0.0,-0.0,-0.0,-0.0,-0.0,-0.0,-0.0,-0.0,-0.0,-0.0,-0.0,-0.0,0.0,0.0,0.0,0.0,0.0,0.0,0.0,0.0,0.0,0.0,0.0,0.0,0.0,0.0,0.0,0.0,0.0,0.0,0.0,0.0,0.0,0.0,0.0,0.0,0.0,0.0,0.0,0.0,0.0,-1.4561,-1.3295,-1.2139,-1.0974,-0.9706,-0.8531,-0.8038,-0.8038,-0.8038,-0.8038,-0.8038,-0.8038,-0.8038,-0.8038,-0.8038,-0.8038,-0.8038,-0.8038,-0.8038,-0.8038,-0.8038,-0.813,-0.8286,-0.8431,-0.8581,-0.8737,-0.8803,-0.8523,-0.8183,-0.8775,-0.7299,-0.5487,-0.6857,-0.7315,-0.6408,-0.1457,-0.0,-0.0,-0.0,-0.0,-0.0,-0.0,-0.0,-0.0,-0.0,-0.0,-0.0,-0.0,-0.0,-0.0,-0.0,-0.0,-0.0,-0.0,-0.0,-0.0,-0.0,-0.0,-0.0,-0.0,-0.0,-0.0,-0.0,-0.0,-0.0,-0.0,-0.0,-0.0,-0.0,-0.0,-0.0,-0.0,-0.0,-0.0,-0.0,-0.0,-0.0,-0.0,-0.0,-0.0,-0.0,-0.0,-0.0,0.0,0.0,0.0,0.0,0.0,0.0,0.0,0.0,0.0,0.0,0.0,0.0,0.0,0.0,0.0,0.0,0.0,0.0,0.0,0.0,0.0,0.0,0.0,0.0,0.0,0.0,0.0,0.0,-1.3108,-1.1848,-1.0583,-1.0386,-0.9608,-0.8333,-0.8137,-0.8038,-0.8038,-0.8038,-0.8038,-0.8038,-0.8038,-0.8038,-0.8038,-0.8038,-0.8038,-0.8038,-0.8038,-0.8038,-0.8038,-0.8038,-0.813,-0.8286,-0.834,-0.8495,-0.8652,-0.8826,-0.729,-0.5481,-0.7988,-0.868,-0.7539,-0.269,-0.1233,-0.1009,-0.0224,-0.0,-0.0,-0.0,-0.0,-0.0,-0.0,-0.0,-0.0,-0.0,-0.0,-0.0,-0.0,-0.0,-0.0,-0.0,-0.0,-0.0,-0.0,-0.0,-0.0,-0.0,-0.0,-0.0,-0.0,-0.0,-0.0,-0.0,-0.0,-0.0,-0.0,-0.0,-0.0,-0.0,-0.0,-0.0,-0.0,-0.0,-0.0,-0.0,-0.0,-0.0,-0.0,-0.0,-0.0,-0.0,-0.0,-0.0,-1.7582,0.0,0.0,0.0,0.0,0.0,0.0,0.0,0.0,0.0,0.0,0.0,0.0,0.0,0.0,0.0,0.0,0.0,0.0,0.0,0.0,0.0,0.0,0.0,0.0,0.0,0.0,0.0,-1.2237,-1.1365,-1.0096,-0.9998,-0.941,-0.8038,-0.8038,-0.8038,-0.8038,-0.8038,-0.8038,-0.8038,-0.8038,-0.8038,-0.8038,-0.8038,-0.8038,-0.8038,-0.8038,-0.8038,-0.8038,-0.8038,-0.8085,-0.8184,-0.8209,-0.7369,-0.6253,-0.8241,-0.8103,-0.6624,-0.4599,-0.3926,-0.3477,-0.0897,-0.0,-0.0,-0.0,-0.0,-0.0,-0.0,-0.0,-0.0,-0.0,-0.0,-0.0,-0.0,-0.0,-0.0,-0.0,-0.0,-0.0,-0.0,-0.0,-0.0,-0.0,-0.0,-0.0,-0.0,-0.0,-0.0,-0.0,-0.0,-0.0,-0.0,-0.0,-0.0,-0.0,-0.0,-0.0,-0.0,-0.0,-0.0,-0.0,-0.0,-0.0,-0.0,-0.0,-0.0,-0.0,-0.0,-0.0,-0.0,-0.0,-0.0,0.0,0.0,0.0,0.0,0.0,0.0,0.0,0.0,0.0,0.0,0.0,0.0,0.0,0.0,0.0,0.0,0.0,0.0,0.0,0.0,0.0,0.0,0.0,0.0,0.0,0.0,0.0,0.0,-1.1072,-1.0485,-0.9509,-0.9509,-0.9019,-0.8038,-0.8038,-0.8038,-0.8038,-0.8038,-0.8038,-0.8038,-0.8038,-0.8038,-0.8038,-0.8045,-0.8048,-0.8048,-0.8041,-0.8041,-0.8048,-0.8048,-0.7959,-0.8009,-0.82,-0.6918,-0.5126,-0.621,-0.6634,-0.5956,-0.1569,-0.0,-0.0,-0.0,-0.0,-0.0,-0.0,-0.0,-0.0,-0.0,-0.0,-0.0,-0.0,-0.0,-0.0,-0.0,-0.0,-0.0,-0.0,-0.0,-0.0,-0.0,-0.0,-0.0,-0.0,-0.0,-0.0,-0.0,-0.0,-0.0,-0.0,-0.0,-0.0,-0.0,-0.0,-0.0,-0.0,-0.0,-0.0,-0.0,-0.0,-0.0,-0.0,-0.0,-0.0,-0.0,-0.0,-0.0,-0.0,-0.0,-0.0,-0.0,-0.0,-0.0,0.0,0.0,0.0,0.0,0.0,0.0,0.0,0.0,0.0,0.0,0.0,0.0,0.0,0.0,0.0,0.0,0.0,0.0,0.0,0.0,0.0,0.0,0.0,0.0,0.0,0.0,0.0,0.0,-0.892,-0.8137,-0.8137,-0.8137,-0.8038,-0.8038,-0.8038,-0.8038,-0.8038,-0.8038,-0.8038,-0.8038,-0.8038,-0.8038,-0.8038,-0.7962,-0.7972,-0.7969,-0.8048,-0.7952,-0.7972,-0.7972,-0.7979,-0.8022,-0.8023,-0.7927,-0.72,-0.2325,-0.0448,-0.0448,-0.0112,-0.0,-0.0,-0.0,-0.0,-0.0,-0.0,-0.0,-0.0,-0.0,-0.0,-0.0,-0.0,-0.0,-0.0,-0.0,-0.0,-0.0,-0.0,-0.0,-0.0,-0.0,-0.0,-0.0,-0.0,-0.0,-0.0,-0.0,-0.0,-0.0,-0.0,-0.0,-0.0,-0.0,-0.0,-0.0,-0.0,-0.0,-0.0,-0.0,-0.0,-0.0,-0.0,-0.0,-0.0,-0.0,-0.0,-0.0,-0.0,-0.0,-0.0,-0.0,-0.0,-0.0,0.0,0.0,0.0,0.0,0.0,0.0,0.0,0.0,0.0,0.0,0.0,0.0,0.0,0.0,0.0,0.0,0.0,0.0,0.0,0.0,0.0,0.0,0.0,0.0,0.0,0.0,0.0,0.0,0.0,-0.8038,-0.8038,-0.8038,-0.8038,-0.8038,-0.8038,-0.8038,-0.8038,-0.8038,-0.8038,-0.8038,-0.8038,-0.8038,-0.8038,-0.8048,-0.7959,-0.7972,-0.7965,-0.7969,-0.7879,-0.6139,-0.6456,-0.8042,-0.803,-0.5878,-0.2677,-0.0664,-0.0,-0.0,-0.0,-0.0,-0.0,-0.0,-0.0,-0.0,-0.0,-0.0,-0.0,-0.0,-0.0,-0.0,-0.0,-0.0,-0.0,-0.0,-0.0,-0.0,-0.0,-0.0,-0.0,-0.0,-0.0,-0.0,-0.0,-0.0,-0.0,-0.0,-0.0,-0.0,-0.0,-0.0,-0.0,-0.0,-0.0,-0.0,-0.0,-0.0,-0.0,-0.0,-0.0,-0.0,-0.0,-0.0,-0.0,-0.0,-0.0,-0.0,-0.0,-0.0,-0.0,-0.0,-0.0,-0.0,-1.7582,0.0,0.0,0.0,0.0,0.0,0.0,0.0,0.0,0.0,0.0,0.0,0.0,0.0,0.0,0.0,0.0,0.0,0.0,0.0,0.0,0.0,0.0,0.0,0.0,0.0,0.0,0.0,0.0,0.0,-0.8038,-0.8038,-0.8041,-0.7952,-0.7952,-0.7952,-0.7955,-0.7955,-0.7955,-0.7955,-0.7955,-0.7955,-0.7955,-0.7965,-0.7975,-0.7992,-0.7999,-0.8002,-0.7899,-0.6052,-0.5349,-0.528,-0.5267,-0.3093,-0.0,-0.0,-0.0,-0.0,-0.0,-0.0,-0.0,-0.0,-0.0,-0.0,-0.0,-0.0,-0.0,-0.0,-0.0,-0.0,-0.0,-0.0,-0.0,-0.0,-0.0,-0.0,-0.0,-0.0,-0.0,-0.0,-0.0,-0.0,-0.0,-0.0,-0.0,-0.0,-0.0,-0.0,-0.0,-0.0,-0.0,-0.0,-0.0,-0.0,-0.0,-0.0,-0.0,-0.0,-0.0,-0.0,-0.0,-0.0,-0.0,-0.0,-0.0,-0.0,-0.0,-0.0,-0.0,-0.0,-0.0,-0.0,0.0,0.0,0.0,0.0,0.0,0.0,0.0,0.0,0.0,0.0,0.0,0.0,0.0,0.0,0.0,0.0,0.0,0.0,0.0,0.0,0.0,0.0,0.0,0.0,0.0,0.0,0.0,0.0,-0.8038,-0.8038,-0.8038,-0.8038,-0.7952,-0.7972,-0.7972,-0.7875,-0.7885,-0.7885,-0.7885,-0.7885,-0.7885,-0.7885,-0.7885,-0.7908,-0.7922,-0.8026,-0.8049,-0.7942,-0.7717,-0.7717,-0.4651,-0.0,-0.0,-0.0,-0.0,-0.0,-0.0,-0.0,-0.0,-0.0,-0.0,-0.0,-0.0,-0.0,-0.0,-0.0,-0.0,-0.0,-0.0,-0.0,-0.0,-0.0,-0.0,-0.0,-0.0,-0.0,-0.0,-0.0,-0.0,-0.0,-0.0,-0.0,-0.0,-0.0,-0.0,-0.0,-0.0,-0.0,-0.0,-0.0,-0.0,-0.0,-0.0,-0.0,-0.0,-0.0,-0.0,-0.0,-0.0,-0.0,-0.0,-0.0,-0.0,-0.0,-0.0,-0.0,-0.0,-0.0,-0.0,-0.0,-0.0,-0.0,-1.7561,0.0,0.0,0.0,0.0,0.0,0.0,0.0,0.0,0.0,0.0,0.0,0.0,0.0,0.0,0.0,0.0,0.0,0.0,0.0,0.0,0.0,0.0,0.0,0.0,0.0,0.0,0.0,-0.8038,-0.8038,-0.8038,-0.7955,-0.7969,-0.7985,-0.6139,-0.5127,-0.5129,-0.5129,-0.5129,-0.5129,-0.5129,-0.5129,-0.5129,-0.5133,-0.616,-0.8026,-0.8032,-0.5773,-0.2221,-0.2221,-0.1313,-0.0,-0.0,-0.0,-0.0,-0.0,-0.0,-0.0,-0.0,-0.0,-0.0,-0.0,-0.0,-0.0,-0.0,-0.0,-0.0,-0.0,-0.0,-0.0,-0.0,-0.0,-0.0,-0.0,-0.0,-0.0,-0.0,-0.0,-0.0,-0.0,-0.0,-0.0,-0.0,-0.0,-0.0,-0.0,-0.0,-0.0,-0.0,-0.0,-0.0,-0.0,-0.0,-0.0,-0.0,-0.0,-0.0,-0.0,-0.0,-0.0,-0.0,-0.0,-0.0,-0.0,-0.0,-0.0,-0.0,-0.0,-0.0,-0.0,-0.0,-0.0,-1.8359,-1.8218,-1.7929,-1.7669,0.0,0.0,-1.7609,-1.7582,0.0,0.0,0.0,0.0,0.0,0.0,0.0,0.0,0.0,0.0,0.0,0.0,0.0,0.0,0.0,0.0,0.0,-0.8038,-0.8038,-0.8038,-0.8038,-0.8041,-0.7952,-0.6945,-0.6859,-0.8002,-0.6461,-0.4632,-0.2314,-0.2314,-0.2314,-0.2314,-0.2314,-0.2314,-0.2314,-0.2314,-0.3224,-0.4752,-0.7006,-0.4962,-0.0,-0.0,-0.0,-0.0,-0.0,-0.0,-0.0,-0.0,-0.0,-0.0,-0.0,-0.0,-0.0,-0.0,-0.0,-0.0,-0.0,-0.0,-0.0,-0.0,-0.0,-0.0,-0.0,-0.0,-0.0,-0.0,-0.0,-0.0,-0.0,-0.0,-0.0,-0.0,-0.0,-0.0,-0.0,-0.0,-0.0,-0.0,-0.0,-0.0,-0.0,-0.0,-0.0,-0.0,-0.0,-0.0,-0.0,-0.0,-0.0,-0.0,-0.0,-0.0,-0.0,-0.0,-0.0,-0.0,-0.0,-0.0,-0.0,-0.0,-0.0,-0.0,-0.0,-0.0,-1.9417,-1.9015,-1.8424,-1.7899,-1.7692,0.0,-1.7576,-1.7602,-1.7582,0.0,0.0,0.0,0.0,0.0,0.0,0.0,0.0,0.0,0.0,0.0,0.0,0.0,0.0,0.0,-0.8041,-0.8038,-0.8038,-0.8038,-0.8041,-0.7952,-0.7979,-0.5737,-0.524,-0.7098,-0.7098,-0.4853,-0.0,-0.0,-0.0,-0.0,-0.0,-0.0,-0.0,-0.0,-0.0,-0.0303,-0.5071,-0.4356,-0.0,-0.0,-0.0,-0.0,-0.0,-0.0,-0.0,-0.0,-0.0,-0.0,-0.0,-0.0,-0.0,-0.0,-0.0,-0.0,-0.0,-0.0,-0.0,-0.0,-0.0,-0.0,-0.0,-0.0,-0.0,-0.0,-0.0,-0.0,-0.0,-0.0,-0.0,-0.0,-0.0,-0.0,-0.0,-0.0,-0.0,-0.0,-0.0,-0.0,-0.0,-0.0,-0.0,-0.0,-0.0,-0.0,-0.0,-0.0,-0.0,-0.0,-0.0,-0.0,-0.0,-0.0,-0.0,-0.0,-0.0,-0.0,-0.0,-0.0,-0.0,-0.0,-0.0,-0.0,-1.9364,-1.9305,-1.923,-1.9043,-1.8346,0.0,-1.7613,-1.7636,-1.7582,0.0,0.0,0.0,0.0,0.0,0.0,0.0,0.0,0.0,0.0,0.0,0.0,0.0,0.0,0.0,-0.8052,-0.8038,-0.8038,-0.8038,-0.7955,-0.7979,-0.8012,-0.75,-0.5459,-0.1716,-0.1515,-0.101,-0.0,-0.0,-0.0,-0.0,-0.0,-0.0,-0.0,-0.0,-0.0,-0.0101,-0.1111,-0.101,-0.0,-0.0,-0.0,-0.0,-0.0,-0.0,-0.0,-0.0,-0.0,-0.0,-0.0,-0.0,-0.0,-0.0,-0.0,-0.0,-0.0,-0.0,-0.0,-0.0,-0.0,-0.0,-0.0,-0.0,-0.0,-0.0,-0.0,-0.0,-0.0,-0.0,-0.0,-0.0,-0.0,-0.0,-0.0,-0.0,-0.0,-0.0,-0.0,-0.0,-0.0,-0.0,-0.0,-0.0,-0.0,-0.0,-0.0,-0.0,-0.0,-0.0,-0.0,-0.0,-0.0,-0.0,-0.0,-0.0,-0.0,-0.0,-0.0,-0.0,-0.0,-0.0,-0.0,-0.0,-1.9401,-1.9421,-1.9405,-1.9387,-1.8972,0.0,0.0,-1.7567,-1.7649,-1.7609,0.0,0.0,0.0,0.0,0.0,0.0,0.0,0.0,0.0,0.0,0.0,0.0,0.0,0.0,-0.8163,-0.8085,-0.8045,-0.7955,-0.6742,-0.6556,-0.7918,-0.5464,-0.2827,-0.0101,-0.0,-0.0,-0.0,-0.0,-0.0,-0.0,-0.0,-0.0,-0.0,-0.0,-0.0,-0.0,-0.0,-0.0,-0.0,-0.0,-0.0,-0.0,-0.0,-0.0,-0.0,-0.0,-0.0,-0.0,-0.0,-0.0,-0.0,-0.0,-0.0,-0.0,-0.0,-0.0,-0.0,-0.0,-0.0,-0.0,-0.0,-0.0,-0.0,-0.0,-0.0,-0.0,-0.0,-0.0,-0.0,-0.0,-0.0,-0.0,-0.0,-0.0,-0.0,-0.0,-0.0,-0.0,-0.0,-0.0,-0.0,-0.0,-0.0,-0.0,-0.0,-0.0,-0.0,-0.0,-0.0,-0.0,-0.0,-0.0,-0.0,-0.0,-0.0,-0.0,-0.0,-0.0,-0.0,-0.0,-0.0,-0.0,0.0,0.0,0.0,0.0,0.0,-1.9183,0.0,0.0,0.0,0.0,0.0,0.0,0.0,0.0,0.0,0.0,0.0,0.0,0.0,0.0,0.0,0.0,0.0,0.0,0.0,-0.8177,-0.8085,-0.7975,-0.6042,-0.5242,-0.638,-0.2323,-0.0,-0.0,-0.0,-0.0,-0.0,-0.0,-0.0,-0.0,-0.0,-0.0,-0.0,-0.0,-0.0,-0.0,-0.0,-0.0,-0.0,-0.0,-0.0,-0.0,-0.0,-0.0,-0.0,-0.0,-0.0,-0.0,-0.0,-0.0,-0.0,-0.0,-0.0,-0.0,-0.0,-0.0,-0.0,-0.0,-0.0,-0.0,-0.0,-0.0,-0.0,-0.0,-0.0,-0.0,-0.0,-0.0,-0.0,-0.0,-0.0,-0.0,-0.0,-0.0,-0.0,-0.0,-0.0,-0.0,-0.0,-0.0,-0.0,-0.0,-0.0,-0.0,-0.0,-0.0,-0.0,-0.0,-0.0,-0.0,-0.0,-0.0,-0.0,-0.0,-0.0,-0.0,-0.0,-0.0,-0.0,-0.0,-0.0,-0.0,0.0,0.0,0.0,0.0,-1.9381,0.0,0.0,0.0,-1.7611,-1.7577,0.0,0.0,0.0,0.0,0.0,0.0,0.0,0.0,0.0,0.0,0.0,0.0,0.0,0.0,0.0,-0.8336,-0.8211,-0.7999,-0.7701,-0.5564,-0.1111,-0.0303,-0.0,-0.0,-0.0,-0.0,-0.0,-0.0,-0.0,-0.0,-0.0,-0.0,-0.0,-0.0,-0.0,-0.0,-0.0,-0.0,-0.0,-0.0,-0.0,-0.0,-0.0,-0.0,-0.0,-0.0,-0.0,-0.0,-0.0,-0.0,-0.0,-0.0,-0.0,-0.0,-0.0,-0.0,-0.0,-0.0,-0.0,-0.0,-0.0,-0.0,-0.0,-0.0,-0.0,-0.0,-0.0,-0.0,-0.0,-0.0,-0.0,-0.0,-0.0,-0.0,-0.0,-0.0,-0.0,-0.0,-0.0,-0.0,-0.0,-0.0,-0.0,-0.0,-0.0,-0.0,-0.0,-0.0,-0.0,-0.0,-0.0,-0.0,-0.0,-0.0,-0.0,-0.0,-0.0,-0.0,-0.0,-0.0,-0.0,-0.0,0.0,0.0,0.0,0.0,0.0,0.0,-1.936,0.0,-1.8657,0.0,0.0,0.0,0.0,0.0,0.0,0.0,-1.5777,0.0,0.0,0.0,0.0,0.0,0.0,0.0,0.0,0.0,0.0,0.0,-0.7097,-0.563,-0.0303,-0.0,-0.0,-0.0,-0.0,-0.0,-0.0,-0.0,-0.0,-0.0,-0.0,-0.0,-0.0,-0.0,-0.0,-0.0,-0.0,-0.0,-0.0,-0.0,-0.0,-0.0,-0.0,-0.0,-0.0,-0.0,-0.0,-0.0,-0.0,-0.0,-0.0,-0.0,-0.0,-0.0,-0.0,-0.0,-0.0,-0.0,-0.0,-0.0,-0.0,-0.0,-0.0,-0.0,-0.0,-0.0,-0.0,-0.0,-0.0,-0.0,-0.0,-0.0,-0.0,-0.0,-0.0,-0.0,-0.0,-0.0,-0.0,-0.0,-0.0,-0.0,-0.0,-0.0,-0.0,-0.0,-0.0,-0.0,-0.0,-0.0,-0.0,-0.0,-0.0,-0.0,-0.0,-0.0,-0.0,-0.0,-0.0,-0.0,-0.0,-0.0,-1.97,0.0,0.0,0.0,0.0,0.0,0.0,0.0,0.0,0.0,0.0,0.0,0.0,0.0,-1.7649,-1.7607,0.0,-1.477,0.0,-1.1611,0.0,0.0,0.0,0.0,0.0,0.0,0.0,-0.5287,-0.5503,-0.4123,-0.0202,-0.0,-0.0,-0.0,-0.0,-0.0,-0.0,-0.0,-0.0,-0.0,-0.0,-0.0,-0.0,-0.0,-0.0,-0.0,-0.0,-0.0,-0.0,-0.0,-0.0,-0.0,-0.0,-0.0,-0.0,-0.0,-0.0,-0.0,-0.0,-0.0,-0.0,-0.0,-0.0,-0.0,-0.0,-0.0,-0.0,-0.0,-0.0,-0.0,-0.0,-0.0,-0.0,-0.0,-0.0,-0.0,-0.0,-0.0,-0.0,-0.0,-0.0,-0.0,-0.0,-0.0,-0.0,-0.0,-0.0,-0.0,-0.0,-0.0,-0.0,-0.0,-0.0,-0.0,-0.0,-0.0,-0.0,-0.0,-0.0,-0.0,-0.0,-0.0,-0.0,-0.0,-0.0,-0.0,-0.0,-0.0,-0.0,-0.0,-0.0,-0.0,0.0,0.0,0.0,-1.9366,0.0,0.0,0.0,0.0,-1.9394,0.0,0.0,0.0,-1.779,-1.7564,-1.7602,-1.7605,-1.5982,0.0,0.0,0.0,0.0,0.0,0.0,0.0,0.0,0.0,0.0,-0.7949,-0.3114,-0.0206,-0.0,-0.0,-0.0,-0.0,-0.0,-0.0,-0.0,-0.0,-0.0,-0.0,-0.0,-0.0,-0.0,-0.0,-0.0,-0.0,-0.0,-0.0,-0.0,-0.0,-0.0,-0.0,-0.0,-0.0,-0.0,-0.0,-0.0,-0.0,-0.0,-0.0,-0.0,-0.0,-0.0,-0.0,-0.0,-0.0,-0.0,-0.0,-0.0,-0.0,-0.0,-0.0,-0.0,-0.0,-0.0,-0.0,-0.0,-0.0,-0.0,-0.0,-0.0,-0.0,-0.0,-0.0,-0.0,-0.0,-0.0,-0.0,-0.0,-0.0,-0.0,-0.0,-0.0,-0.0,-0.0,-0.0,-0.0,-0.0,-0.0,-0.0,-0.0,-0.0,-0.0,-0.0,-0.0,-0.0,-0.0,-0.0,-0.0,-0.0,-0.0,-0.0,0.0,0.0,-1.9366,-1.9366,0.0,0.0,0.0,0.0,0.0,0.0,0.0,0.0,0.0,-1.8187,-1.7613,-1.7649,-1.5976,-1.4288,0.0,0.0,0.0,0.0,0.0,0.0,0.0,0.0,0.0,-0.5701,-0.2121,-0.0,-0.0,-0.0,-0.0,-0.0,-0.0,-0.0,-0.0,-0.0,-0.0,-0.0,-0.0,-0.0,-0.0,-0.0,-0.0,-0.0,-0.0,-0.0,-0.0,-0.0,-0.0,-0.0,-0.0,-0.0,-0.0,-0.0,-0.0,-0.0,-0.0,-0.0,-0.0,-0.0,-0.0,-0.0,-0.0,-0.0,-0.0,-0.0,-0.0,-0.0,-0.0,-0.0,-0.0,-0.0,-0.0,-0.0,-0.0,-0.0,-0.0,-0.0,-0.0,-0.0,-0.0,-0.0,-0.0,-0.0,-0.0,-0.0,-0.0,-0.0,-0.0,-0.0,-0.0,-0.0,-0.0,-0.0,-0.0,-0.0,-0.0,-0.0,-0.0,-0.0,-0.0,-0.0,-0.0,-0.0,-0.0,-0.0,-0.0,-0.0,-0.0,-0.0,-1.9707,-1.9366,0.0,-1.9366,-1.9366,0.0,-1.9366,0.0,-1.9366,0.0,0.0,0.0,0.0,-1.8793,-1.8127,-1.7688,-1.564,-1.3614,0.0,-1.0131,0.0,0.0,0.0,0.0,0.0,-0.7715,-0.6772,-0.6122,-0.2265,-0.0,0.0,0.0,-0.0,-0.0,-0.0,-0.0,-0.0,-0.0,-0.0,-0.0,-0.0,-0.0,-0.0,-0.0,-0.0,-0.0,-0.0,-0.0,-0.0,-0.0,-0.0,-0.0,-0.0,-0.0,-0.0,-0.0,-0.0,-0.0,-0.0,-0.0,-0.0,-0.0,-0.0,-0.0,-0.0,-0.0,-0.0,-0.0,-0.0,-0.0,-0.0,-0.0,-0.0,-0.0,-0.0,-0.0,-0.0,-0.0,-0.0,-0.0,-0.0,-0.0,-0.0,-0.0,-0.0,-0.0,-0.0,-0.0,-0.0,-0.0,-0.0,-0.0,-0.0,-0.0,-0.0,-0.0,-0.0,-0.0,-0.0,-0.0,-0.0,-0.0,-0.0,-0.0,-0.0,-0.0,-0.0,-0.0,-0.0,-0.0,-0.0,-0.0]},{"header":{"parameterUnit":"m.s-1","parameterCategory":1,"la1":30.6,"la2":29.2853,"lo1":-89.7004,"lo2":-87.6739,"dy":0.0162,"dx":0.0183,"nx":112,"ny":82,"refTime":"2023-06-23T06:00:00:Z","depth":0,"parameterNumber":3,"parameterNumberName":"V-component_of_WINDS"},"data":[0.0,0.0,0.0,0.0,0.0,0.0,0.0,0.0,0.0,0.0,0.0,0.0,0.0,0.0,0.0,0.0,0.0,0.0,0.0,0.0,0.0,0.0,0.0,0.0,0.0,0.0,0.0,0.0,0.0,0.0,0.0,0.0,0.0,0.0,0.0,0.0,0.0,0.0,0.0,0.0,0.0,0.0,0.0,0.0,0.0,0.0,0.0,0.0,0.0,0.0,0.0,0.0,0.0,0.0,0.0,0.0,0.0,0.0,0.0,0.0,0.0,0.0,0.0,0.0,0.0,0.0,0.0,0.0,0.0,0.0,0.0,0.0,0.0,0.0,0.0,0.0,0.0,0.0,0.0,0.0,0.0,0.0,0.0,0.0,0.0,0.0,0.0,0.0,0.0,0.0,-4.5706,-4.563,-4.5258,-4.5011,-4.5011,-4.5011,-4.514,-4.5438,0.0,0.0,0.0,0.0,0.0,0.0,0.0,0.0,0.0,0.0,0.0,0.0,0.0,0.0,0.0,0.0,0.0,0.0,0.0,0.0,0.0,0.0,0.0,0.0,0.0,0.0,0.0,0.0,0.0,0.0,0.0,0.0,0.0,0.0,0.0,0.0,0.0,0.0,0.0,0.0,0.0,0.0,0.0,0.0,0.0,0.0,0.0,0.0,0.0,0.0,0.0,0.0,0.0,0.0,0.0,0.0,0.0,0.0,0.0,0.0,0.0,0.0,0.0,0.0,0.0,0.0,0.0,0.0,0.0,0.0,0.0,0.0,0.0,0.0,0.0,0.0,0.0,0.0,0.0,0.0,0.0,0.0,0.0,0.0,0.0,0.0,0.0,0.0,0.0,0.0,0.0,0.0,0.0,0.0,0.0,0.0,0.0,0.0,0.0,0.0,0.0,0.0,0.0,0.0,-4.5236,-4.4814,-4.4726,-4.4676,-4.4676,-4.4676,-4.4682,-4.4732,0.0,0.0,0.0,0.0,0.0,0.0,0.0,0.0,0.0,0.0,0.0,0.0,0.0,0.0,0.0,0.0,0.0,0.0,0.0,0.0,0.0,0.0,0.0,0.0,0.0,0.0,0.0,0.0,0.0,0.0,0.0,0.0,0.0,0.0,0.0,0.0,0.0,0.0,0.0,0.0,0.0,0.0,0.0,0.0,0.0,0.0,0.0,0.0,0.0,0.0,0.0,0.0,0.0,0.0,0.0,0.0,0.0,0.0,0.0,0.0,0.0,0.0,0.0,0.0,0.0,0.0,0.0,0.0,0.0,0.0,0.0,0.0,0.0,0.0,0.0,0.0,0.0,0.0,0.0,0.0,0.0,0.0,0.0,0.0,0.0,0.0,0.0,0.0,0.0,0.0,0.0,0.0,0.0,0.0,0.0,0.0,0.0,0.0,0.0,0.0,0.0,0.0,0.0,-4.5141,-4.4745,-4.4337,-4.4261,-4.4261,-4.4261,-4.4261,-4.4392,-4.4599,-4.4896,0.0,0.0,0.0,0.0,0.0,0.0,0.0,0.0,0.0,0.0,0.0,0.0,0.0,0.0,0.0,0.0,0.0,0.0,0.0,0.0,0.0,0.0,0.0,0.0,0.0,0.0,0.0,0.0,0.0,0.0,0.0,0.0,0.0,0.0,0.0,0.0,0.0,0.0,0.0,0.0,0.0,0.0,0.0,0.0,0.0,0.0,0.0,0.0,0.0,0.0,0.0,0.0,0.0,0.0,0.0,0.0,0.0,0.0,0.0,0.0,0.0,0.0,0.0,0.0,0.0,0.0,0.0,0.0,0.0,0.0,0.0,0.0,0.0,0.0,0.0,0.0,0.0,0.0,0.0,0.0,0.0,0.0,0.0,0.0,0.0,0.0,0.0,0.0,0.0,0.0,0.0,0.0,0.0,0.0,0.0,0.0,0.0,0.0,0.0,0.0,0.0,0.0,-4.4682,-4.4308,-4.3924,-4.3881,-4.3955,-4.4159,-4.4178,-4.4284,-4.4608,-4.4701,0.0,0.0,0.0,0.0,0.0,0.0,0.0,0.0,0.0,0.0,0.0,0.0,0.0,0.0,0.0,0.0,0.0,0.0,0.0,0.0,0.0,0.0,0.0,0.0,0.0,0.0,0.0,0.0,0.0,0.0,0.0,0.0,0.0,0.0,0.0,0.0,0.0,0.0,0.0,0.0,0.0,0.0,0.0,0.0,0.0,0.0,0.0,0.0,0.0,0.0,0.0,0.0,0.0,0.0,0.0,0.0,0.0,0.0,0.0,0.0,0.0,0.0,0.0,0.0,0.0,0.0,0.0,0.0,0.0,0.0,0.0,0.0,0.0,0.0,0.0,0.0,0.0,0.0,0.0,0.0,0.0,0.0,0.0,0.0,0.0,0.0,0.0,0.0,0.0,0.0,0.0,0.0,0.0,0.0,0.0,0.0,0.0,0.0,0.0,0.0,0.0,0.0,-4.429,-4.3912,-4.3563,-4.3548,-4.386,-4.4579,-4.4652,-4.4634,-4.4669,-4.4981,0.0,0.0,0.0,0.0,0.0,0.0,0.0,0.0,0.0,0.0,0.0,0.0,0.0,0.0,0.0,0.0,0.0,0.0,0.0,0.0,0.0,0.0,0.0,0.0,0.0,0.0,0.0,0.0,0.0,0.0,0.0,0.0,0.0,0.0,0.0,0.0,0.0,0.0,0.0,0.0,0.0,0.0,0.0,0.0,0.0,0.0,0.0,0.0,0.0,0.0,0.0,0.0,0.0,0.0,0.0,0.0,0.0,0.0,0.0,0.0,0.0,0.0,0.0,0.0,0.0,0.0,0.0,0.0,0.0,0.0,0.0,0.0,0.0,0.0,0.0,0.0,0.0,0.0,0.0,0.0,0.0,0.0,0.0,0.0,0.0,0.0,0.0,0.0,0.0,0.0,0.0,0.0,0.0,0.0,0.0,0.0,0.0,0.0,0.0,0.0,0.0,0.0,-4.5087,-4.5123,0.0,-4.5002,-4.5112,-4.5424,-4.5461,-4.5241,-4.4745,0.0,0.0,0.0,0.0,0.0,0.0,0.0,0.0,0.0,0.0,0.0,0.0,0.0,0.0,0.0,0.0,0.0,0.0,0.0,0.0,0.0,0.0,0.0,0.0,0.0,0.0,0.0,0.0,0.0,0.0,0.0,0.0,0.0,0.0,0.0,0.0,0.0,0.0,0.0,0.0,0.0,0.0,0.0,0.0,0.0,0.0,0.0,0.0,0.0,0.0,0.0,0.0,0.0,0.0,0.0,0.0,0.0,0.0,0.0,0.0,0.0,0.0,0.0,0.0,0.0,0.0,0.0,0.0,0.0,0.0,0.0,0.0,0.0,0.0,0.0,0.0,0.0,0.0,0.0,0.0,0.0,0.0,0.0,0.0,0.0,0.0,0.0,0.0,0.0,0.0,0.0,0.0,0.0,0.0,0.0,0.0,0.0,0.0,0.0,0.0,0.0,0.0,-4.5618,-4.578,-4.5902,0.0,-4.5902,-4.5993,-4.6269,-4.6287,-4.6049,-4.5516,0.0,0.0,0.0,0.0,0.0,0.0,0.0,0.0,0.0,0.0,0.0,0.0,0.0,0.0,0.0,0.0,0.0,0.0,0.0,0.0,0.0,0.0,0.0,0.0,0.0,0.0,0.0,0.0,0.0,0.0,0.0,0.0,0.0,0.0,0.0,0.0,0.0,0.0,0.0,0.0,0.0,0.0,0.0,0.0,0.0,0.0,0.0,0.0,0.0,0.0,0.0,0.0,0.0,0.0,0.0,0.0,0.0,0.0,0.0,0.0,0.0,0.0,0.0,0.0,0.0,0.0,0.0,0.0,0.0,0.0,0.0,0.0,0.0,0.0,0.0,0.0,0.0,0.0,0.0,0.0,0.0,0.0,0.0,0.0,0.0,0.0,0.0,0.0,0.0,0.0,0.0,0.0,0.0,0.0,0.0,0.0,0.0,0.0,0.0,0.0,0.0,0.0,-4.6411,-4.6149,-4.592,-4.592,-4.592,-4.625,-4.7076,-4.7131,-4.7131,0.0,0.0,0.0,0.0,0.0,0.0,0.0,0.0,0.0,0.0,0.0,0.0,0.0,0.0,0.0,0.0,0.0,0.0,0.0,0.0,0.0,0.0,0.0,0.0,0.0,0.0,0.0,0.0,0.0,0.0,0.0,0.0,0.0,0.0,0.0,0.0,0.0,0.0,0.0,0.0,0.0,0.0,0.0,0.0,0.0,0.0,0.0,0.0,0.0,0.0,0.0,0.0,0.0,0.0,0.0,0.0,0.0,0.0,0.0,0.0,0.0,0.0,0.0,0.0,0.0,0.0,0.0,0.0,0.0,0.0,0.0,0.0,0.0,0.0,0.0,0.0,0.0,0.0,0.0,0.0,0.0,0.0,0.0,0.0,0.0,0.0,0.0,0.0,0.0,0.0,0.0,0.0,0.0,0.0,0.0,0.0,0.0,0.0,0.0,0.0,0.0,0.0,0.0,-4.6928,-4.7298,-4.759,-4.759,-4.759,-4.77,-4.7939,-4.7957,-4.7719,-4.715,0.0,0.0,0.0,0.0,0.0,0.0,0.0,0.0,0.0,0.0,0.0,0.0,0.0,0.0,0.0,0.0,0.0,0.0,0.0,0.0,0.0,0.0,0.0,0.0,0.0,0.0,0.0,0.0,0.0,0.0,0.0,0.0,0.0,0.0,0.0,0.0,0.0,0.0,0.0,0.0,0.0,0.0,0.0,0.0,0.0,0.0,0.0,0.0,0.0,0.0,0.0,0.0,0.0,0.0,0.0,0.0,0.0,0.0,0.0,0.0,0.0,0.0,0.0,0.0,0.0,0.0,0.0,0.0,0.0,0.0,0.0,0.0,0.0,0.0,0.0,0.0,0.0,0.0,0.0,0.0,0.0,0.0,0.0,0.0,0.0,0.0,0.0,0.0,0.0,0.0,0.0,0.0,0.0,0.0,0.0,0.0,0.0,0.0,0.0,0.0,0.0,0.0,-4.7628,-4.8012,-4.8306,-4.8306,-4.8306,-4.8306,-4.8306,-4.8306,-4.8104,-4.7627,0.0,0.0,0.0,0.0,0.0,0.0,0.0,0.0,0.0,0.0,0.0,0.0,0.0,0.0,0.0,0.0,0.0,0.0,0.0,0.0,0.0,0.0,0.0,0.0,0.0,0.0,0.0,0.0,0.0,0.0,0.0,0.0,0.0,0.0,0.0,0.0,0.0,0.0,0.0,0.0,0.0,0.0,0.0,0.0,0.0,0.0,0.0,0.0,0.0,0.0,0.0,0.0,0.0,0.0,0.0,0.0,0.0,0.0,0.0,0.0,0.0,0.0,0.0,0.0,0.0,0.0,0.0,0.0,0.0,0.0,0.0,0.0,0.0,0.0,0.0,0.0,0.0,0.0,0.0,0.0,0.0,0.0,0.0,0.0,0.0,0.0,0.0,0.0,0.0,0.0,0.0,0.0,0.0,0.0,0.0,0.0,0.0,0.0,0.0,0.0,0.0,0.0,-4.8306,-4.8306,-4.8306,-4.8306,-4.8306,-4.8306,-4.8306,-4.8306,-4.8306,-4.8306,0.0,0.0,0.0,0.0,0.0,0.0,0.0,0.0,0.0,0.0,0.0,0.0,0.0,0.0,0.0,0.0,0.0,0.0,0.0,0.0,0.0,0.0,0.0,0.0,0.0,0.0,0.0,0.0,0.0,0.0,0.0,0.0,0.0,0.0,0.0,0.0,0.0,0.0,0.0,0.0,0.0,0.0,0.0,0.0,0.0,0.0,0.0,0.0,0.0,0.0,0.0,0.0,0.0,0.0,0.0,0.0,0.0,0.0,0.0,0.0,-4.663,0.0,0.0,0.0,0.0,0.0,0.0,0.0,0.0,0.0,0.0,0.0,0.0,0.0,0.0,0.0,0.0,0.0,0.0,0.0,0.0,0.0,0.0,0.0,0.0,0.0,0.0,0.0,0.0,0.0,0.0,0.0,0.0,0.0,0.0,0.0,0.0,0.0,0.0,0.0,0.0,0.0,-4.8306,-4.8306,-4.8306,-4.8306,-4.8306,-4.8306,-4.8306,-4.8306,-4.8306,-4.8306,-4.8306,0.0,0.0,0.0,0.0,0.0,0.0,0.0,0.0,0.0,0.0,0.0,0.0,0.0,0.0,0.0,0.0,0.0,0.0,0.0,0.0,0.0,0.0,0.0,0.0,0.0,0.0,0.0,0.0,0.0,0.0,0.0,0.0,0.0,0.0,0.0,0.0,0.0,0.0,0.0,0.0,0.0,0.0,0.0,0.0,0.0,0.0,0.0,0.0,0.0,0.0,0.0,0.0,0.0,0.0,0.0,0.0,0.0,0.0,0.0,0.0,-4.5752,0.0,0.0,0.0,0.0,0.0,0.0,0.0,0.0,0.0,0.0,0.0,0.0,0.0,0.0,0.0,0.0,0.0,0.0,0.0,0.0,0.0,0.0,0.0,0.0,0.0,0.0,0.0,0.0,0.0,0.0,0.0,0.0,0.0,0.0,0.0,0.0,0.0,0.0,0.0,0.0,-4.8306,-4.8306,-4.8306,-4.8306,-4.8306,-4.8306,-4.8306,-4.8306,-4.8306,-4.8306,-4.8691,0.0,0.0,0.0,0.0,0.0,0.0,0.0,0.0,0.0,0.0,0.0,0.0,0.0,0.0,0.0,0.0,0.0,0.0,0.0,0.0,0.0,0.0,0.0,0.0,0.0,0.0,0.0,0.0,0.0,0.0,0.0,0.0,0.0,0.0,0.0,0.0,0.0,0.0,0.0,0.0,0.0,0.0,0.0,0.0,0.0,0.0,0.0,0.0,0.0,0.0,0.0,0.0,0.0,-4.7486,-4.753,-4.7564,-4.8291,-4.8291,-4.7631,-4.5771,-4.4959,-4.501,-4.5635,0.0,0.0,0.0,0.0,0.0,0.0,0.0,0.0,0.0,0.0,0.0,0.0,0.0,0.0,0.0,0.0,0.0,0.0,0.0,0.0,0.0,0.0,0.0,0.0,-5.0802,-5.0517,0.0,0.0,0.0,0.0,0.0,0.0,0.0,0.0,0.0,0.0,0.0,0.0,-4.8746,-4.8746,-4.8746,-4.8746,-4.8746,-4.8746,-4.8746,-4.8746,-4.8746,-4.8746,-4.9407,-4.9793,0.0,0.0,0.0,0.0,0.0,0.0,0.0,0.0,0.0,0.0,0.0,0.0,0.0,0.0,0.0,0.0,0.0,0.0,0.0,0.0,0.0,0.0,0.0,0.0,0.0,0.0,0.0,0.0,0.0,0.0,0.0,0.0,-4.9416,-4.9011,0.0,0.0,0.0,0.0,0.0,0.0,0.0,0.0,0.0,0.0,0.0,0.0,0.0,-4.6443,-4.613,-4.5949,-4.5892,-4.5994,-4.5998,-4.5991,-4.6024,-4.6752,-4.7039,-4.6921,-4.6633,0.0,-4.6515,-4.6599,0.0,0.0,0.0,0.0,0.0,0.0,0.0,0.0,0.0,0.0,0.0,0.0,0.0,0.0,0.0,0.0,0.0,0.0,0.0,0.0,0.0,0.0,-5.0802,-5.0802,-5.0802,-5.0729,0.0,-5.0533,-5.0533,-5.0472,-5.0472,0.0,0.0,0.0,0.0,0.0,0.0,0.0,-5.0472,-5.0472,-5.0472,-5.0472,-5.0472,-5.0472,-5.0472,-5.0472,-5.0472,-5.0472,-5.0582,-5.0637,-5.0637,-5.0747,0.0,0.0,0.0,0.0,0.0,0.0,0.0,0.0,0.0,0.0,0.0,0.0,0.0,0.0,0.0,0.0,0.0,0.0,0.0,0.0,0.0,0.0,0.0,0.0,0.0,0.0,0.0,0.0,0.0,-4.8963,-4.862,-4.8102,-4.8064,-4.7828,0.0,0.0,0.0,0.0,0.0,0.0,0.0,0.0,0.0,-4.4998,-4.5306,-4.5346,-4.506,-4.5077,-4.5077,-4.5077,-4.5923,-4.6312,-4.6363,-4.7513,-4.8037,-4.8037,-4.8037,-4.8037,-4.8003,-4.7597,-4.7428,-4.7462,0.0,0.0,0.0,0.0,-4.7814,-4.7917,-4.8417,-4.8866,0.0,-4.9963,0.0,0.0,0.0,0.0,0.0,0.0,0.0,0.0,0.0,0.0,-5.216,-5.216,-5.216,-5.216,-5.216,-5.216,-5.1885,0.0,-5.0802,-5.0802,-5.0802,0.0,0.0,0.0,0.0,-5.0802,-5.0802,-5.0802,-5.0802,-5.0802,-5.0802,-5.0802,-5.0802,-5.0802,-5.0802,-5.0802,-5.1224,-5.1463,-5.1463,-5.1922,-5.216,0.0,0.0,0.0,0.0,0.0,0.0,0.0,0.0,0.0,0.0,0.0,0.0,0.0,0.0,0.0,0.0,0.0,0.0,0.0,0.0,0.0,0.0,0.0,0.0,0.0,0.0,0.0,0.0,-4.8477,-4.8075,-4.747,-4.7385,-4.715,0.0,0.0,0.0,0.0,0.0,0.0,-4.5267,-4.4869,-4.4587,-4.4587,-4.4587,-4.4587,-4.4587,-4.4587,-4.4587,-4.4604,-4.5889,-4.6616,-4.6836,-4.8139,-4.8832,-4.9001,-4.9001,-4.9001,-4.8968,-4.8426,-4.8189,-4.8257,-4.8798,-4.9001,-4.8934,-4.8392,-4.8293,-4.8472,-4.856,-4.9046,-4.9763,-5.0362,0.0,-5.1536,-5.2123,0.0,0.0,0.0,0.0,-5.3206,-5.3206,-5.3206,-5.3206,-5.3206,-5.3206,-5.3206,-5.3206,-5.3206,-5.2858,0.0,-5.1408,-5.1408,-5.1408,0.0,0.0,0.0,0.0,-5.1408,-5.1408,-5.1408,-5.1408,-5.1408,-5.1408,-5.1408,-5.1408,-5.1408,-5.1408,-5.1408,-5.1977,-5.2307,-5.2307,-5.2894,-5.3206,-5.3206,0.0,0.0,0.0,0.0,0.0,0.0,0.0,0.0,0.0,0.0,0.0,0.0,0.0,0.0,0.0,0.0,0.0,0.0,0.0,0.0,0.0,0.0,0.0,0.0,0.0,0.0,0.0,0.0,0.0,-4.747,-4.7385,0.0,0.0,0.0,0.0,-4.5563,-4.4998,-4.4626,-4.4626,-4.4626,-4.4587,-4.4587,-4.4587,-4.4587,-4.4587,-4.4587,-4.4587,-4.4587,-4.5382,-4.6126,-4.6819,-4.7614,-4.8359,-4.9001,-4.9001,-4.9001,-4.9001,-4.8968,-4.8951,-4.8951,-4.8984,-4.9001,-4.9001,-4.8968,-4.9368,-4.9964,-5.0664,-5.1369,-5.2051,-5.2766,-5.3036,-5.3096,-5.3133,-5.3188,0.0,0.0,-5.3206,-5.3206,-5.3206,-5.3206,-5.3206,-5.3206,-5.3206,-5.3206,-5.3206,-5.3206,-5.3188,0.0,-5.3096,-5.3096,-5.3096,0.0,-5.3096,-5.3096,-5.3096,-5.3096,-5.3096,-5.3096,-5.3096,-5.3096,-5.3096,-5.3096,-5.3096,-5.3096,-5.3096,-5.3096,-5.3133,-5.3151,-5.3151,-5.3188,-5.3206,-5.3206,-5.3206,0.0,0.0,0.0,0.0,0.0,0.0,0.0,0.0,0.0,0.0,0.0,0.0,0.0,0.0,0.0,0.0,0.0,0.0,0.0,0.0,0.0,0.0,0.0,0.0,0.0,0.0,0.0,0.0,-4.6892,-4.6756,0.0,-4.532,-4.5052,-4.4906,-4.4906,-4.472,-4.4587,-4.4587,-4.4587,-4.4587,-4.4587,-4.4587,-4.4587,-4.4587,-4.4587,-4.4587,-4.4587,-4.5348,-4.5838,-4.6126,-4.7361,-4.8054,-4.8342,-4.8798,-4.9001,-4.9001,-4.9001,-4.9001,-4.9001,-4.9001,-4.9001,-4.9001,-4.9001,-4.9402,-5.0033,-5.0297,-5.112,-5.2224,-5.2937,-5.3206,-5.3206,-5.3206,-5.3206,-5.3206,-5.3206,-5.3206,-5.3206,-5.3206,-5.3206,-5.3206,-5.3206,-5.3206,-5.3206,-5.3206,-5.3206,-5.3206,-5.3206,-5.3206,-5.3206,-5.3206,-5.3206,-5.3206,-5.3206,-5.3206,-5.3206,-5.3206,-5.3206,-5.3206,-5.3206,-5.3206,-5.3206,-5.3206,-5.3206,-5.3206,-5.3206,-5.3206,-5.3206,-5.3206,-5.3206,-5.3206,-5.3206,-5.3206,-5.3272,0.0,0.0,0.0,0.0,0.0,0.0,0.0,0.0,0.0,0.0,0.0,0.0,0.0,0.0,0.0,0.0,0.0,0.0,0.0,0.0,0.0,0.0,0.0,0.0,0.0,0.0,-4.7838,-4.6571,-4.6383,-4.5915,-4.472,-4.4587,-4.4587,-4.4587,-4.4587,-4.4587,-4.4587,-4.4587,-4.4587,-4.4587,-4.4587,-4.4587,-4.4587,-4.4587,-4.4587,-4.4587,-4.5094,-4.5466,-4.5737,-4.6718,-4.731,-4.7581,-4.8325,-4.8646,-4.8663,-4.89,-4.9001,-4.9001,-4.9001,-4.9001,-4.9001,-4.9256,-4.978,-5.0445,-5.0929,-5.171,-5.2554,-5.3042,-5.3206,-5.3206,-5.3206,-5.3206,-5.3206,-5.3206,-5.3206,-5.3206,-5.3206,-5.3206,-5.3206,-5.3206,-5.3206,-5.3206,-5.3206,-5.3206,-5.3206,-5.3206,-5.3206,-5.3206,-5.3206,-5.3206,-5.3206,-5.3206,-5.3206,-5.3206,-5.3206,-5.3206,-5.3206,-5.3206,-5.3206,-5.3206,-5.3206,-5.3206,-5.3206,-5.3206,-5.3206,-5.3206,-5.3206,-5.3206,-5.3206,-5.3206,-5.3318,-5.3545,-5.3833,0.0,0.0,0.0,0.0,0.0,0.0,0.0,0.0,0.0,0.0,0.0,0.0,0.0,0.0,0.0,0.0,0.0,0.0,0.0,0.0,0.0,0.0,0.0,-4.8196,-4.8306,-4.7838,-4.6571,-4.6383,-4.5915,-4.472,-4.4587,-4.4587,-4.4587,-4.4587,-4.4587,-4.4587,-4.4587,-4.4587,-4.4587,-4.4587,-4.4587,-4.4587,-4.4587,-4.4587,-4.4587,-4.4587,-4.4959,-4.5669,-4.5703,-4.6092,-4.6802,-4.7564,-4.7902,-4.797,-4.868,-4.8984,-4.9001,-4.9001,-4.9001,-4.9107,-4.978,-5.05,-5.1361,-5.2725,-5.3206,-5.3206,-5.3206,-5.3206,-5.3206,-5.3206,-5.3206,-5.3206,-5.3206,-5.3206,-5.3206,-5.3206,-5.3206,-5.3206,-5.3206,-5.3206,-5.3206,-5.3206,-5.3206,-5.3206,-5.3206,-5.3206,-5.3206,-5.3206,-5.3206,-5.3206,-5.3206,-5.3206,0.0,-5.3206,-5.3206,-5.3206,-5.3206,-5.3206,-5.3206,-5.3206,-5.3206,-5.3206,-5.3206,-5.3206,-5.3206,-5.3206,-5.3206,-5.3248,-5.3248,-5.3624,-5.4217,-5.5088,0.0,0.0,0.0,0.0,0.0,0.0,0.0,0.0,0.0,0.0,0.0,0.0,0.0,0.0,0.0,0.0,0.0,0.0,0.0,0.0,0.0,0.0,-4.6709,-4.8104,-4.8306,-4.7838,-4.6571,-4.6383,-4.5915,-4.472,-4.4587,-4.4587,-4.4587,-4.4587,-4.4587,-4.4587,-4.4587,-4.4587,-4.4587,-4.4587,-4.4587,-4.4587,-4.4587,-4.4587,-4.4587,-4.4587,-4.4688,-4.4908,-4.5449,-4.5821,-4.6041,-4.6786,-4.7411,-4.7936,-4.8139,-4.8779,-4.9664,-4.9212,-4.9316,-4.978,-4.9919,-5.0752,-5.197,-5.2893,-5.3206,-5.3206,-5.3206,-5.3206,-5.3206,-5.3206,-5.3206,-5.3206,-5.3206,-5.3206,-5.3206,-5.3206,-5.3206,-5.3206,-5.3206,-5.3206,-5.3206,-5.3206,-5.3206,-5.3206,-5.3206,-5.3206,-5.3206,-5.3206,-5.3206,-5.3206,-5.3206,-5.3206,0.0,-5.3206,-5.3206,-5.3206,-5.3206,-5.3206,-5.3206,-5.3206,-5.3206,-5.3206,-5.3206,-5.3206,-5.3336,-5.3624,-5.3624,-5.3814,-5.4156,-5.4274,-5.4579,0.0,0.0,0.0,0.0,0.0,0.0,0.0,0.0,0.0,0.0,0.0,0.0,0.0,0.0,0.0,0.0,0.0,0.0,0.0,0.0,0.0,0.0,-4.5406,-4.5847,-4.7131,-4.759,-4.7445,-4.6427,-4.6376,-4.6014,-4.5089,-4.4776,-4.4587,-4.4587,-4.4587,-4.4587,-4.4587,-4.4587,-4.4587,-4.4587,-4.4587,-4.4587,-4.4587,-4.4587,-4.4587,-4.4587,-4.4587,-4.4587,-4.4587,-4.5026,-4.5229,0.0,-4.6007,-4.6583,-4.7005,-4.7554,-4.8472,0.0,0.0,0.0,0.0,0.0,-5.1593,-5.2599,-5.3042,-5.3206,-5.3206,-5.3206,-5.3206,-5.3206,-5.3206,-5.3206,-5.3206,-5.3206,-5.3206,-5.3206,-5.3206,-5.3206,-5.3206,-5.3206,-5.3206,-5.3206,-5.3206,-5.3206,-5.3206,-5.3206,-5.3206,0.0,-5.3206,-5.3206,-5.3206,-5.3206,-5.3206,-5.3206,-5.3206,-5.3206,-5.3206,-5.3206,-5.3206,-5.3206,-5.3206,-5.3206,0.0,0.0,0.0,-5.3643,-5.4083,-5.4083,0.0,0.0,0.0,-5.4952,-5.5356,0.0,0.0,0.0,-5.5703,-5.5703,0.0,0.0,0.0,0.0,0.0,0.0,0.0,0.0,0.0,0.0,0.0,0.0,0.0,0.0,0.0,0.0,-4.4597,-4.4819,-4.5535,-4.6324,-4.6667,-4.6127,-4.6257,-4.6116,-4.5424,-4.4947,-4.4682,-4.4643,-4.4587,-4.4587,-4.4587,0.0,0.0,0.0,0.0,-4.4587,-4.4587,-4.4587,-4.4587,-4.4587,-4.4587,-4.4587,-4.4587,-4.4587,-4.4587,-4.4621,-4.5377,-4.5716,-4.5892,-4.7182,-4.8167,-4.9094,-4.9893,-5.0662,-5.1292,-5.1952,-5.2662,-5.3206,-5.3206,0.0,0.0,-5.3206,-5.3206,-5.3206,-5.3206,-5.3206,-5.3206,-5.3206,-5.3206,-5.3206,-5.3206,-5.3206,-5.3206,-5.3206,-5.3206,-5.3206,-5.3206,-5.3206,-5.3206,-5.3206,-5.3206,-5.3206,-5.3206,-5.3206,-5.3206,-5.3206,-5.3206,-5.3206,-5.3206,-5.3206,-5.3206,-5.3206,0.0,0.0,-5.3206,-5.3206,-5.3206,-5.3272,-5.3683,-5.4134,-5.4566,-5.4609,-5.479,-5.516,-5.516,-5.5331,-5.5703,-5.5703,-5.5703,-5.5703,-5.5703,-5.5703,0.0,0.0,0.0,0.0,0.0,0.0,0.0,0.0,0.0,0.0,0.0,0.0,0.0,0.0,0.0,-4.4116,-4.3919,-4.3773,-4.3938,-4.4654,-4.5187,-4.5224,-4.5816,-4.5802,-4.4626,-4.4993,-4.5142,-4.4626,-4.4587,-4.4587,-4.4587,-4.4587,-4.4587,-4.4587,-4.4587,-4.4587,-4.4587,-4.4587,-4.4587,-4.4587,0.0,0.0,-4.4587,-4.4587,-4.4587,-4.4643,-4.5243,-4.5889,-4.6495,-4.7296,-4.8387,-4.9722,-5.1137,-5.179,-5.2,-5.2725,-5.3103,-5.3206,-5.3206,-5.3206,-5.3206,-5.3206,-5.3206,-5.3206,-5.3206,-5.3206,0.0,-5.3206,-5.3206,-5.3206,-5.3206,-5.3206,-5.3206,-5.3206,-5.3206,-5.3206,-5.3206,-5.3206,-5.3206,-5.3206,-5.3206,-5.3206,-5.3206,-5.3206,-5.3206,-5.3206,-5.3206,-5.3206,-5.3206,-5.3206,-5.3206,-5.3206,-5.3206,-5.3206,-5.3206,-5.3206,-5.3336,-5.3663,-5.4433,-5.4876,-5.4979,-5.5306,-5.5512,-5.5577,-5.5577,-5.5621,-5.5703,-5.5703,-5.5703,-5.5703,-5.5703,-5.5703,0.0,0.0,0.0,0.0,0.0,0.0,0.0,0.0,0.0,0.0,0.0,-4.5052,0.0,0.0,-4.4233,-4.4028,-4.3849,-4.3693,-4.3513,-4.3846,-4.4272,-4.478,-4.5269,-4.5347,-4.4696,-4.4724,-4.4657,-4.4453,-4.4451,-4.4514,-4.4609,-4.4587,-4.4587,-4.4587,-4.4587,-4.4587,-4.4587,-4.4587,-4.4587,-4.4587,-4.4587,-4.4587,-4.4626,-4.4906,-4.5052,-4.5089,-4.5681,-4.6175,-4.656,-4.7648,-4.8722,-4.9786,-5.0987,-5.1715,-5.216,-5.2914,-5.3206,-5.3206,-5.3206,-5.3206,-5.3206,-5.3206,-5.3206,-5.3206,-5.3206,-5.3206,-5.3206,-5.3206,-5.3206,-5.3206,-5.3206,-5.3206,-5.3206,-5.3206,-5.3206,-5.3206,-5.3206,-5.3206,-5.3206,-5.3206,-5.3206,-5.3206,-5.3206,-5.3206,-5.3206,-5.3206,-5.3206,-5.3206,-5.3206,-5.3206,-5.3206,-5.3206,-5.3206,-5.3206,-5.3206,-5.3381,-5.3758,-5.4414,-5.4876,-5.5186,-5.5399,-5.5599,-5.5703,-5.5703,-5.5703,-5.5703,-5.5703,-5.5703,-5.5703,-5.5703,-5.6145,-5.6107,0.0,0.0,0.0,0.0,0.0,0.0,0.0,0.0,-4.5586,-4.5586,-4.54,-4.5201,-4.5201,-4.4919,-4.4606,-4.4261,-4.4087,-4.3912,-4.3664,-4.3548,-4.3736,-4.4397,-4.4744,-4.4885,-4.4804,-4.4436,-4.4195,-4.4257,-4.4242,-4.4405,-4.4687,-4.4739,-4.4807,-4.4944,-4.4814,-4.4814,-4.4961,-4.4814,-4.4814,-4.4944,-4.4944,-4.4944,-4.4961,-4.5459,-4.5681,-4.5681,-4.6336,-4.6664,-4.6855,-4.8027,-4.8839,-4.9426,-5.0233,-5.0949,-5.1646,-5.2619,-5.2968,-5.3004,-5.317,-5.3206,-5.3206,-5.3206,-5.3206,-5.3206,-5.3206,-5.3206,-5.3206,-5.3206,-5.3206,-5.3206,-5.3206,-5.3206,-5.3206,-5.3206,-5.3206,-5.3206,-5.3206,-5.3206,-5.3206,-5.3206,-5.3206,-5.3206,-5.3206,-5.3206,-5.3206,-5.3206,-5.3206,-5.3206,-5.3206,-5.3206,-5.3206,-5.3206,-5.3272,-5.3359,-5.3422,-5.3833,-5.435,-5.5061,-5.5186,-5.5356,-5.5703,-5.5703,-5.5703,-5.5703,-5.5703,-5.5703,-5.5703,-5.5703,-5.578,-5.5972,-5.6665,-5.6607,-4.594,-4.5901,-4.5901,-4.5901,-4.5847,-4.5802,0.0,0.0,-4.5586,-4.5586,-4.5568,-4.5531,-4.5531,-4.5263,-4.503,-4.4988,-4.4409,-4.3986,-4.3955,-4.3712,-4.3516,-4.3608,-4.4306,-4.4509,-4.3992,-4.4525,-4.4646,-4.4054,-4.4008,-4.436,-4.5117,-4.5153,-4.547,-4.6174,-4.5681,-4.5648,-4.6192,-4.5699,-4.5699,-4.6192,-4.6192,-4.6192,-4.6192,-4.6288,-4.6288,-4.6336,-4.6999,-4.7614,-4.8075,-4.8263,-4.8357,-4.8526,-4.9334,-4.9738,-5.0031,-5.1555,-5.2123,-5.2234,-5.2968,-5.3206,-5.3206,-5.3206,-5.3206,-5.3206,-5.3206,-5.3206,-5.3206,-5.3206,-5.3206,-5.3206,-5.3206,-5.3206,-5.3206,-5.3206,-5.3206,-5.3206,-5.3206,-5.3206,-5.3206,-5.3206,-5.3206,-5.3206,-5.3206,-5.3206,-5.3206,-5.3206,-5.3206,-5.3206,-5.3206,-5.3206,-5.3206,-5.3206,-5.3505,-5.3888,-5.4307,-5.4731,-5.5007,-5.5088,-5.5423,-5.5662,-5.5703,-5.5703,-5.5703,-5.5703,-5.5703,-5.5703,-5.5703,-5.5703,-5.6088,-5.6857,-5.6934,-5.6934,-4.614,-4.612,-4.612,0.0,-4.605,-4.5955,-4.587,-4.5776,-4.5699,-4.5605,-4.5586,-4.5586,-4.5586,-4.5495,-4.5322,0.0,-4.4853,-4.4489,-4.4058,-4.3881,-4.3726,-4.3513,-4.3791,-4.3904,-4.367,-4.3925,-4.4044,-4.3913,-4.3888,-4.4057,-4.4491,-4.4498,-4.4898,-4.5676,-4.5475,-4.5686,-4.6365,-4.6143,-4.6143,-4.6383,-4.6383,-4.6383,-4.6413,-4.6801,-4.7176,-4.7512,-4.7797,-4.8075,-4.8306,-4.8306,-4.8306,-4.8343,-4.8673,-4.882,-4.904,-5.0692,-5.1591,-5.205,-5.238,-5.2821,-5.3206,-5.3206,-5.3206,-5.3206,-5.3206,-5.3206,-5.3206,-5.3206,-5.3206,-5.3206,-5.3206,-5.3206,-5.3206,-5.3206,-5.3206,-5.3206,-5.3206,-5.3206,-5.3206,-5.3206,-5.3206,-5.3206,-5.3206,-5.3381,-5.3545,-5.3545,-5.3359,-5.3206,-5.3206,-5.3422,-5.3643,-5.3925,-5.4102,-5.4387,-5.4819,-5.5007,-5.5186,-5.5423,-5.5599,-5.5703,-5.5703,-5.5703,-5.5703,-5.5703,-5.5703,-5.5953,-5.6453,-5.6453,-5.6896,-5.7761,-5.8242,-5.8454,-4.623,0.0,0.0,-4.6289,-4.6191,-4.6063,-4.5986,-4.5881,-4.5796,-4.5699,-4.568,-4.5643,-4.5643,-4.5605,-4.5513,-4.5282,-4.5159,-4.49,-4.4401,-4.4233,-4.4016,-4.3679,-4.3646,-4.3597,-4.3532,-4.3497,-4.3559,-4.3699,-4.3697,-4.3866,-4.4192,-4.4185,-4.4543,-4.5372,-4.5214,-4.5588,-4.657,-4.6435,-4.6542,-4.6937,-4.6937,-4.6937,-4.6937,-4.7428,-4.7897,-4.8306,-4.8306,-4.8306,-4.8306,-4.8306,-4.8306,-4.8306,-4.8306,-4.8306,-4.8453,-4.9664,-5.0618,-5.1389,-5.1848,-5.238,-5.2913,-5.3133,-5.3206,-5.3206,-5.3206,-5.3206,-5.3206,-5.3206,-5.3206,-5.3206,-5.3206,-5.3206,-5.3206,-5.3206,-5.3206,-5.3248,-5.3318,-5.3359,-5.3381,-5.3524,-5.3563,-5.3563,-5.3563,-5.3814,-5.3977,-5.3977,-5.3758,-5.3563,-5.3563,-5.3796,-5.4187,-5.4609,-5.4689,-5.4838,-5.5237,-5.5282,-5.5399,-5.5684,-5.5703,-5.5703,-5.5703,-5.5703,-5.5703,-5.5703,-5.5934,-5.6357,-5.6992,-5.7242,-5.78,-5.8646,-5.9223,-5.9627,0.0,0.0,-4.6133,-4.6269,-4.6191,-4.6094,-4.6093,-4.5998,-4.5911,-4.5892,-4.5834,-4.5796,-4.5796,-4.5699,-4.5586,-4.5586,-4.5322,-4.5096,-4.5074,-4.48,-4.4447,-4.4028,-4.3967,-4.3849,0.0,-4.3497,-4.3497,-4.3516,-4.3516,-4.3848,-4.4619,-4.4674,-4.5058,-4.5865,-4.5316,-4.5657,-4.7056,-4.649,-4.6912,-4.8249,-4.8249,-4.8249,-4.8249,-4.8267,-4.8267,-4.8306,-4.8306,-4.8306,-4.8306,-4.8306,-4.8306,-4.8306,-4.8306,-4.8306,-4.8324,-4.8361,-4.893,-4.9884,-5.1444,-5.2013,-5.216,-5.2949,-5.3206,-5.3206,-5.3206,-5.3206,-5.3206,-5.3206,-5.3206,-5.3206,-5.3206,-5.3206,-5.3206,-5.3206,-5.3206,-5.3295,-5.3683,-5.3777,-5.3924,-5.4355,-5.4471,-5.4471,-5.4471,-5.4471,-5.4471,-5.4471,-5.4471,-5.4471,-5.4471,-5.4471,-5.464,-5.5034,-5.5088,-5.5237,-5.564,-5.5684,-5.5703,-5.5703,-5.5703,-5.5703,-5.5703,-5.5703,-5.5703,-5.5703,-5.653,-5.6953,-5.6992,-5.7857,-5.8684,-5.9454,-5.9492,-5.9954,-4.5956,0.0,-4.5981,-4.602,-4.6075,-4.6074,-4.5996,-4.5994,-4.6001,-4.5917,-4.5883,-4.5867,-4.5866,-4.5796,-4.5738,-4.5738,-4.5571,-4.5342,-4.5118,-4.4988,-4.4781,-4.4447,-4.4419,0.0,0.0,0.0,0.0,-4.3497,-4.3497,-4.3608,-4.3883,-4.3901,-4.4268,-4.5076,-4.4894,-4.5278,-4.6305,-4.6082,-4.6503,-4.7517,-4.8049,-4.8306,-4.8306,-4.8306,-4.8306,-4.8306,-4.8306,-4.8306,-4.8306,-4.8306,-4.8306,-4.8306,-4.8306,-4.8306,-4.8306,-4.8306,-4.8489,-4.8893,-5.0013,-5.1096,-5.2032,-5.2307,-5.2766,-5.3206,-5.3206,-5.3206,-5.3206,-5.3206,-5.3206,-5.3206,-5.3206,-5.3206,-5.3206,-5.3206,-5.3422,-5.3624,-5.3777,-5.4048,-5.4322,-5.4471,-5.4503,-5.4503,-5.4503,-5.4701,-5.4979,-5.5256,-5.4819,-5.4597,-5.4848,-5.4895,-5.5061,-5.5466,-5.5489,-5.5535,-5.5703,-5.5703,-5.5703,-5.5703,-5.5703,-5.5703,-5.5703,-5.6261,-5.6549,-5.6549,-5.7415,-5.8127,-5.8665,-5.8954,-5.9531,-6.0358,-6.0358,-6.0512,-4.5836,-4.5853,-4.5871,-4.5891,-4.5968,-4.6016,-4.5975,-4.6035,-4.6091,-4.6041,-4.6,-4.5969,-4.5977,-4.5866,-4.5796,-4.5813,-4.5699,-4.5513,-4.5322,-4.5282,-4.514,-4.4825,-4.4776,-4.4732,0.0,0.0,0.0,-4.3712,-4.3563,-4.3497,-4.3497,-4.3497,-4.3736,-4.425,-4.4268,-4.4654,-4.5461,-4.548,-4.5883,-4.6691,-4.7498,-4.7884,-4.7884,-4.8177,-4.8306,-4.8306,-4.8306,-4.8306,-4.8306,-4.8306,-4.8306,-4.8306,-4.8306,-4.8306,-4.8306,-4.8306,-4.8306,-4.8416,-4.9297,-5.027,-5.1224,-5.1793,-5.2344,-5.2821,-5.3115,-5.3206,-5.3206,-5.3206,-5.3206,-5.3206,-5.3206,-5.3206,-5.3206,-5.3206,-5.3505,-5.3851,-5.4013,-5.442,-5.4779,-5.4895,-5.4924,-5.4924,-5.4924,-5.516,-5.5399,-5.5662,-5.5256,-5.5034,-5.5282,-5.5306,-5.5423,-5.5662,-5.5703,-5.5703,-5.5703,-5.5703,-5.5703,-5.5703,-5.5703,-5.5838,-5.6145,-5.6684,-5.7146,-5.7453,-5.83,-5.8973,-5.9492,-5.9819,-6.0242,-6.08,-6.08,-6.08,-4.5667,-4.5796,-4.5815,-4.5873,-4.5892,-4.5926,-4.6066,-4.6093,-4.6132,-4.6269,-4.6191,-4.6094,0.0,0.0,-4.5815,-4.5808,-4.5699,-4.5605,-4.5586,-4.5586,-4.5495,0.0,0.0,0.0,0.0,0.0,0.0,-4.4087,0.0,-4.3548,-4.3513,-4.3513,-4.3513,-4.3497,-4.3513,-4.3881,-4.4671,-4.4726,-4.5076,-4.5847,-4.6654,-4.7076,-4.715,-4.7902,-4.8269,-4.8344,-4.8344,-4.8344,-4.8344,-4.8344,-4.8306,-4.8306,-4.8306,-4.8306,-4.8306,-4.8306,-4.8306,-4.8416,-4.9242,-4.9536,-4.9829,-5.1371,-5.1922,-5.2142,-5.2936,-5.3212,-5.3248,-5.3272,-5.3272,-5.3272,-5.3272,-5.3272,-5.3272,-5.3272,-5.3565,-5.3977,-5.442,-5.4867,-5.5237,-5.564,-5.5703,-5.5703,-5.5703,-5.5703,-5.5703,-5.5703,-5.5703,-5.5703,-5.5703,-5.5703,-5.5703,-5.5703,-5.5703,-5.5703,-5.5703,-5.5703,-5.5703,-5.5703,-5.5742,-5.6126,-5.6953,-5.7069,-5.7511,-5.8357,-5.9146,-5.9569,-5.9569,-6.0396,-6.08,-6.08,-6.08,-6.08,-4.5551,-4.5643,-4.5643,-4.568,-4.5757,-4.5828,-4.5866,-4.592,-4.5991,-4.6111,-4.6113,-4.6133,0.0,0.0,0.0,-4.5893,-4.5796,0.0,-4.5605,-4.5586,0.0,-4.5495,0.0,-4.5438,-4.5362,-4.5118,0.0,0.0,-4.4527,-4.4194,-4.3881,-4.3881,-4.3758,-4.3532,-4.3758,-4.3974,-4.4196,-4.4758,-4.5038,-4.5021,-4.5828,-4.6526,-4.7131,-4.7333,-4.7887,-4.8744,-4.8744,-4.8744,-4.8744,-4.8744,-4.8568,-4.8306,-4.8306,-4.8306,-4.8306,-4.8306,-4.8306,-4.8343,-4.8545,-4.9058,-4.9646,-5.0068,-5.1004,-5.2077,-5.2602,-5.318,-5.3739,-5.4067,-5.4171,-5.4171,-5.4171,-5.4171,-5.4171,-5.4171,-5.4484,-5.48,-5.4905,-5.5262,-5.5577,-5.5684,-5.5703,-5.5703,-5.5703,-5.5703,-5.5703,-5.5703,-5.5703,-5.5703,-5.5703,-5.5703,-5.5703,-5.5703,-5.5703,-5.5703,-5.5703,-5.5703,-5.5703,-5.5703,-5.6299,-5.6761,-5.6973,-5.8204,-5.8973,-5.9184,-6.0031,-6.0473,-6.0473,-6.0685,-6.08,-6.08,-6.08,-6.08,-4.5476,-4.5586,-4.5586,-4.5586,-4.5643,-4.5738,-4.5796,-4.5819,-4.5883,-4.5994,-4.6066,0.0,-4.6191,-4.6152,0.0,0.0,0.0,0.0,-4.5699,-4.5699,-4.568,0.0,-4.5586,0.0,-4.5586,-4.5419,-4.5322,0.0,-4.4872,-4.4501,-4.428,-4.4261,-4.4165,-4.3992,-4.4165,-4.4261,-4.4261,-4.4711,-4.4838,-4.4668,-4.5467,-4.6099,-4.6531,-4.6699,-4.7361,-4.836,0.0,-4.8561,-4.893,-4.9075,-4.9029,-4.8813,-4.8813,-4.8728,-4.8568,-4.8568,-4.8568,-4.8568,-4.8568,-4.9008,-4.9542,-4.9581,-5.0435,-5.1621,-5.2382,-5.3144,-5.3905,-5.4355,-5.4503,-5.4503,-5.4503,-5.4503,-5.4503,-5.4503,-5.4809,-5.5088,-5.5088,-5.5423,-5.5703,-5.5703,-5.5703,-5.5703,-5.5703,-5.5703,-5.5703,-5.5703,-5.5703,-5.5703,-5.5703,-5.5703,-5.5703,-5.5703,-5.5703,-5.5703,-5.5703,-5.5703,-5.5703,-5.5703,-5.6511,-5.7165,-5.755,-5.8819,-5.9685,-6.0069,-6.055,-6.08,-6.08,-6.08,-6.08,-6.08,-6.08,-6.08,-4.5419,-4.5586,-4.5586,-4.5586,-4.5586,-4.5624,-4.5757,-4.5776,-4.5796,-4.5873,0.0,-4.6087,-4.6094,-4.6113,-4.6113,-4.6094,0.0,-4.5905,-4.5822,-4.5811,-4.5776,-4.5624,-4.5624,-4.5605,-4.5586,-4.5586,-4.5586,-4.5586,-4.5055,-4.4707,-4.4657,-4.4676,-4.4676,-4.4676,-4.4676,-4.4676,-4.4676,-4.4676,-4.4631,-4.4624,-4.5315,-4.5704,-4.5808,-4.6139,-4.6874,-4.7852,-4.7847,0.0,-4.9075,-4.9445,-4.9532,-4.9504,-4.9504,-4.9295,-4.8996,-4.8996,-4.8996,-4.8996,-4.8996,-4.9202,-4.9518,-4.9582,-5.0116,-5.1025,-5.2246,-5.3136,-5.3933,-5.451,-5.464,-5.464,-5.464,-5.464,-5.464,-5.464,-5.4924,-5.5186,-5.5186,-5.5446,-5.5703,-5.5703,-5.5703,-5.5703,-5.5703,-5.5703,-5.5703,-5.5703,-5.5703,-5.5703,-5.5703,-5.5703,-5.5703,-5.5703,-5.5703,-5.5703,-5.5703,-5.5703,-5.5742,-5.5857,-5.6684,-5.755,-5.8415,-5.9242,-6.0031,-6.0781,-6.08,-6.08,-6.08,-6.08,-6.08,-6.08,-6.08,-6.08,-4.5419,-4.5586,-4.5586,-4.5586,-4.5586,-4.5605,-4.5624,-4.5624,0.0,0.0,-4.5873,-4.5972,-4.6087,-4.6191,-4.623,-4.6113,-4.6087,-4.6021,-4.5901,-4.5868,-4.5853,0.0,-4.5776,-4.5719,-4.5605,0.0,0.0,0.0,0.0,-4.5322,-4.503,-4.5011,-4.5011,-4.5011,-4.5011,-4.5011,-4.5011,-4.5011,-4.4872,-4.458,-4.4731,-4.5164,-4.5817,-4.5866,-4.6898,-4.8599,-4.8599,0.0,-4.9898,-4.9974,-4.98,-4.9504,-4.9504,-4.9445,-4.9386,-4.9386,-4.9386,-4.9386,-4.9386,-4.9445,-4.9493,-4.9495,-5.0053,-5.0955,-5.2228,-5.3147,-5.402,-5.5164,-5.5489,-5.5489,-5.5489,-5.5489,-5.5489,-5.5489,-5.5554,-5.5599,-5.5599,-5.5662,-5.5703,-5.5703,-5.5703,-5.5703,-5.5703,-5.5703,-5.5703,-5.5703,-5.5703,-5.5703,-5.5703,-5.5703,-5.5703,-5.5703,-5.5703,-5.5703,-5.5703,-5.5703,-5.6011,-5.6722,-5.7588,-5.8434,-5.9261,-6.0127,-6.0646,-6.08,-6.08,-6.08,-6.08,-6.08,-6.08,-6.08,-6.08,-6.08,-4.5419,-4.5586,-4.5586,-4.5586,-4.5586,-4.5586,-4.5586,0.0,0.0,0.0,-4.5796,-4.5931,-4.5988,-4.6163,0.0,-4.6211,-4.6191,-4.617,-4.6023,-4.5995,0.0,-4.5819,-4.5803,-4.5757,0.0,0.0,0.0,0.0,0.0,-4.5531,-4.5362,-4.5362,-4.5362,-4.5362,-4.5362,-4.5362,-4.5362,-4.5362,-4.5263,-4.5118,-4.5118,-4.5328,-4.5687,-4.5527,-4.6193,-4.7514,-4.7976,0.0,-4.9463,-5.0144,-5.0313,-5.0116,-5.0116,-5.0019,-4.98,-4.98,-4.98,-4.98,-4.98,-4.9949,-5.0116,-5.0116,-5.0396,-5.094,-5.2208,-5.3143,-5.4053,-5.5327,-5.5703,-5.5703,-5.5703,-5.5703,-5.5703,-5.5703,-5.5703,-5.5703,-5.5703,-5.5703,-5.5703,-5.5703,-5.5703,-5.5703,-5.5703,-5.5703,-5.5703,-5.5703,-5.5703,-5.5703,-5.5703,-5.5703,-5.5703,-5.5703,-5.5703,-5.5703,-5.5703,-5.5703,-5.6069,-5.6934,-5.7819,-5.8665,-5.9473,-6.0339,-6.08,-6.08,-6.08,-6.08,-6.08,-6.08,-6.08,-6.08,-6.08,-6.08,-4.5243,-4.5495,-4.5586,-4.5513,-4.555,-4.5586,-4.5586,-4.5586,0.0,-4.5586,-4.5757,-4.5908,-4.5891,-4.6117,-4.6308,0.0,-4.6308,-4.6269,-4.6152,-4.6133,-4.6061,0.0,-4.5838,0.0,-4.5643,0.0,0.0,0.0,0.0,0.0,-4.5586,-4.5586,-4.5586,-4.5586,-4.5586,-4.5586,-4.5586,-4.5586,-4.5586,-4.5586,-4.5586,-4.5586,-4.5586,-4.5322,-4.566,-4.6459,-4.7152,0.0,0.0,-5.0008,-5.0529,-5.0702,-5.0702,-5.0504,-5.0225,-5.0225,-5.0225,-5.0225,-5.0225,-5.044,-5.0702,-5.0702,-5.0688,-5.0957,-5.2316,-5.3173,-5.3962,-5.5311,-5.5703,-5.5703,-5.5703,-5.5703,-5.5703,-5.5703,-5.5703,-5.5703,-5.5703,-5.5703,-5.5703,-5.5703,-5.5703,-5.5703,-5.5703,-5.5703,-5.5703,-5.5703,-5.5703,-5.5703,-5.5703,-5.5703,-5.5703,-5.5703,-5.5703,-5.5703,-5.5703,-5.5857,-5.6338,-5.7223,-5.8088,-5.8915,-5.9742,-6.0435,-6.08,-6.08,-6.08,-6.08,-6.08,-6.08,-6.08,-6.08,-6.08,-6.08,-4.4676,-4.514,-4.5513,-4.5222,-4.5362,-4.5586,-4.5586,0.0,-4.5586,-4.5586,-4.5757,-4.5908,-4.5891,-4.6117,-4.6308,0.0,0.0,-4.6308,-4.6289,-4.6289,-4.623,-4.6091,0.0,0.0,-4.5796,0.0,0.0,0.0,0.0,0.0,-4.5586,-4.5586,-4.5586,-4.5586,-4.5586,-4.5586,-4.5586,-4.5586,-4.5586,-4.5586,-4.5586,-4.5586,-4.5586,-4.5568,-4.6031,-4.6857,-4.6934,0.0,0.0,-4.9471,-4.999,-5.0702,-5.0702,-5.0683,-5.0624,-5.0624,-5.0624,-5.0624,-5.0624,-5.0663,-5.0702,-5.0702,-5.0702,-5.1008,-5.2661,-5.32,-5.3603,-5.5241,-5.5703,-5.5703,-5.5703,-5.5703,-5.5703,-5.5703,-5.5703,-5.5703,-5.5703,-5.5703,-5.5703,-5.5703,-5.5703,-5.5703,-5.5703,-5.5703,-5.5703,-5.5703,-5.5703,-5.5703,-5.5703,-5.5703,-5.5703,-5.5703,-5.5703,-5.5703,-5.5703,-5.6415,-5.7242,-5.8127,-5.8934,-5.9781,-6.0646,-6.0762,-6.08,-6.08,-6.08,-6.08,-6.08,-6.08,-6.08,-6.08,-6.08,-6.08,-4.4527,-4.4781,-4.5011,-4.5074,-4.5201,-4.5342,-4.5568,0.0,-4.5586,-4.5586,-4.5757,-4.5908,-4.5891,-4.6117,-4.6308,0.0,0.0,0.0,-4.6308,-4.6308,-4.6226,-4.6002,-4.593,0.0,0.0,0.0,0.0,0.0,0.0,0.0,-4.5586,-4.5586,-4.5586,-4.5586,-4.5586,-4.5586,-4.5586,-4.5586,-4.5586,-4.5586,-4.5586,-4.5586,-4.5586,-4.5586,-4.5778,-4.6144,-4.6682,0.0,0.0,-4.9183,-4.9913,-5.0702,-5.0702,-5.0702,-5.0702,-5.0702,-5.0702,-5.0702,-5.0702,-5.0702,-5.0702,-5.0702,-5.0702,-5.0914,-5.2068,-5.2779,-5.3453,-5.4645,-5.5318,-5.5703,-5.5703,-5.5703,-5.5703,-5.5703,-5.5703,-5.5703,-5.5703,-5.5703,-5.5703,-5.5703,-5.5703,-5.5703,-5.5703,-5.5703,-5.5703,-5.5703,-5.5703,-5.5703,-5.5703,-5.5703,-5.5703,-5.5703,-5.5703,-5.5703,-5.5703,-5.6492,-5.7357,-5.8242,-5.9069,-5.9896,-6.0762,-6.08,-6.08,-6.08,-6.08,-6.08,-6.08,-6.08,-6.08,-6.08,-6.08,-6.08,-4.4392,-4.458,-4.4781,-4.4919,-4.5096,-4.5322,0.0,0.0,-4.5605,-4.5643,-4.5796,-4.5915,-4.5956,-4.6153,-4.6308,0.0,0.0,-4.6308,-4.6308,-4.6267,-4.617,0.0,0.0,0.0,0.0,0.0,0.0,0.0,0.0,0.0,-4.5586,-4.5586,-4.5586,-4.5586,-4.5586,-4.5586,-4.5586,-4.5586,-4.5586,-4.5586,-4.5586,-4.5586,-4.5586,-4.5586,-4.5586,-4.5624,-4.624,0.0,0.0,-4.8663,-4.9529,-5.0337,-5.0587,-5.0702,-5.0702,-5.0702,-5.0702,-5.0702,-5.0702,-5.0702,-5.0702,-5.0702,-5.0702,-5.0798,-5.1375,-5.2318,-5.3376,-5.4241,-5.5068,-5.5703,-5.5703,-5.5703,-5.5703,-5.5703,-5.5703,-5.5703,-5.5703,-5.5703,-5.5703,-5.5703,-5.5703,-5.5703,-5.5703,-5.5703,-5.5703,-5.5703,-5.5703,-5.5703,-5.5703,-5.5703,-5.5703,-5.5703,-5.5703,-5.5703,-5.5703,-5.6742,-5.7646,-5.8261,-5.93,-6.0165,-6.0762,-6.08,-6.08,-6.08,-6.08,-6.08,-6.08,-6.08,-6.08,-6.08,-6.08,-6.08,-4.4117,-4.4535,-4.503,-4.4701,-4.5099,-4.5605,0.0,0.0,-4.5624,-4.5776,-4.5853,-4.593,-4.6082,-4.6205,-4.6308,-4.6308,-4.6308,0.0,-4.6308,-4.6183,0.0,0.0,0.0,0.0,0.0,0.0,0.0,0.0,0.0,0.0,-4.5586,-4.5586,-4.5586,-4.5586,-4.5586,-4.5586,-4.5586,-4.5586,-4.5586,-4.5586,-4.5586,-4.5586,-4.5586,-4.5586,-4.5586,0.0,0.0,0.0,0.0,-4.7778,-4.8625,-4.949,-5.0356,-5.0702,-5.0702,-5.0702,-5.0702,-5.0702,-5.0702,-5.0702,-5.0702,-5.0702,-5.0702,-5.0702,-5.0702,-5.1875,-5.3376,-5.4241,-5.5068,-5.5703,-5.5703,-5.5703,-5.5703,-5.5703,-5.5703,-5.5703,-5.5703,-5.5703,-5.5703,-5.5703,-5.5703,-5.5703,-5.5703,-5.5703,-5.5703,-5.5703,-5.5703,-5.5703,-5.5703,-5.5703,-5.5703,-5.5703,-5.5703,-5.5703,-5.5703,-5.73,-5.83,-5.83,-5.9858,-6.0781,-6.08,-6.08,-6.08,-6.08,-6.08,-6.08,-6.08,-6.08,-6.08,-6.08,-6.08,-6.08,-4.4447,-4.458,-4.48,-4.4919,-4.5096,-4.5322,-4.555,-4.568,-4.5757,-4.5796,-4.593,-4.6046,-4.6084,-4.6205,-4.6308,-4.6308,-4.6229,0.0,0.0,0.0,0.0,0.0,0.0,0.0,0.0,0.0,0.0,0.0,0.0,0.0,-4.5586,-4.5586,-4.5586,-4.5586,-4.5586,-4.5586,-4.5586,-4.5586,-4.5586,-4.5586,-4.5586,-4.5586,-4.5586,-4.5586,-4.5586,0.0,0.0,0.0,0.0,-4.7778,-4.8606,-4.949,-5.0356,-5.0702,-5.0702,-5.0702,-5.0702,-5.0702,-5.0702,-5.0702,-5.0702,-5.0702,-5.0702,-5.0702,-5.0702,-5.1875,-5.351,-5.4914,-5.5491,-5.5703,-5.5703,-5.5703,-5.5703,-5.5703,-5.5703,-5.5703,-5.5703,-5.5703,-5.5703,-5.5703,-5.5703,-5.5703,-5.5703,-5.5703,-5.5703,-5.5703,-5.5703,-5.5703,-5.5703,-5.5703,-5.5703,-5.5703,-5.5703,-5.5703,-5.5703,-5.73,-5.83,-5.83,-5.9877,-6.08,-6.08,-6.08,-6.08,-6.08,-6.08,-6.08,-6.08,-6.08,-6.08,-6.08,-6.08,-6.08,0.0,-4.48,-4.4843,-4.5103,-4.5275,0.0,0.0,0.0,-4.5853,-4.5911,-4.6007,-4.6108,-4.6174,-4.6236,-4.6284,-4.6228,-4.6151,0.0,0.0,0.0,0.0,0.0,0.0,0.0,0.0,0.0,0.0,0.0,0.0,0.0,-4.5586,-4.5586,-4.5586,-4.5586,-4.5586,-4.5586,-4.5586,-4.5586,-4.5586,-4.5586,-4.5586,-4.5586,-4.5586,-4.5586,-4.5586,0.0,0.0,0.0,0.0,-4.7625,-4.8413,-4.9029,-5.0221,-5.0702,-5.0702,-5.0702,-5.0702,-5.0702,-5.0702,-5.0702,-5.0702,-5.0702,-5.0702,-5.076,-5.1048,-5.2106,-5.3491,-5.4857,-5.5472,-5.5703,-5.5703,-5.5703,-5.5703,-5.5703,-5.5703,-5.5703,-5.5703,-5.5703,-5.5703,-5.5703,-5.5703,-5.5703,-5.5703,-5.5703,-5.5703,-5.5703,-5.5703,-5.5722,-5.5761,-5.578,-5.5799,-5.5876,-5.5876,-5.5876,-5.5876,-5.7437,-5.8399,-5.8399,-6.0012,-6.0973,-6.0973,-6.0973,-6.0973,-6.0973,-6.0973,-6.0973,-6.0973,-6.0973,-6.0973,-6.0973,-6.0973,-6.0973,0.0,-4.5161,-4.5194,-4.5297,-4.5572,0.0,0.0,0.0,0.0,0.0,-4.6097,-4.6151,-4.628,-4.6288,-4.6236,-4.6121,-4.6084,-4.6046,0.0,-4.5834,0.0,0.0,0.0,0.0,0.0,0.0,0.0,0.0,0.0,0.0,-4.5586,-4.5586,-4.5586,-4.5586,-4.5586,-4.5586,-4.5586,-4.5586,-4.5586,-4.5586,-4.5586,-4.5586,-4.5586,-4.5586,-4.5586,0.0,0.0,0.0,0.0,-4.7355,-4.8048,-4.8279,-4.9952,-5.0644,-5.0702,-5.0702,-5.0702,-5.0702,-5.0702,-5.0702,-5.0702,-5.0702,-5.0702,-5.0837,-5.1587,-5.2472,-5.3376,-5.4241,-5.5068,-5.5703,-5.5703,-5.5703,-5.5703,-5.5703,-5.5703,-5.5703,-5.5703,-5.5703,-5.5703,-5.5703,-5.5703,-5.5703,-5.5703,-5.5703,-5.5703,-5.5703,-5.5703,-5.5761,-5.5876,-5.5899,-5.5978,-5.6191,-5.621,-5.621,-5.621,-5.7613,-5.852,-5.8503,-6.0275,-6.1315,-6.1315,-6.1315,-6.1315,-6.1315,-6.1315,-6.1315,-6.1315,-6.1315,-6.1315,-6.1315,-6.1315,-6.1315,-4.5747,0.0,-4.5725,-4.5745,-4.5815,-4.5889,0.0,0.0,0.0,0.0,0.0,0.0,0.0,0.0,-4.6148,-4.61,-4.5969,-4.5853,-4.5834,0.0,0.0,0.0,0.0,0.0,0.0,0.0,0.0,0.0,0.0,-4.5586,-4.5586,-4.5586,-4.5586,-4.5586,-4.5586,-4.5586,-4.5586,-4.5586,-4.5586,-4.5586,-4.5586,-4.5586,-4.5586,-4.5586,-4.5586,0.0,0.0,0.0,-4.5682,-4.674,-4.7548,-4.8221,-4.9279,-5.0106,-5.0702,-5.0702,-5.0702,-5.0702,-5.0702,-5.0702,-5.0702,-5.0702,-5.0702,-5.0741,-5.0914,-5.2029,-5.3376,-5.4241,-5.5068,-5.5703,-5.5703,-5.5703,-5.5703,-5.5703,-5.5703,-5.5703,-5.5703,-5.5703,-5.5703,-5.5703,-5.5703,-5.5703,-5.5703,-5.5703,-5.5703,-5.5703,-5.578,-5.5857,-5.5895,-5.6026,-5.6162,-5.6201,-5.6201,-5.6201,-5.6201,-5.7717,-5.8645,-5.8648,-6.0318,-6.1294,-6.1294,-6.1294,-6.1294,-6.1294,-6.1294,-6.1294,-6.1294,-6.1294,-6.1294,-6.1294,-6.1294,-6.1294,-4.6074,-4.5994,-4.5916,-4.5982,-4.5993,-4.6022,0.0,0.0,0.0,0.0,0.0,0.0,0.0,0.0,0.0,0.0,-4.5873,0.0,0.0,0.0,0.0,0.0,0.0,0.0,0.0,0.0,0.0,0.0,0.0,-4.5586,-4.5586,-4.5586,-4.5586,-4.5586,-4.5586,-4.5586,-4.5586,-4.5586,-4.5586,-4.5586,-4.5586,-4.5586,-4.5586,-4.5586,-4.5586,0.0,0.0,0.0,-4.5663,-4.6547,-4.7375,-4.8202,-4.9067,-4.9933,-5.0702,-5.0702,-5.0702,-5.0702,-5.0702,-5.0702,-5.0702,-5.0702,-5.0702,-5.0702,-5.0702,-5.1875,-5.3299,-5.378,-5.4761,-5.5703,-5.5703,-5.5703,-5.5703,-5.5703,-5.5703,-5.5703,-5.5703,-5.5703,-5.5722,-5.578,-5.578,-5.5818,-5.5895,-5.5915,-5.5915,-5.5915,-5.5994,-5.6071,-5.6128,-5.621,-5.6317,-5.6387,-5.6386,-5.6386,-5.6386,-5.7962,-5.8877,-5.8797,-6.0497,-6.1472,-6.1472,-6.1472,-6.1472,-6.1472,-6.1472,-6.1472,-6.1472,-6.1472,-6.1472,-6.1472,-6.1472,-6.1472,-4.6242,-4.6066,-4.5947,-4.6087,-4.6112,-4.6124,0.0,0.0,0.0,0.0,0.0,0.0,0.0,0.0,0.0,0.0,0.0,0.0,0.0,0.0,0.0,0.0,0.0,0.0,0.0,0.0,0.0,0.0,0.0,-4.5513,-4.5513,-4.5568,-4.5586,-4.5586,-4.5586,-4.5586,-4.5586,-4.5586,-4.5586,-4.5586,-4.5586,-4.5586,-4.5586,-4.5586,-4.5586,-4.5586,0.0,0.0,-4.5663,-4.6394,-4.7259,-4.8182,-4.8913,-4.9817,-5.0702,-5.0702,-5.0702,-5.0702,-5.0702,-5.0702,-5.0702,-5.0702,-5.0702,-5.0702,-5.0702,-5.1779,-5.3029,-5.3164,-5.4414,-5.5703,-5.5703,-5.5703,-5.5703,-5.5703,-5.5703,-5.5703,-5.5722,-5.5722,-5.5761,-5.5915,-5.596,-5.6001,-5.6174,-5.6213,-5.6213,-5.6213,-5.6209,-5.6263,-5.6379,-5.6425,-5.6459,-5.6598,-5.6606,-5.6602,-5.6602,-5.8202,-5.9126,-5.8971,-6.0685,-6.1699,-6.1699,-6.1699,-6.1699,-6.1699,-6.1699,-6.1699,-6.1699,-6.1699,-6.1699,-6.1699,-6.1699,-6.1699,-4.5949,-4.593,-4.5967,-4.6207,-4.6177,-4.6106,-4.6134,0.0,0.0,0.0,0.0,0.0,0.0,0.0,0.0,0.0,0.0,0.0,0.0,0.0,0.0,0.0,0.0,0.0,0.0,0.0,0.0,0.0,0.0,-4.518,-4.518,-4.5438,-4.5586,-4.5586,-4.5586,-4.5586,-4.5586,-4.5586,-4.5586,-4.5586,-4.5586,-4.5586,-4.5586,-4.5586,-4.5586,-4.5586,0.0,-4.5586,-4.5605,-4.574,-4.6701,-4.8105,-4.8259,-4.9279,-5.0702,-5.0702,-5.0702,-5.0702,-5.0702,-5.0702,-5.0702,-5.0702,-5.0702,-5.0702,-5.0702,-5.1356,-5.226,-5.2991,-5.4414,-5.5703,-5.5703,-5.5703,-5.5703,-5.5703,-5.5703,-5.5722,-5.5838,-5.5857,-5.5915,-5.6128,-5.6159,-5.6161,-5.6181,-5.62,-5.62,-5.62,-5.6304,-5.6379,-5.6398,-5.6503,-5.6571,-5.6601,-5.6599,-5.6597,-5.6597,-5.8189,-5.9198,-5.9159,-6.0759,-6.1699,-6.1699,-6.1699,-6.1699,-6.1699,-6.1699,-6.1699,-6.1699,-6.1699,-6.1699,-6.1699,-6.1699,-6.1699,-4.5899,-4.5899,-4.5938,-4.6056,-4.6053,-4.5982,-4.5982,0.0,0.0,0.0,0.0,0.0,0.0,0.0,0.0,0.0,0.0,0.0,0.0,0.0,0.0,0.0,0.0,0.0,0.0,0.0,0.0,0.0,0.0,0.0,-4.5362,-4.5513,-4.5586,-4.5586,-4.5586,-4.5586,-4.5586,-4.5586,-4.5586,-4.5586,-4.5586,-4.5586,-4.5586,-4.5586,-4.5586,-4.5586,0.0,-4.5586,-4.5586,-4.5586,-4.6586,-4.8105,-4.8105,-4.9163,-5.0702,-5.0702,-5.0702,-5.0702,-5.0702,-5.0702,-5.0702,-5.0702,-5.0702,-5.0702,-5.0702,-5.126,-5.2087,-5.2953,-5.4087,-5.5145,-5.5588,-5.5703,-5.5722,-5.578,-5.5799,-5.5838,-5.6032,-5.6057,-5.6123,-5.6287,-5.6309,-5.6335,-5.6394,-5.6421,-5.6421,-5.6421,-5.6469,-5.6505,-5.6505,-5.6552,-5.6601,-5.6601,-5.6601,-5.6601,-5.6601,-5.8203,-5.959,-6.0488,-6.1269,-6.1699,-6.1699,-6.1699,-6.1699,-6.1699,-6.1699,-6.1699,-6.1699,-6.1699,-6.1699,-6.1699,-6.1699,-6.1699,-4.5834,-4.5762,-4.5706,-4.5706,0.0,-4.5891,-4.5883,0.0,0.0,0.0,0.0,0.0,0.0,0.0,0.0,0.0,0.0,0.0,0.0,0.0,0.0,0.0,0.0,0.0,0.0,0.0,0.0,0.0,0.0,0.0,-4.5223,-4.5381,-4.5495,-4.5495,-4.5568,-4.5586,-4.5586,-4.5586,-4.5586,-4.5586,-4.5586,-4.5586,-4.5586,-4.5586,-4.5586,-4.5586,-4.5586,-4.5586,-4.5586,-4.5586,-4.6586,-4.8105,-4.8105,-4.9163,-5.0702,-5.0702,-5.0702,-5.0702,-5.0702,-5.0702,-5.0702,-5.0702,-5.0702,-5.0702,-5.0702,-5.1125,-5.1837,-5.2895,-5.3683,-5.4434,-5.5434,-5.5703,-5.5722,-5.5857,-5.5895,-5.5974,-5.6205,-5.6261,-5.629,-5.6424,-5.6449,-5.6486,-5.6575,-5.6601,-5.6601,-5.6601,-5.6601,-5.6601,-5.6601,-5.6601,-5.6601,-5.6601,-5.6601,-5.6777,-5.7168,-5.8437,-5.9922,-6.1582,-6.1699,-6.1699,-6.1699,-6.1699,-6.1699,-6.1699,-6.1699,-6.1699,-6.1699,-6.1699,-6.1699,-6.1699,-6.1699,-6.1699,-4.5605,-4.5381,-4.5178,-4.5178,-4.5496,0.0,-4.5815,-4.5477,0.0,0.0,0.0,0.0,0.0,0.0,0.0,0.0,0.0,0.0,0.0,0.0,0.0,0.0,0.0,0.0,0.0,0.0,0.0,0.0,0.0,0.0,-4.4117,-4.4762,-4.5137,-4.5137,-4.5438,-4.5586,-4.5586,-4.5586,-4.5586,-4.5586,-4.5586,-4.5586,-4.5586,-4.5586,-4.5586,-4.5586,-4.5586,-4.5586,-4.5586,-4.5586,-4.6586,-4.8105,-4.8105,-4.9163,-5.0702,-5.0702,-5.0702,-5.0702,-5.0702,-5.0702,-5.0702,-5.0702,-5.0702,-5.0702,-5.0702,-5.0741,-5.1106,-5.2741,-5.326,-5.3664,-5.528,-5.5703,-5.5722,-5.5857,-5.5895,-5.5994,-5.6321,-5.6402,-5.6433,-5.6552,-5.6597,-5.6599,-5.6601,-5.6601,-5.6601,-5.6601,-5.6601,-5.6601,-5.6601,-5.6601,-5.6601,-5.6601,-5.6601,-5.7246,-5.8887,-5.9121,-5.9922,-6.1582,-6.1699,-6.1699,-6.1699,-6.1699,-6.1699,-6.1699,-6.1699,-6.1699,-6.1699,-6.1699,-6.1699,-6.1699,-6.1699,-6.1699,-4.5342,-4.5201,-4.5052,-4.4849,0.0,0.0,0.0,0.0,0.0,0.0,0.0,0.0,0.0,0.0,0.0,0.0,0.0,0.0,0.0,0.0,0.0,0.0,0.0,0.0,0.0,0.0,0.0,0.0,0.0,0.0,-4.4346,-4.4631,-4.4896,-4.5096,-4.5222,-4.54,-4.5586,-4.5586,-4.5586,-4.5586,-4.5586,-4.5586,-4.5586,-4.5586,-4.5586,-4.5586,-4.5586,-4.5586,-4.5586,-4.5586,-4.6278,-4.7471,-4.8509,-4.9644,-5.0702,-5.0702,-5.0702,-5.0702,-5.0702,-5.0702,-5.0702,-5.0702,-5.0702,-5.0702,-5.0702,-5.0702,-5.1048,-5.2722,-5.3203,-5.3587,-5.5261,-5.5703,-5.5761,-5.6032,-5.6094,-5.6168,-5.6465,-5.6519,-5.6543,-5.6599,-5.6601,-5.6601,-5.6601,-5.6601,-5.6601,-5.6601,-5.6601,-5.6601,-5.6601,-5.6601,-5.6601,-5.6601,-5.6601,-5.7305,-5.9043,-5.9199,-5.9922,-6.1582,-6.1699,-6.1699,-6.1699,-6.1699,-6.1699,-6.1699,-6.1699,-6.1699,-6.1699,-6.1699,-6.1699,-6.1699,-6.1699,-6.1699,-4.4988,-4.4853,-4.4688,0.0,0.0,0.0,0.0,0.0,0.0,0.0,0.0,0.0,0.0,0.0,0.0,0.0,0.0,0.0,0.0,0.0,0.0,0.0,0.0,0.0,0.0,0.0,0.0,0.0,0.0,0.0,0.0,-4.4474,-4.4726,-4.4943,-4.514,-4.5362,-4.5586,-4.5586,-4.5586,-4.5586,-4.5586,-4.5586,-4.5586,-4.5586,-4.5586,-4.5586,-4.5586,-4.5586,-4.5586,-4.5586,-4.6259,-4.7432,-4.8836,-4.9933,-5.0702,-5.0702,-5.0702,-5.0702,-5.0702,-5.0702,-5.0702,-5.0702,-5.0702,-5.0702,-5.0702,-5.0702,-5.0991,-5.2452,-5.3049,-5.3587,-5.5068,-5.5607,-5.5838,-5.6128,-5.6246,-5.6333,-5.6554,-5.6601,-5.6601,-5.6601,-5.6601,-5.6601,-5.6601,-5.6601,-5.6601,-5.6601,-5.6601,-5.6601,-5.6601,-5.6601,-5.6601,-5.6601,-5.6601,-5.7305,-5.9043,-5.9199,-5.9922,-6.1582,-6.1699,-6.1699,-6.1699,-6.1699,-6.1699,-6.1699,-6.1699,-6.1699,-6.1699,-6.1699,-6.1699,-6.1699,-6.1699,-6.1699,-4.4617,-4.4308,-4.4016,0.0,0.0,0.0,0.0,0.0,0.0,0.0,0.0,0.0,0.0,0.0,0.0,0.0,0.0,0.0,0.0,0.0,0.0,0.0,0.0,0.0,0.0,0.0,0.0,0.0,0.0,0.0,0.0,-4.4213,-4.4599,-4.458,-4.5243,-4.5586,-4.5586,-4.5586,-4.5586,-4.5586,-4.5586,-4.5586,-4.5586,-4.5586,-4.5586,-4.5586,-4.5586,-4.5586,-4.5586,-4.5586,-4.6586,-4.8202,-4.9048,-4.9933,-5.0702,-5.0702,-5.0702,-5.0702,-5.0702,-5.0702,-5.0702,-5.0702,-5.0702,-5.0702,-5.0702,-5.0702,-5.0894,-5.1837,-5.2723,-5.3628,-5.4645,-5.5395,-5.5974,-5.6148,-5.6302,-5.6439,-5.6566,-5.6601,-5.6601,-5.6601,-5.6601,-5.6601,-5.6601,-5.6601,-5.6601,-5.6601,-5.6601,-5.6601,-5.6601,-5.6601,-5.6601,-5.6601,-5.6601,-5.7305,-5.9043,-5.9199,-5.9922,-6.1582,-6.1699,-6.1699,-6.1699,-6.1699,-6.1699,-6.1699,-6.1699,-6.1699,-6.1699,-6.1699,-6.1699,-6.1699,-6.1699,-6.1699,-4.5926,-4.5363,0.0,0.0,0.0,0.0,0.0,0.0,0.0,0.0,0.0,0.0,0.0,0.0,0.0,0.0,0.0,0.0,0.0,0.0,0.0,0.0,0.0,0.0,0.0,0.0,0.0,0.0,0.0,0.0,0.0,-4.3943,-4.429,-4.458,-4.5011,-4.5362,-4.5586,-4.5586,-4.5586,-4.5586,-4.5586,-4.5586,-4.5586,-4.5586,-4.5586,-4.5586,-4.5586,-4.5586,-4.5586,-4.5586,-4.6586,-4.8125,-4.8375,-4.9394,-5.0702,-5.0702,-5.0702,-5.0702,-5.0702,-5.0702,-5.0702,-5.0702,-5.0702,-5.0702,-5.0702,-5.076,-5.101,-5.1856,-5.2788,-5.3747,-5.4666,-5.5571,-5.6263,-5.6321,-5.6359,-5.6439,-5.6566,-5.6601,-5.6601,-5.6601,-5.6601,-5.6601,-5.6601,-5.6601,-5.6601,-5.6601,-5.6601,-5.6601,-5.6601,-5.6601,-5.6601,-5.6601,-5.6601,-5.7305,-5.9043,-5.9199,-5.9922,-6.1582,-6.1699,-6.1699,-6.1699,-6.1699,-6.1699,-6.1699,-6.1699,-6.1699,-6.1699,-6.1699,-6.1699,-6.1699,-6.1699,-6.1699,-4.6264,0.0,0.0,0.0,0.0,0.0,0.0,0.0,0.0,0.0,0.0,0.0,0.0,0.0,0.0,0.0,0.0,0.0,0.0,0.0,0.0,0.0,0.0,0.0,0.0,0.0,0.0,0.0,0.0,0.0,0.0,-4.3974,-4.4364,-4.458,-4.5033,-4.54,-4.5586,-4.5586,-4.5586,-4.5586,-4.5586,-4.5586,-4.5586,-4.5586,-4.5586,-4.5586,-4.5586,-4.5586,-4.5586,-4.5586,-4.6586,-4.8105,-4.8105,-4.9163,-5.0702,-5.0702,-5.0702,-5.0702,-5.0702,-5.0702,-5.0702,-5.076,-5.0779,-5.0779,-5.0856,-5.0933,-5.1087,-5.1587,-5.2674,-5.3806,-5.4389,-5.5517,-5.6456,-5.6398,-5.6435,-5.6494,-5.6575,-5.6601,-5.6601,-5.6601,-5.6601,-5.6601,-5.6601,-5.6601,-5.6601,-5.6601,-5.6601,-5.6601,-5.6601,-5.6601,-5.6601,-5.6601,-5.6601,-5.7305,-5.9043,-5.9199,-5.9922,-6.1582,-6.1699,-6.1699,-6.1699,-6.1699,-6.1699,-6.1699,-6.1699,-6.1699,-6.1699,-6.1699,-6.1699,-6.1699,-6.1699,-6.1699,0.0,0.0,0.0,0.0,0.0,0.0,0.0,0.0,0.0,0.0,0.0,0.0,0.0,0.0,0.0,0.0,0.0,0.0,0.0,0.0,0.0,0.0,0.0,0.0,0.0,0.0,0.0,0.0,0.0,0.0,0.0,-4.4213,-4.4606,-4.4631,-4.5263,-4.5586,-4.5586,-4.5586,-4.5586,-4.5586,-4.5586,-4.5586,-4.5586,-4.5586,-4.5586,-4.5586,-4.5586,-4.5586,-4.5586,-4.5586,-4.6586,-4.8105,-4.8105,-4.9163,-5.0702,-5.0702,-5.0702,-5.0702,-5.0702,-5.0721,-5.0741,-5.0875,-5.0914,-5.0932,-5.1048,-5.1106,-5.1126,-5.1183,-5.2453,-5.3846,-5.398,-5.5283,-5.656,-5.6445,-5.6514,-5.6601,-5.6601,-5.6601,-5.6601,-5.6601,-5.6601,-5.6601,-5.6601,-5.6601,-5.6601,-5.6601,-5.6601,-5.6601,-5.6601,-5.6601,-5.6601,-5.6601,-5.6601,-5.7305,-5.9043,-5.9199,-5.9922,-6.1582,-6.1699,-6.1699,-6.1699,-6.1699,-6.1699,-6.1699,-6.1699,-6.1699,-6.1699,-6.1699,-6.1699,-6.1699,-6.1699,-6.1699,0.0,-4.7333,0.0,0.0,0.0,0.0,0.0,0.0,0.0,0.0,0.0,0.0,0.0,0.0,0.0,0.0,0.0,0.0,0.0,0.0,0.0,0.0,0.0,0.0,0.0,0.0,0.0,0.0,0.0,0.0,-4.3881,-4.4337,-4.4707,-4.4966,-4.54,-4.5586,-4.5586,-4.5586,-4.5586,0.0,-4.5586,-4.5586,-4.5586,-4.5586,-4.5586,-4.5586,-4.5586,-4.5586,-4.5586,-4.5586,-4.6586,-4.8105,-4.8105,-4.9163,-5.0702,-5.0702,-5.0702,-5.0721,-5.0837,-5.0875,-5.0895,-5.101,-5.1064,-5.1054,-5.1093,-5.1134,-5.1183,-5.1203,-5.2523,-5.3955,-5.3991,-5.529,-5.6582,-5.6563,-5.6573,-5.6601,-5.6601,-5.6601,-5.6601,-5.6601,-5.6601,-5.6601,-5.6601,-5.6601,-5.6601,-5.6601,-5.6601,-5.6601,-5.6601,-5.6601,-5.6601,-5.6601,-5.6601,-5.7305,-5.9043,-5.9199,-5.9922,-6.1582,-6.1699,-6.1699,-6.1699,-6.1699,-6.1699,-6.1699,-6.1699,-6.1699,-6.1699,-6.1699,-6.1699,-6.1699,-6.1699,-6.1699,0.0,0.0,0.0,0.0,0.0,0.0,0.0,0.0,0.0,0.0,0.0,0.0,0.0,0.0,0.0,0.0,0.0,0.0,0.0,0.0,0.0,0.0,0.0,0.0,0.0,0.0,0.0,0.0,0.0,-4.3646,-4.3986,-4.4373,-4.4732,-4.5096,-4.5419,-4.5586,-4.5586,-4.5586,-4.5586,-4.5586,-4.5586,-4.5586,-4.5586,-4.5586,-4.5586,-4.5586,-4.5586,-4.5586,-4.5586,-4.5586,-4.6355,-4.7567,-4.7952,-4.8913,-5.0144,-5.0606,-5.0818,-5.0818,-5.0952,-5.1003,-5.0999,-5.1105,-5.1155,-5.1166,-5.1225,-5.1269,-5.1298,-5.1298,-5.2308,-5.3476,-5.3887,-5.498,-5.6074,-5.6504,-5.6601,-5.6601,-5.6601,-5.6601,-5.6601,-5.6601,-5.6601,-5.6601,-5.6601,-5.6601,-5.6601,-5.6601,-5.6601,-5.6601,-5.6601,-5.6601,-5.6601,-5.6601,-5.6601,-5.7305,-5.9043,-5.9199,-5.9922,-6.1582,-6.1699,-6.1699,-6.1699,-6.1699,-6.1699,-6.1699,-6.1699,-6.1699,-6.1699,-6.1699,-6.1699,-6.1699,-6.1699,-6.1699,0.0,0.0,0.0,0.0,0.0,0.0,0.0,0.0,0.0,0.0,0.0,0.0,0.0,0.0,0.0,0.0,0.0,0.0,0.0,0.0,0.0,0.0,0.0,0.0,0.0,0.0,0.0,0.0,0.0,-4.3836,-4.4175,-4.4527,-4.4849,-4.518,-4.5476,-4.5586,-4.5586,-4.5586,-4.5586,-4.5586,-4.5586,-4.5586,-4.5586,-4.5586,-4.5586,-4.5586,-4.5586,-4.5586,-4.5586,-4.5586,-4.6105,-4.699,-4.7817,-4.8663,-4.9548,-5.0568,-5.0932,-5.0948,-5.1068,-5.1122,-5.1132,-5.1223,-5.1238,-5.1261,-5.1366,-5.1406,-5.1406,-5.1406,-5.2031,-5.2891,-5.3769,-5.4648,-5.5527,-5.6387,-5.6601,-5.6601,-5.6601,-5.6601,-5.6601,-5.6601,-5.6601,-5.6601,-5.6601,-5.6601,-5.6601,-5.6601,-5.6601,-5.6601,-5.6601,-5.6601,-5.6601,-5.6601,-5.6601,-5.7246,-5.8848,-5.9101,-5.9844,-6.1387,-6.1621,-6.1699,-6.1699,-6.1699,-6.1699,-6.1699,-6.1699,-6.1699,-6.1699,-6.1699,-6.1699,-6.1699,-6.1699,-6.1699,0.0,0.0,0.0,0.0,0.0,0.0,0.0,0.0,0.0,0.0,0.0,0.0,0.0,0.0,0.0,0.0,0.0,0.0,0.0,0.0,0.0,0.0,0.0,0.0,0.0,0.0,0.0,0.0,-4.4252,-4.4606,-4.4943,-4.4988,-4.5201,-4.5513,-4.5568,-4.5586,-4.5586,-4.5586,-4.5586,-4.5586,-4.5586,-4.5586,-4.5586,-4.5586,-4.5586,-4.5586,-4.5586,-4.5586,-4.5586,-4.5586,-4.6105,-4.699,-4.7912,-4.8797,-4.9702,-5.0702,-5.1064,-5.1074,-5.1157,-5.1183,-5.1206,-5.1336,-5.1372,-5.1377,-5.1386,-5.1406,-5.1406,-5.1406,-5.2031,-5.2891,-5.3769,-5.4648,-5.5527,-5.6387,-5.6601,-5.6601,-5.6601,-5.6601,-5.6601,-5.6601,-5.6601,-5.6601,-5.6601,-5.6601,-5.6601,-5.6601,-5.6601,-5.6601,-5.6601,-5.6601,-5.6601,-5.6601,-5.6601,-5.6992,-5.7988,-5.8769,-5.959,-6.0527,-6.1289,-6.1699,-6.1699,-6.1699,-6.1699,-6.1699,-6.1699,-6.1699,-6.1699,-6.1699,-6.1699,-6.1699,-6.1699,-6.1699,-4.8306,0.0,0.0,0.0,0.0,0.0,0.0,0.0,0.0,0.0,0.0,0.0,0.0,0.0,0.0,0.0,0.0,0.0,0.0,0.0,0.0,0.0,0.0,0.0,0.0,0.0,0.0,0.0,-4.4501,-4.4751,-4.5074,-4.5096,-4.5243,-4.5586,-4.5586,-4.5586,-4.5586,-4.5586,-4.5586,-4.5586,-4.5586,-4.5586,-4.5586,-4.5586,-4.5586,-4.5586,-4.5586,-4.5586,-4.5586,-4.5586,-4.5855,-4.6413,-4.7776,-4.8585,-4.9155,-5.0603,-5.1159,-5.1175,-5.1278,-5.1315,-5.1328,-5.1379,-5.1406,-5.1406,-5.1406,-5.1406,-5.1406,-5.1406,-5.168,-5.2285,-5.3652,-5.4277,-5.4902,-5.6289,-5.6601,-5.6601,-5.6601,-5.6601,-5.6601,-5.6601,-5.6601,-5.6601,-5.6601,-5.6601,-5.6601,-5.6601,-5.6601,-5.6601,-5.6601,-5.6601,-5.6601,-5.6601,-5.6601,-5.6953,-5.7832,-5.8691,-5.9531,-6.0351,-6.1211,-6.1699,-6.1699,-6.1699,-6.1699,-6.1699,-6.1699,-6.1699,-6.1699,-6.1699,-6.1699,-6.1699,-6.1699,-6.1699,0.0,0.0,0.0,0.0,0.0,0.0,0.0,0.0,0.0,0.0,0.0,0.0,0.0,0.0,0.0,0.0,0.0,0.0,0.0,0.0,0.0,0.0,0.0,0.0,0.0,0.0,0.0,0.0,-4.4825,-4.4966,-4.5222,-4.5222,-4.5342,-4.5586,-4.5586,-4.5586,-4.5586,-4.5586,-4.5586,-4.5586,-4.5586,-4.5586,-4.5586,-4.5624,-4.5643,-4.5643,-4.5605,-4.5605,-4.5643,-4.5643,-4.5719,-4.6007,-4.7719,-4.8454,-4.8774,-5.0577,-5.1252,-5.1276,-5.1363,-5.1406,-5.1406,-5.1406,-5.1406,-5.1406,-5.1406,-5.1406,-5.1406,-5.1406,-5.1406,-5.1797,-5.3555,-5.4004,-5.4433,-5.6191,-5.6601,-5.6601,-5.6601,-5.6601,-5.6601,-5.6601,-5.6601,-5.6601,-5.6601,-5.6601,-5.6601,-5.6601,-5.6601,-5.6601,-5.6601,-5.6601,-5.6601,-5.6601,-5.6601,-5.6855,-5.7519,-5.8574,-5.9453,-6.0058,-6.1094,-6.1699,-6.1699,-6.1699,-6.1699,-6.1699,-6.1699,-6.1699,-6.1699,-6.1699,-6.1699,-6.1699,-6.1699,-6.1699,0.0,0.0,0.0,0.0,0.0,0.0,0.0,0.0,0.0,0.0,0.0,0.0,0.0,0.0,0.0,0.0,0.0,0.0,0.0,0.0,0.0,0.0,0.0,0.0,0.0,0.0,0.0,0.0,-4.5362,-4.5568,-4.5568,-4.5568,-4.5586,-4.5586,-4.5586,-4.5586,-4.5586,-4.5586,-4.5586,-4.5586,-4.5586,-4.5586,-4.5586,-4.5738,-4.5796,-4.5776,-4.5643,-4.568,-4.5796,-4.5796,-4.5834,-4.6084,-4.7946,-4.8675,-4.8906,-5.0708,-5.1385,-5.1385,-5.1406,-5.1406,-5.1406,-5.1406,-5.1406,-5.1406,-5.1406,-5.1406,-5.1406,-5.1406,-5.1406,-5.1797,-5.3555,-5.4004,-5.4433,-5.6191,-5.6601,-5.6601,-5.6601,-5.6601,-5.6601,-5.6601,-5.6601,-5.6601,-5.6601,-5.6601,-5.6601,-5.6601,-5.6601,-5.6601,-5.6601,-5.6601,-5.6601,-5.6601,-5.6601,-5.6621,-5.666,-5.8223,-5.9219,-5.9258,-6.0801,-6.1699,-6.1699,-6.1699,-6.1699,-6.1699,-6.1699,-6.1699,-6.1699,-6.1699,-6.1699,-6.1699,-6.1699,-6.1699,0.0,0.0,0.0,0.0,0.0,0.0,0.0,0.0,0.0,0.0,0.0,0.0,0.0,0.0,0.0,0.0,0.0,0.0,0.0,0.0,0.0,0.0,0.0,0.0,0.0,0.0,0.0,0.0,0.0,-4.5586,-4.5586,-4.5586,-4.5586,-4.5586,-4.5586,-4.5586,-4.5586,-4.5586,-4.5586,-4.5586,-4.5586,-4.5586,-4.5586,-4.5643,-4.5719,-4.5796,-4.5757,-4.5776,-4.5851,-4.586,-4.5935,-4.62,-4.7985,-4.8748,-4.9028,-5.0757,-5.1406,-5.1406,-5.1406,-5.1406,-5.1406,-5.1406,-5.1406,-5.1406,-5.1406,-5.1406,-5.1406,-5.1406,-5.1406,-5.1797,-5.3555,-5.4004,-5.4433,-5.6191,-5.6601,-5.6601,-5.6601,-5.6601,-5.6601,-5.6601,-5.6601,-5.6601,-5.6601,-5.6601,-5.6601,-5.6601,-5.6601,-5.6601,-5.6601,-5.6601,-5.6601,-5.6601,-5.6601,-5.6601,-5.6601,-5.7695,-5.8594,-5.916,-6.0254,-6.1113,-6.168,-6.1699,-6.1699,-6.1699,-6.1699,-6.1699,-6.1699,-6.1699,-6.1699,-6.1699,-6.1699,-6.1699,-4.8306,0.0,0.0,0.0,0.0,0.0,0.0,0.0,0.0,0.0,0.0,0.0,0.0,0.0,0.0,0.0,0.0,0.0,0.0,0.0,0.0,0.0,0.0,0.0,0.0,0.0,0.0,0.0,0.0,0.0,-4.5586,-4.5586,-4.5605,-4.568,-4.568,-4.568,-4.5699,-4.5699,-4.5699,-4.5699,-4.5699,-4.5699,-4.5699,-4.5757,-4.5815,-4.5911,-4.595,-4.5969,-4.5967,-4.597,-4.6057,-4.6341,-4.8091,-4.8828,-4.9101,-5.0781,-5.1406,-5.1406,-5.1406,-5.1406,-5.1406,-5.1406,-5.1406,-5.1406,-5.1406,-5.1406,-5.1406,-5.1406,-5.1406,-5.1738,-5.3183,-5.4004,-5.4805,-5.6269,-5.6601,-5.6601,-5.6601,-5.6601,-5.6601,-5.6601,-5.6601,-5.6601,-5.6601,-5.6601,-5.6601,-5.6601,-5.6601,-5.6601,-5.6601,-5.6601,-5.6601,-5.6601,-5.6601,-5.6601,-5.6601,-5.7402,-5.8262,-5.914,-5.9961,-6.0781,-6.166,-6.1699,-6.1699,-6.1699,-6.1699,-6.1699,-6.1699,-6.1699,-6.1699,-6.1699,-6.1699,-6.1699,0.0,0.0,0.0,0.0,0.0,0.0,0.0,0.0,0.0,0.0,0.0,0.0,0.0,0.0,0.0,0.0,0.0,0.0,0.0,0.0,0.0,0.0,0.0,0.0,0.0,0.0,0.0,0.0,-4.5586,-4.5586,-4.5586,-4.5586,-4.568,-4.5796,-4.5796,-4.5832,-4.589,-4.589,-4.589,-4.589,-4.589,-4.589,-4.589,-4.6025,-4.6102,-4.6103,-4.6238,-4.6217,-4.6116,-4.6116,-4.6192,-4.6465,-4.8223,-4.8906,-4.9101,-5.0781,-5.1406,-5.1406,-5.1406,-5.1406,-5.1406,-5.1406,-5.1406,-5.1406,-5.1406,-5.1406,-5.1406,-5.1406,-5.1406,-5.1601,-5.2519,-5.4004,-5.5527,-5.6387,-5.6601,-5.6601,-5.6601,-5.6601,-5.6601,-5.6601,-5.6601,-5.6601,-5.6601,-5.6601,-5.6601,-5.6601,-5.6601,-5.6601,-5.6601,-5.6601,-5.6601,-5.6601,-5.6601,-5.6601,-5.6601,-5.7383,-5.8242,-5.914,-5.9922,-6.0762,-6.166,-6.1699,-6.1699,-6.1699,-6.1699,-6.1699,-6.1699,-6.1699,-6.1699,-6.1699,-6.1699,-6.1699,-4.9248,0.0,0.0,0.0,0.0,0.0,0.0,0.0,0.0,0.0,0.0,0.0,0.0,0.0,0.0,0.0,0.0,0.0,0.0,0.0,0.0,0.0,0.0,0.0,0.0,0.0,0.0,0.0,-4.5586,-4.5586,-4.5586,-4.5699,-4.5776,-4.5873,-4.586,-4.5886,-4.5906,-4.5906,-4.5906,-4.5906,-4.5906,-4.5906,-4.5906,-4.5944,-4.6015,-4.6103,-4.6142,-4.6183,-4.6236,-4.6236,-4.627,-4.6465,-4.8223,-4.8906,-4.9101,-5.0781,-5.1406,-5.1406,-5.1406,-5.1406,-5.1406,-5.1406,-5.1406,-5.1406,-5.1406,-5.1406,-5.1406,-5.1406,-5.1406,-5.1758,-5.3242,-5.4473,-5.5527,-5.6387,-5.6601,-5.6601,-5.6601,-5.6601,-5.6601,-5.6601,-5.6601,-5.6601,-5.6601,-5.6601,-5.6601,-5.6601,-5.6601,-5.6601,-5.6601,-5.6601,-5.6601,-5.6601,-5.6601,-5.6601,-5.6601,-5.6816,-5.7598,-5.9101,-5.9414,-6.0176,-6.164,-6.1699,-6.1699,-6.1699,-6.1699,-6.1699,-6.1699,-6.1699,-6.1699,-6.1699,-6.1699,-6.1699,-5.0101,-4.9716,-4.926,-4.8877,0.0,0.0,-4.8379,-4.8306,0.0,0.0,0.0,0.0,0.0,0.0,0.0,0.0,0.0,0.0,0.0,0.0,0.0,0.0,0.0,0.0,0.0,-4.5586,-4.5586,-4.5586,-4.5586,-4.5605,-4.568,-4.5785,-4.5896,-4.5969,-4.5974,-4.5998,-4.6075,-4.6075,-4.6075,-4.6075,-4.6075,-4.6075,-4.6075,-4.6075,-4.6098,-4.6182,-4.619,-4.6238,-4.6308,-4.6308,-4.6308,-4.6465,-4.8223,-4.8906,-4.9101,-5.0781,-5.1406,-5.1406,-5.1406,-5.1406,-5.1406,-5.1406,-5.1406,-5.1406,-5.1406,-5.1406,-5.1406,-5.1406,-5.1406,-5.1797,-5.3555,-5.4375,-5.5078,-5.6308,-5.6601,-5.6601,-5.6601,-5.6601,-5.6601,-5.6601,-5.6601,-5.6601,-5.6601,-5.6601,-5.6601,-5.6601,-5.6601,-5.6601,-5.6601,-5.6601,-5.6601,-5.6601,-5.6601,-5.6601,-5.6601,-5.6601,-5.7187,-5.8574,-5.9004,-5.9785,-6.1094,-6.1504,-6.1699,-6.1699,-6.1699,-6.1699,-6.1699,-6.1699,-6.1699,-6.1699,-6.1699,-6.1699,-5.0915,-5.0858,-5.0618,-4.9853,-4.9616,0.0,-4.862,-4.8361,-4.8306,0.0,0.0,0.0,0.0,0.0,0.0,0.0,0.0,0.0,0.0,0.0,0.0,0.0,0.0,0.0,-4.5605,-4.5586,-4.5586,-4.5586,-4.5605,-4.568,-4.5834,-4.5893,-4.5991,-4.6117,-4.6117,-4.6171,-4.6308,-4.6308,-4.6308,-4.6308,-4.6308,-4.6308,-4.6308,-4.6308,-4.6308,-4.6307,-4.6305,-4.6299,-4.6308,-4.6308,-4.6308,-4.6465,-4.8223,-4.8906,-4.9101,-5.0781,-5.1406,-5.1406,-5.1406,-5.1406,-5.1406,-5.1406,-5.1406,-5.1406,-5.1406,-5.1406,-5.1406,-5.1406,-5.1406,-5.1797,-5.3555,-5.4004,-5.4433,-5.6191,-5.6601,-5.6601,-5.6601,-5.6601,-5.6601,-5.6601,-5.6601,-5.6601,-5.6601,-5.6601,-5.6601,-5.6601,-5.6601,-5.6601,-5.6601,-5.6601,-5.6601,-5.6601,-5.6601,-5.6601,-5.6601,-5.6601,-5.6973,-5.7832,-5.8711,-5.9551,-6.0371,-6.123,-6.1699,-6.1699,-6.1699,-6.1699,-6.1699,-6.1699,-6.1699,-6.1699,-6.1699,-6.1699,-5.1791,-5.1292,-5.0757,-5.0597,-5.0065,0.0,-4.9395,-4.8785,-4.8306,0.0,0.0,0.0,0.0,0.0,0.0,0.0,0.0,0.0,0.0,0.0,0.0,0.0,0.0,0.0,-4.5663,-4.5586,-4.5586,-4.5586,-4.5699,-4.5834,-4.6026,-4.6053,-4.6123,-4.6257,-4.6264,-4.6278,-4.6308,-4.6308,-4.6308,-4.6308,-4.6308,-4.6308,-4.6308,-4.6308,-4.6308,-4.6308,-4.6295,-4.6297,-4.6308,-4.6308,-4.6308,-4.6465,-4.8223,-4.8906,-4.9101,-5.0781,-5.1406,-5.1406,-5.1406,-5.1406,-5.1406,-5.1406,-5.1406,-5.1406,-5.1406,-5.1406,-5.1406,-5.1406,-5.1406,-5.1797,-5.3555,-5.4004,-5.4433,-5.6191,-5.6601,-5.6601,-5.6601,-5.6601,-5.6601,-5.6601,-5.6601,-5.6601,-5.6601,-5.6601,-5.6601,-5.6601,-5.6601,-5.6601,-5.6601,-5.6601,-5.6601,-5.6601,-5.6601,-5.6601,-5.6601,-5.6601,-5.6973,-5.7832,-5.8711,-5.9551,-6.0371,-6.123,-6.1699,-6.1699,-6.1699,-6.1699,-6.1699,-6.1699,-6.1699,-6.1699,-6.1699,-6.1699,-5.259,-5.2291,-5.1901,-5.1511,-5.1083,0.0,0.0,-4.9266,-4.8822,-4.8379,0.0,0.0,0.0,0.0,0.0,0.0,0.0,0.0,0.0,0.0,0.0,0.0,0.0,0.0,-4.6297,-4.5855,-4.5624,-4.5699,-4.5795,-4.5921,-4.6082,-4.6162,-4.6222,-4.6308,-4.6308,-4.6308,-4.6308,-4.6308,-4.6308,-4.6308,-4.6308,-4.6308,-4.6308,-4.6308,-4.6308,-4.6308,-4.6308,-4.6308,-4.6308,-4.6308,-4.6308,-4.6465,-4.8223,-4.8906,-4.9101,-5.0781,-5.1406,-5.1406,-5.1406,-5.1406,-5.1406,-5.1406,-5.1406,-5.1406,-5.1406,-5.1406,-5.1406,-5.1406,-5.1406,-5.1699,-5.3008,-5.3672,-5.4336,-5.5644,-5.6289,-5.6601,-5.6601,-5.6601,-5.6601,-5.6601,-5.6601,-5.6601,-5.6601,-5.6601,-5.6601,-5.6601,-5.6601,-5.6601,-5.6601,-5.6601,-5.6601,-5.6601,-5.6601,-5.6601,-5.6601,-5.6601,-5.6797,-5.7226,-5.8066,-5.8926,-5.9765,-6.0605,-6.1269,-6.1699,-6.1699,-6.1699,-6.1699,-6.1699,-6.1699,-6.1699,-6.1699,-6.1699,0.0,0.0,0.0,0.0,0.0,-5.165,0.0,0.0,0.0,0.0,0.0,0.0,0.0,0.0,0.0,0.0,0.0,0.0,0.0,0.0,0.0,0.0,0.0,0.0,0.0,-4.6374,-4.5855,-4.5815,-4.5893,-4.6011,-4.6123,-4.625,-4.6308,-4.6308,-4.6308,-4.6308,-4.6308,-4.6308,-4.6308,-4.6308,-4.6308,-4.6308,-4.6308,-4.6308,-4.6308,-4.6308,-4.6308,-4.6308,-4.6308,-4.6308,-4.6308,-4.6465,-4.8223,-4.8906,-4.9101,-5.0781,-5.1406,-5.1406,-5.1406,-5.1406,-5.1406,-5.1406,-5.1406,-5.1406,-5.1406,-5.1406,-5.1406,-5.1406,-5.1406,-5.1601,-5.2461,-5.3359,-5.4219,-5.5098,-5.5976,-5.6601,-5.6601,-5.6601,-5.6601,-5.6601,-5.6601,-5.6601,-5.6601,-5.6601,-5.6601,-5.6601,-5.6601,-5.6601,-5.6601,-5.6601,-5.6601,-5.6601,-5.6601,-5.6601,-5.6601,-5.6601,-5.6601,-5.6601,-5.7422,-5.8281,-5.916,-6.0137,-6.0976,-6.1699,-6.1699,-6.1699,-6.1699,-6.1699,-6.1699,-6.1699,-6.1699,-6.1699,0.0,0.0,0.0,0.0,-5.2535,0.0,0.0,0.0,-5.0431,-4.9636,0.0,0.0,0.0,0.0,0.0,0.0,0.0,0.0,0.0,0.0,0.0,0.0,0.0,0.0,0.0,-4.7278,-4.6567,-4.595,-4.602,-4.615,-4.6276,-4.6288,-4.6308,-4.6308,-4.6308,-4.6308,-4.6308,-4.6308,-4.6308,-4.6308,-4.6308,-4.6308,-4.6308,-4.6308,-4.6308,-4.6308,-4.6308,-4.6308,-4.6308,-4.6308,-4.6308,-4.6465,-4.8223,-4.8906,-4.9101,-5.0781,-5.1406,-5.1406,-5.1406,-5.1406,-5.1406,-5.1406,-5.1406,-5.1406,-5.1406,-5.1406,-5.1406,-5.1406,-5.1406,-5.1601,-5.2461,-5.3359,-5.4219,-5.5098,-5.5976,-5.6601,-5.6601,-5.6601,-5.6601,-5.6601,-5.6601,-5.6601,-5.6601,-5.6601,-5.6601,-5.6601,-5.6601,-5.6601,-5.6601,-5.6601,-5.6601,-5.6601,-5.6601,-5.6601,-5.6601,-5.6601,-5.6601,-5.6601,-5.7422,-5.8281,-5.916,-6.0703,-6.1601,-6.1699,-6.1699,-6.1699,-6.1699,-6.1699,-6.1699,-6.1699,-6.1699,-6.1699,0.0,0.0,0.0,0.0,0.0,0.0,-5.2126,0.0,-5.1261,0.0,0.0,0.0,0.0,0.0,0.0,0.0,-4.8556,0.0,0.0,0.0,0.0,0.0,0.0,0.0,0.0,0.0,0.0,0.0,-4.6789,-4.6693,-4.6327,-4.6308,-4.6308,-4.6308,-4.6308,-4.6308,-4.6308,-4.6308,-4.6308,-4.6308,-4.6308,-4.6308,-4.6308,-4.6308,-4.6308,-4.6308,-4.6308,-4.6308,-4.6308,-4.6308,-4.6308,-4.6465,-4.8223,-4.8906,-4.9101,-5.0781,-5.1406,-5.1406,-5.1406,-5.1406,-5.1406,-5.1406,-5.1406,-5.1406,-5.1406,-5.1406,-5.1406,-5.1406,-5.1406,-5.1484,-5.1855,-5.2969,-5.4082,-5.4453,-5.5605,-5.6601,-5.6601,-5.6601,-5.6601,-5.6601,-5.6601,-5.6601,-5.6601,-5.6601,-5.6601,-5.6601,-5.6601,-5.6601,-5.6601,-5.6601,-5.6601,-5.6601,-5.6601,-5.6601,-5.6601,-5.6601,-5.6601,-5.6601,-5.7422,-5.8281,-5.916,-6.0312,-6.1172,-6.1699,-6.1699,-6.1699,-6.1699,-6.1699,-6.1699,-6.1699,-6.1699,-6.1699,-5.3042,0.0,0.0,0.0,0.0,0.0,0.0,0.0,0.0,0.0,0.0,0.0,0.0,0.0,-4.8489,-4.8047,0.0,-4.9075,0.0,-4.9797,0.0,0.0,0.0,0.0,0.0,0.0,0.0,-4.7323,-4.7377,-4.7125,-4.6347,-4.6308,-4.6308,-4.6308,-4.6308,-4.6308,-4.6308,-4.6308,-4.6308,-4.6308,-4.6308,-4.6308,-4.6308,-4.6308,-4.6308,-4.6308,-4.6308,-4.6308,-4.6308,-4.6308,-4.6308,-4.6465,-4.8223,-4.8906,-4.9101,-5.0781,-5.1406,-5.1406,-5.1406,-5.1406,-5.1406,-5.1406,-5.1406,-5.1406,-5.1406,-5.1406,-5.1406,-5.1406,-5.1406,-5.1406,-5.1406,-5.2519,-5.3691,-5.3945,-5.5156,-5.6308,-5.6543,-5.6601,-5.6601,-5.6601,-5.6601,-5.6601,-5.6601,-5.6601,-5.6601,-5.6601,-5.6601,-5.6601,-5.6601,-5.6601,-5.6601,-5.6601,-5.6601,-5.6601,-5.6601,-5.6601,-5.6601,-5.6601,-5.7422,-5.8281,-5.916,-5.9961,-6.0801,-6.168,-6.1699,-6.1699,-6.1699,-6.1699,-6.1699,-6.1699,-6.1699,-6.1699,0.0,0.0,0.0,-5.3206,0.0,0.0,0.0,0.0,-5.2926,0.0,0.0,0.0,-4.9892,-4.9599,-4.9026,-4.7403,-4.8468,0.0,0.0,0.0,0.0,0.0,0.0,0.0,0.0,0.0,0.0,-4.7503,-4.7515,-4.7226,-4.6348,-4.6308,-4.6308,-4.6308,-4.6308,-4.6308,-4.6308,-4.6308,-4.6308,-4.6308,-4.6308,-4.6308,-4.6308,-4.6308,-4.6308,-4.6308,-4.6308,-4.6308,-4.6308,-4.6308,-4.6308,-4.6465,-4.8223,-4.8906,-4.9101,-5.0781,-5.1406,-5.1406,-5.1406,-5.1406,-5.1406,-5.1406,-5.1406,-5.1406,-5.1406,-5.1406,-5.1406,-5.1406,-5.1406,-5.1406,-5.1406,-5.207,-5.2949,-5.3808,-5.4687,-5.5566,-5.6426,-5.6601,-5.6601,-5.6601,-5.6601,-5.6601,-5.6601,-5.6601,-5.6601,-5.6601,-5.6601,-5.6601,-5.6601,-5.6601,-5.6601,-5.6601,-5.6601,-5.6601,-5.6601,-5.6601,-5.6601,-5.6601,-5.7422,-5.8281,-5.916,-5.9961,-6.0801,-6.168,-6.1699,-6.1699,-6.1699,-6.1699,-6.1699,-6.1699,-6.1699,-6.1699,0.0,0.0,-5.3206,-5.3206,0.0,0.0,0.0,0.0,0.0,0.0,0.0,0.0,0.0,-5.031,-4.9395,-4.8822,-4.9169,-4.9421,0.0,0.0,0.0,0.0,0.0,0.0,0.0,0.0,0.0,-4.9084,-4.8586,-4.7988,-4.7207,-4.6601,-4.6308,-4.6308,-4.6308,-4.6308,-4.6308,-4.6308,-4.6308,-4.6308,-4.6308,-4.6308,-4.6308,-4.6308,-4.6308,-4.6308,-4.6308,-4.6308,-4.6308,-4.6308,-4.6641,-4.7285,-4.8437,-4.9258,-4.9883,-5.0996,-5.1406,-5.1406,-5.1406,-5.1406,-5.1406,-5.1406,-5.1406,-5.1406,-5.1406,-5.1406,-5.1406,-5.1406,-5.1406,-5.1406,-5.1406,-5.2051,-5.293,-5.3789,-5.4668,-5.5547,-5.6406,-5.6601,-5.6601,-5.6601,-5.6601,-5.6601,-5.6601,-5.6601,-5.6601,-5.6601,-5.6601,-5.6601,-5.6601,-5.6601,-5.6601,-5.6601,-5.6601,-5.6601,-5.6601,-5.6601,-5.6601,-5.6601,-5.6875,-5.7422,-5.8301,-5.914,-5.998,-6.082,-6.1406,-6.1699,-6.1699,-6.1699,-6.1699,-6.1699,-6.1699,-6.1699,-5.306,-5.3206,0.0,-5.3206,-5.3206,0.0,-5.3206,0.0,-5.3206,0.0,0.0,0.0,0.0,-5.0941,-5.0144,-4.9265,-4.9604,-4.9935,0.0,-5.0358,0.0,0.0,0.0,0.0,0.0,-5.0863,-5.0584,-4.986,-4.9401,-4.8672,0.0,0.0,-4.6621,-4.6308,-4.6308,-4.6308,-4.6308,-4.6308,-4.6308,-4.6308,-4.6308,-4.6308,-4.6308,-4.6308,-4.6308,-4.6308,-4.6308,-4.6308,-4.6328,-4.6621,-4.709,-4.7715,-4.8906,-4.9707,-5.0293,-5.1094,-5.1406,-5.1406,-5.1406,-5.1406,-5.1406,-5.1406,-5.1406,-5.1406,-5.1406,-5.1406,-5.1348,-5.1055,-5.1172,-5.1328,-5.1055,-5.1601,-5.2539,-5.3711,-5.4433,-5.5156,-5.6348,-5.6601,-5.6601,-5.6601,-5.6601,-5.6601,-5.6601,-5.6601,-5.6601,-5.6601,-5.6601,-5.6601,-5.6601,-5.6601,-5.6601,-5.6601,-5.6601,-5.6601,-5.6601,-5.6601,-5.6601,-5.6601,-5.6601,-5.6992,-5.7851,-5.8437,-5.9121,-5.9961,-6.0801,-6.123,-6.123,-6.1543,-6.1699,-6.1699,-6.1699,-6.1699]}]]